<?xml version="1.0" encoding="UTF-8" standalone="no" ?>
<gpx xmlns="http://www.topografix.com/GPX/1/1" xmlns:xsi="http://www.w3.org/2001/XMLSchema-instance" xsi:schemaLocation="http://www.topografix.com/GPX/1/1 http://www.topografix.com/GPX/1/1/gpx.xsd" version="1.1" creator="VisuGPX - https://www.visugpx.com">
  <metadata>
    <name>secteur Saverne - Dabo - Petite Pierre</name>
  </metadata>
  <trk>
    <name><![CDATA[secteur Saverne - Dabo - Petite Pierre_18]]></name>
    <trkseg>
      <trkpt lat="48.70876" lon="7.21898">
        <ele>312.7</ele>
        <time>2020-05-22T13:50:21Z</time>
      </trkpt>
      <trkpt lat="48.70876" lon="7.21898">
        <ele>312.7</ele>
        <time>2020-05-22T13:50:21Z</time>
      </trkpt>
      <trkpt lat="48.70876" lon="7.21898">
        <ele>312.7</ele>
        <time>2020-05-22T13:50:21Z</time>
      </trkpt>
      <trkpt lat="48.70876" lon="7.21898">
        <ele>312.7</ele>
        <time>2020-05-22T13:50:21Z</time>
      </trkpt>
      <trkpt lat="48.70876" lon="7.21898">
        <ele>312.7</ele>
        <time>2020-05-22T13:50:21Z</time>
      </trkpt>
      <trkpt lat="48.70876" lon="7.21898">
        <ele>312.7</ele>
        <time>2020-05-22T13:50:21Z</time>
      </trkpt>
      <trkpt lat="48.70876" lon="7.21898">
        <ele>312.7</ele>
        <time>2020-05-22T13:50:21Z</time>
      </trkpt>
      <trkpt lat="48.70876" lon="7.21898">
        <ele>312.7</ele>
        <time>2020-05-22T13:50:21Z</time>
      </trkpt>
      <trkpt lat="48.70873" lon="7.21896">
        <ele>312.1</ele>
        <time>2020-05-22T13:50:23Z</time>
      </trkpt>
      <trkpt lat="48.70873" lon="7.21896">
        <ele>312</ele>
        <time>2020-05-22T13:50:24Z</time>
      </trkpt>
      <trkpt lat="48.70872" lon="7.21895">
        <ele>311.8</ele>
        <time>2020-05-22T13:50:25Z</time>
      </trkpt>
      <trkpt lat="48.70872" lon="7.21895">
        <ele>311.7</ele>
        <time>2020-05-22T13:50:27Z</time>
      </trkpt>
      <trkpt lat="48.70871" lon="7.21895">
        <ele>311.6</ele>
        <time>2020-05-22T13:50:29Z</time>
      </trkpt>
      <trkpt lat="48.70871" lon="7.21894">
        <ele>311.5</ele>
        <time>2020-05-22T13:50:30Z</time>
      </trkpt>
      <trkpt lat="48.7087" lon="7.21894">
        <ele>311.3</ele>
        <time>2020-05-22T13:50:31Z</time>
      </trkpt>
      <trkpt lat="48.7087" lon="7.21893">
        <ele>311.2</ele>
        <time>2020-05-22T13:50:32Z</time>
      </trkpt>
      <trkpt lat="48.70869" lon="7.21892">
        <ele>311.1</ele>
        <time>2020-05-22T13:50:34Z</time>
      </trkpt>
      <trkpt lat="48.70869" lon="7.21892">
        <ele>311</ele>
        <time>2020-05-22T13:50:36Z</time>
      </trkpt>
      <trkpt lat="48.70869" lon="7.21891">
        <ele>310.9</ele>
        <time>2020-05-22T13:50:38Z</time>
      </trkpt>
      <trkpt lat="48.70868" lon="7.21891">
        <ele>310.8</ele>
        <time>2020-05-22T13:50:40Z</time>
      </trkpt>
      <trkpt lat="48.70868" lon="7.2189">
        <ele>310.7</ele>
        <time>2020-05-22T13:50:41Z</time>
      </trkpt>
      <trkpt lat="48.70865" lon="7.21884">
        <ele>309.7</ele>
        <time>2020-05-22T13:50:43Z</time>
      </trkpt>
      <trkpt lat="48.70864" lon="7.21879">
        <ele>309.1</ele>
        <time>2020-05-22T13:50:44Z</time>
      </trkpt>
      <trkpt lat="48.70862" lon="7.21874">
        <ele>308.5</ele>
        <time>2020-05-22T13:50:45Z</time>
      </trkpt>
      <trkpt lat="48.70859" lon="7.21863">
        <ele>307</ele>
        <time>2020-05-22T13:50:47Z</time>
      </trkpt>
      <trkpt lat="48.70853" lon="7.21848">
        <ele>304.9</ele>
        <time>2020-05-22T13:50:49Z</time>
      </trkpt>
      <trkpt lat="48.70851" lon="7.21841">
        <ele>303.8</ele>
        <time>2020-05-22T13:50:50Z</time>
      </trkpt>
      <trkpt lat="48.70844" lon="7.21832">
        <ele>302.2</ele>
        <time>2020-05-22T13:50:52Z</time>
      </trkpt>
      <trkpt lat="48.70843" lon="7.2183">
        <ele>301.8</ele>
        <time>2020-05-22T13:50:54Z</time>
      </trkpt>
      <trkpt lat="48.70844" lon="7.21831">
        <ele>301.7</ele>
        <time>2020-05-22T13:50:55Z</time>
      </trkpt>
      <trkpt lat="48.70844" lon="7.21832">
        <ele>301.5</ele>
        <time>2020-05-22T13:50:56Z</time>
      </trkpt>
      <trkpt lat="48.70844" lon="7.21832">
        <ele>301.4</ele>
        <time>2020-05-22T13:50:58Z</time>
      </trkpt>
      <trkpt lat="48.70844" lon="7.21831">
        <ele>301.3</ele>
        <time>2020-05-22T13:50:59Z</time>
      </trkpt>
      <trkpt lat="48.70844" lon="7.2183">
        <ele>301.2</ele>
        <time>2020-05-22T13:51:00Z</time>
      </trkpt>
      <trkpt lat="48.70844" lon="7.21829">
        <ele>301</ele>
        <time>2020-05-22T13:51:02Z</time>
      </trkpt>
      <trkpt lat="48.70844" lon="7.21828">
        <ele>301</ele>
        <time>2020-05-22T13:51:03Z</time>
      </trkpt>
      <trkpt lat="48.70843" lon="7.21828">
        <ele>300.8</ele>
        <time>2020-05-22T13:51:05Z</time>
      </trkpt>
      <trkpt lat="48.70843" lon="7.21828">
        <ele>300.8</ele>
        <time>2020-05-22T13:51:06Z</time>
      </trkpt>
      <trkpt lat="48.70841" lon="7.21824">
        <ele>300.2</ele>
        <time>2020-05-22T13:51:08Z</time>
      </trkpt>
      <trkpt lat="48.70837" lon="7.21814">
        <ele>298.7</ele>
        <time>2020-05-22T13:51:10Z</time>
      </trkpt>
      <trkpt lat="48.70833" lon="7.21808">
        <ele>297.7</ele>
        <time>2020-05-22T13:51:11Z</time>
      </trkpt>
      <trkpt lat="48.70829" lon="7.21803">
        <ele>296.8</ele>
        <time>2020-05-22T13:51:12Z</time>
      </trkpt>
      <trkpt lat="48.70822" lon="7.21792">
        <ele>294.8</ele>
        <time>2020-05-22T13:51:14Z</time>
      </trkpt>
      <trkpt lat="48.70819" lon="7.21787">
        <ele>294</ele>
        <time>2020-05-22T13:51:15Z</time>
      </trkpt>
      <trkpt lat="48.70816" lon="7.21783">
        <ele>293.2</ele>
        <time>2020-05-22T13:51:16Z</time>
      </trkpt>
      <trkpt lat="48.70808" lon="7.2178">
        <ele>291.7</ele>
        <time>2020-05-22T13:51:18Z</time>
      </trkpt>
      <trkpt lat="48.70804" lon="7.21776">
        <ele>290.9</ele>
        <time>2020-05-22T13:51:20Z</time>
      </trkpt>
      <trkpt lat="48.70799" lon="7.21773">
        <ele>289.9</ele>
        <time>2020-05-22T13:51:22Z</time>
      </trkpt>
      <trkpt lat="48.70793" lon="7.21768">
        <ele>288.5</ele>
        <time>2020-05-22T13:51:24Z</time>
      </trkpt>
      <trkpt lat="48.7079" lon="7.21765">
        <ele>287.9</ele>
        <time>2020-05-22T13:51:25Z</time>
      </trkpt>
      <trkpt lat="48.70787" lon="7.21762">
        <ele>287.1</ele>
        <time>2020-05-22T13:51:26Z</time>
      </trkpt>
      <trkpt lat="48.7078" lon="7.21757">
        <ele>285.6</ele>
        <time>2020-05-22T13:51:28Z</time>
      </trkpt>
      <trkpt lat="48.70775" lon="7.21754">
        <ele>284.7</ele>
        <time>2020-05-22T13:51:29Z</time>
      </trkpt>
      <trkpt lat="48.70768" lon="7.21751">
        <ele>283.3</ele>
        <time>2020-05-22T13:51:30Z</time>
      </trkpt>
      <trkpt lat="48.70762" lon="7.21748">
        <ele>281.6</ele>
        <time>2020-05-22T13:51:31Z</time>
      </trkpt>
      <trkpt lat="48.70753" lon="7.21744">
        <ele>280.2</ele>
        <time>2020-05-22T13:51:33Z</time>
      </trkpt>
      <trkpt lat="48.70748" lon="7.21741">
        <ele>278.4</ele>
        <time>2020-05-22T13:51:34Z</time>
      </trkpt>
      <trkpt lat="48.70741" lon="7.21738">
        <ele>279</ele>
        <time>2020-05-22T13:51:36Z</time>
      </trkpt>
      <trkpt lat="48.70737" lon="7.21737">
        <ele>277</ele>
        <time>2020-05-22T13:51:37Z</time>
      </trkpt>
      <trkpt lat="48.70731" lon="7.21734">
        <ele>277.4</ele>
        <time>2020-05-22T13:51:39Z</time>
      </trkpt>
      <trkpt lat="48.70727" lon="7.21733">
        <ele>275.7</ele>
        <time>2020-05-22T13:51:40Z</time>
      </trkpt>
      <trkpt lat="48.70725" lon="7.21732">
        <ele>275.7</ele>
        <time>2020-05-22T13:51:41Z</time>
      </trkpt>
      <trkpt lat="48.70717" lon="7.21732">
        <ele>276.6</ele>
        <time>2020-05-22T13:51:43Z</time>
      </trkpt>
      <trkpt lat="48.7071" lon="7.21733">
        <ele>277.7</ele>
        <time>2020-05-22T13:51:45Z</time>
      </trkpt>
      <trkpt lat="48.70706" lon="7.21732">
        <ele>278.1</ele>
        <time>2020-05-22T13:51:47Z</time>
      </trkpt>
      <trkpt lat="48.70701" lon="7.21729">
        <ele>276.9</ele>
        <time>2020-05-22T13:51:50Z</time>
      </trkpt>
      <trkpt lat="48.70699" lon="7.21727">
        <ele>277.4</ele>
        <time>2020-05-22T13:51:51Z</time>
      </trkpt>
      <trkpt lat="48.70694" lon="7.21722">
        <ele>275.8</ele>
        <time>2020-05-22T13:51:53Z</time>
      </trkpt>
      <trkpt lat="48.70687" lon="7.21718">
        <ele>275.3</ele>
        <time>2020-05-22T13:51:55Z</time>
      </trkpt>
      <trkpt lat="48.70683" lon="7.21717">
        <ele>275.9</ele>
        <time>2020-05-22T13:51:56Z</time>
      </trkpt>
      <trkpt lat="48.70654" lon="7.2171">
        <ele>276.2</ele>
        <time>2020-05-22T13:52:02Z</time>
      </trkpt>
      <trkpt lat="48.7065" lon="7.2171">
        <ele>276.3</ele>
        <time>2020-05-22T13:52:03Z</time>
      </trkpt>
      <trkpt lat="48.70647" lon="7.21709">
        <ele>276.4</ele>
        <time>2020-05-22T13:52:04Z</time>
      </trkpt>
      <trkpt lat="48.70641" lon="7.21708">
        <ele>276.4</ele>
        <time>2020-05-22T13:52:06Z</time>
      </trkpt>
      <trkpt lat="48.70635" lon="7.21708">
        <ele>276.3</ele>
        <time>2020-05-22T13:52:08Z</time>
      </trkpt>
      <trkpt lat="48.70632" lon="7.21709">
        <ele>276.1</ele>
        <time>2020-05-22T13:52:09Z</time>
      </trkpt>
      <trkpt lat="48.70631" lon="7.21709">
        <ele>275.9</ele>
        <time>2020-05-22T13:52:10Z</time>
      </trkpt>
      <trkpt lat="48.70627" lon="7.21708">
        <ele>275.6</ele>
        <time>2020-05-22T13:52:11Z</time>
      </trkpt>
      <trkpt lat="48.70626" lon="7.21708">
        <ele>275.6</ele>
        <time>2020-05-22T13:52:12Z</time>
      </trkpt>
      <trkpt lat="48.70623" lon="7.21709">
        <ele>275.3</ele>
        <time>2020-05-22T13:52:14Z</time>
      </trkpt>
      <trkpt lat="48.70618" lon="7.21709">
        <ele>274.8</ele>
        <time>2020-05-22T13:52:16Z</time>
      </trkpt>
      <trkpt lat="48.70615" lon="7.2171">
        <ele>274.5</ele>
        <time>2020-05-22T13:52:17Z</time>
      </trkpt>
      <trkpt lat="48.70613" lon="7.21711">
        <ele>274.3</ele>
        <time>2020-05-22T13:52:18Z</time>
      </trkpt>
      <trkpt lat="48.70609" lon="7.21711">
        <ele>274.1</ele>
        <time>2020-05-22T13:52:20Z</time>
      </trkpt>
      <trkpt lat="48.70606" lon="7.2171">
        <ele>273.9</ele>
        <time>2020-05-22T13:52:21Z</time>
      </trkpt>
      <trkpt lat="48.70605" lon="7.2171">
        <ele>273.7</ele>
        <time>2020-05-22T13:52:22Z</time>
      </trkpt>
      <trkpt lat="48.70603" lon="7.21711">
        <ele>273.6</ele>
        <time>2020-05-22T13:52:23Z</time>
      </trkpt>
      <trkpt lat="48.70602" lon="7.21712">
        <ele>275.7</ele>
        <time>2020-05-22T13:52:25Z</time>
      </trkpt>
      <trkpt lat="48.70599" lon="7.21714">
        <ele>275.6</ele>
        <time>2020-05-22T13:52:27Z</time>
      </trkpt>
      <trkpt lat="48.70597" lon="7.21715">
        <ele>275.5</ele>
        <time>2020-05-22T13:52:28Z</time>
      </trkpt>
      <trkpt lat="48.70593" lon="7.21716">
        <ele>275.4</ele>
        <time>2020-05-22T13:52:30Z</time>
      </trkpt>
      <trkpt lat="48.70589" lon="7.21716">
        <ele>277.5</ele>
        <time>2020-05-22T13:52:31Z</time>
      </trkpt>
      <trkpt lat="48.70588" lon="7.21717">
        <ele>277.5</ele>
        <time>2020-05-22T13:52:32Z</time>
      </trkpt>
      <trkpt lat="48.70584" lon="7.21717">
        <ele>277.6</ele>
        <time>2020-05-22T13:52:34Z</time>
      </trkpt>
      <trkpt lat="48.70583" lon="7.21717">
        <ele>277.7</ele>
        <time>2020-05-22T13:52:35Z</time>
      </trkpt>
      <trkpt lat="48.70581" lon="7.21717">
        <ele>277.7</ele>
        <time>2020-05-22T13:52:36Z</time>
      </trkpt>
      <trkpt lat="48.70578" lon="7.21717">
        <ele>277.8</ele>
        <time>2020-05-22T13:52:38Z</time>
      </trkpt>
      <trkpt lat="48.70573" lon="7.21718">
        <ele>278.2</ele>
        <time>2020-05-22T13:52:40Z</time>
      </trkpt>
      <trkpt lat="48.70569" lon="7.21717">
        <ele>278.6</ele>
        <time>2020-05-22T13:52:42Z</time>
      </trkpt>
      <trkpt lat="48.70565" lon="7.21718">
        <ele>278.8</ele>
        <time>2020-05-22T13:52:44Z</time>
      </trkpt>
      <trkpt lat="48.7056" lon="7.21718">
        <ele>279.3</ele>
        <time>2020-05-22T13:52:46Z</time>
      </trkpt>
      <trkpt lat="48.70558" lon="7.21717">
        <ele>279.3</ele>
        <time>2020-05-22T13:52:47Z</time>
      </trkpt>
      <trkpt lat="48.70554" lon="7.21717">
        <ele>279.8</ele>
        <time>2020-05-22T13:52:49Z</time>
      </trkpt>
      <trkpt lat="48.70552" lon="7.21717">
        <ele>280</ele>
        <time>2020-05-22T13:52:50Z</time>
      </trkpt>
      <trkpt lat="48.70551" lon="7.21717">
        <ele>279.9</ele>
        <time>2020-05-22T13:52:51Z</time>
      </trkpt>
      <trkpt lat="48.70546" lon="7.21717">
        <ele>280.5</ele>
        <time>2020-05-22T13:52:53Z</time>
      </trkpt>
      <trkpt lat="48.70544" lon="7.21718">
        <ele>280.5</ele>
        <time>2020-05-22T13:52:54Z</time>
      </trkpt>
      <trkpt lat="48.7054" lon="7.21719">
        <ele>280.9</ele>
        <time>2020-05-22T13:52:56Z</time>
      </trkpt>
      <trkpt lat="48.70537" lon="7.2172">
        <ele>281.1</ele>
        <time>2020-05-22T13:52:57Z</time>
      </trkpt>
      <trkpt lat="48.70536" lon="7.2172">
        <ele>281.1</ele>
        <time>2020-05-22T13:52:58Z</time>
      </trkpt>
      <trkpt lat="48.70534" lon="7.2172">
        <ele>283.2</ele>
        <time>2020-05-22T13:52:59Z</time>
      </trkpt>
      <trkpt lat="48.70529" lon="7.2172">
        <ele>283.4</ele>
        <time>2020-05-22T13:53:01Z</time>
      </trkpt>
      <trkpt lat="48.70525" lon="7.21721">
        <ele>283.5</ele>
        <time>2020-05-22T13:53:03Z</time>
      </trkpt>
      <trkpt lat="48.70522" lon="7.2172">
        <ele>283.5</ele>
        <time>2020-05-22T13:53:04Z</time>
      </trkpt>
      <trkpt lat="48.7052" lon="7.2172">
        <ele>281.6</ele>
        <time>2020-05-22T13:53:05Z</time>
      </trkpt>
      <trkpt lat="48.70519" lon="7.2172">
        <ele>281.5</ele>
        <time>2020-05-22T13:53:06Z</time>
      </trkpt>
      <trkpt lat="48.70515" lon="7.2172">
        <ele>283.5</ele>
        <time>2020-05-22T13:53:08Z</time>
      </trkpt>
      <trkpt lat="48.70513" lon="7.21721">
        <ele>283.4</ele>
        <time>2020-05-22T13:53:09Z</time>
      </trkpt>
      <trkpt lat="48.70509" lon="7.21722">
        <ele>283.4</ele>
        <time>2020-05-22T13:53:11Z</time>
      </trkpt>
      <trkpt lat="48.70507" lon="7.21723">
        <ele>283.3</ele>
        <time>2020-05-22T13:53:12Z</time>
      </trkpt>
      <trkpt lat="48.70504" lon="7.21724">
        <ele>283.2</ele>
        <time>2020-05-22T13:53:14Z</time>
      </trkpt>
      <trkpt lat="48.705" lon="7.21725">
        <ele>284.9</ele>
        <time>2020-05-22T13:53:16Z</time>
      </trkpt>
      <trkpt lat="48.70498" lon="7.21727">
        <ele>284.8</ele>
        <time>2020-05-22T13:53:18Z</time>
      </trkpt>
      <trkpt lat="48.70494" lon="7.21729">
        <ele>284.6</ele>
        <time>2020-05-22T13:53:20Z</time>
      </trkpt>
      <trkpt lat="48.70493" lon="7.21729">
        <ele>286.5</ele>
        <time>2020-05-22T13:53:21Z</time>
      </trkpt>
      <trkpt lat="48.7049" lon="7.21729">
        <ele>286.4</ele>
        <time>2020-05-22T13:53:23Z</time>
      </trkpt>
      <trkpt lat="48.70488" lon="7.2173">
        <ele>286.2</ele>
        <time>2020-05-22T13:53:24Z</time>
      </trkpt>
      <trkpt lat="48.70485" lon="7.2173">
        <ele>286</ele>
        <time>2020-05-22T13:53:26Z</time>
      </trkpt>
      <trkpt lat="48.70483" lon="7.21732">
        <ele>285.8</ele>
        <time>2020-05-22T13:53:28Z</time>
      </trkpt>
      <trkpt lat="48.70478" lon="7.21735">
        <ele>287.1</ele>
        <time>2020-05-22T13:53:30Z</time>
      </trkpt>
      <trkpt lat="48.70477" lon="7.21737">
        <ele>287.1</ele>
        <time>2020-05-22T13:53:32Z</time>
      </trkpt>
      <trkpt lat="48.70475" lon="7.21738">
        <ele>288.6</ele>
        <time>2020-05-22T13:53:34Z</time>
      </trkpt>
      <trkpt lat="48.70475" lon="7.21739">
        <ele>288.6</ele>
        <time>2020-05-22T13:53:35Z</time>
      </trkpt>
      <trkpt lat="48.70475" lon="7.2174">
        <ele>288.5</ele>
        <time>2020-05-22T13:53:37Z</time>
      </trkpt>
      <trkpt lat="48.70474" lon="7.21741">
        <ele>288.5</ele>
        <time>2020-05-22T13:53:39Z</time>
      </trkpt>
      <trkpt lat="48.70474" lon="7.21743">
        <ele>290.4</ele>
        <time>2020-05-22T13:53:41Z</time>
      </trkpt>
      <trkpt lat="48.70473" lon="7.21744">
        <ele>290.3</ele>
        <time>2020-05-22T13:53:42Z</time>
      </trkpt>
      <trkpt lat="48.70473" lon="7.21744">
        <ele>290.3</ele>
        <time>2020-05-22T13:53:43Z</time>
      </trkpt>
      <trkpt lat="48.70473" lon="7.21745">
        <ele>290.3</ele>
        <time>2020-05-22T13:53:44Z</time>
      </trkpt>
      <trkpt lat="48.70473" lon="7.21745">
        <ele>289.9</ele>
        <time>2020-05-22T13:53:46Z</time>
      </trkpt>
      <trkpt lat="48.70473" lon="7.21745">
        <ele>289.8</ele>
        <time>2020-05-22T13:53:47Z</time>
      </trkpt>
      <trkpt lat="48.70473" lon="7.21745">
        <ele>289.8</ele>
        <time>2020-05-22T13:53:49Z</time>
      </trkpt>
      <trkpt lat="48.70473" lon="7.21745">
        <ele>289.8</ele>
        <time>2020-05-22T13:53:50Z</time>
      </trkpt>
      <trkpt lat="48.70473" lon="7.21745">
        <ele>289.7</ele>
        <time>2020-05-22T13:53:52Z</time>
      </trkpt>
      <trkpt lat="48.70473" lon="7.21745">
        <ele>289.7</ele>
        <time>2020-05-22T13:53:53Z</time>
      </trkpt>
      <trkpt lat="48.70472" lon="7.21745">
        <ele>289.7</ele>
        <time>2020-05-22T13:53:55Z</time>
      </trkpt>
      <trkpt lat="48.7047" lon="7.21745">
        <ele>289.2</ele>
        <time>2020-05-22T13:53:59Z</time>
      </trkpt>
      <trkpt lat="48.70463" lon="7.21747">
        <ele>290.2</ele>
        <time>2020-05-22T13:54:01Z</time>
      </trkpt>
      <trkpt lat="48.70453" lon="7.2175">
        <ele>288.8</ele>
        <time>2020-05-22T13:54:03Z</time>
      </trkpt>
      <trkpt lat="48.70444" lon="7.21751">
        <ele>287.9</ele>
        <time>2020-05-22T13:54:05Z</time>
      </trkpt>
      <trkpt lat="48.70439" lon="7.21752">
        <ele>287</ele>
        <time>2020-05-22T13:54:06Z</time>
      </trkpt>
      <trkpt lat="48.7043" lon="7.21756">
        <ele>285.6</ele>
        <time>2020-05-22T13:54:08Z</time>
      </trkpt>
      <trkpt lat="48.70425" lon="7.21758">
        <ele>284.7</ele>
        <time>2020-05-22T13:54:09Z</time>
      </trkpt>
      <trkpt lat="48.70418" lon="7.21759">
        <ele>283.5</ele>
        <time>2020-05-22T13:54:11Z</time>
      </trkpt>
      <trkpt lat="48.70411" lon="7.21757">
        <ele>279.9</ele>
        <time>2020-05-22T13:54:13Z</time>
      </trkpt>
      <trkpt lat="48.70404" lon="7.21754">
        <ele>275.5</ele>
        <time>2020-05-22T13:54:15Z</time>
      </trkpt>
      <trkpt lat="48.70398" lon="7.21752">
        <ele>273.7</ele>
        <time>2020-05-22T13:54:17Z</time>
      </trkpt>
      <trkpt lat="48.70396" lon="7.21751">
        <ele>272.7</ele>
        <time>2020-05-22T13:54:19Z</time>
      </trkpt>
      <trkpt lat="48.70395" lon="7.21751">
        <ele>272.7</ele>
        <time>2020-05-22T13:54:21Z</time>
      </trkpt>
      <trkpt lat="48.70394" lon="7.21751">
        <ele>272.7</ele>
        <time>2020-05-22T13:54:23Z</time>
      </trkpt>
      <trkpt lat="48.70394" lon="7.21751">
        <ele>272.6</ele>
        <time>2020-05-22T13:54:24Z</time>
      </trkpt>
      <trkpt lat="48.70395" lon="7.21751">
        <ele>272.6</ele>
        <time>2020-05-22T13:54:25Z</time>
      </trkpt>
      <trkpt lat="48.70395" lon="7.21751">
        <ele>272.6</ele>
        <time>2020-05-22T13:54:26Z</time>
      </trkpt>
      <trkpt lat="48.70395" lon="7.21751">
        <ele>272.5</ele>
        <time>2020-05-22T13:54:28Z</time>
      </trkpt>
      <trkpt lat="48.70395" lon="7.21751">
        <ele>272.5</ele>
        <time>2020-05-22T13:54:29Z</time>
      </trkpt>
      <trkpt lat="48.70395" lon="7.21751">
        <ele>272.5</ele>
        <time>2020-05-22T13:54:31Z</time>
      </trkpt>
      <trkpt lat="48.70395" lon="7.21751">
        <ele>272.4</ele>
        <time>2020-05-22T13:54:33Z</time>
      </trkpt>
      <trkpt lat="48.70392" lon="7.21749">
        <ele>270</ele>
        <time>2020-05-22T13:54:52Z</time>
      </trkpt>
      <trkpt lat="48.7039" lon="7.21747">
        <ele>269</ele>
        <time>2020-05-22T13:54:53Z</time>
      </trkpt>
      <trkpt lat="48.70389" lon="7.21747">
        <ele>268.9</ele>
        <time>2020-05-22T13:54:55Z</time>
      </trkpt>
      <trkpt lat="48.7039" lon="7.21747">
        <ele>268.9</ele>
        <time>2020-05-22T13:54:57Z</time>
      </trkpt>
      <trkpt lat="48.7039" lon="7.21746">
        <ele>268.9</ele>
        <time>2020-05-22T13:54:58Z</time>
      </trkpt>
      <trkpt lat="48.7039" lon="7.21746">
        <ele>267.5</ele>
        <time>2020-05-22T13:55:00Z</time>
      </trkpt>
      <trkpt lat="48.70389" lon="7.21746">
        <ele>267.5</ele>
        <time>2020-05-22T13:55:02Z</time>
      </trkpt>
      <trkpt lat="48.70389" lon="7.21745">
        <ele>267.4</ele>
        <time>2020-05-22T13:55:03Z</time>
      </trkpt>
      <trkpt lat="48.70389" lon="7.21745">
        <ele>267.4</ele>
        <time>2020-05-22T13:55:04Z</time>
      </trkpt>
      <trkpt lat="48.70383" lon="7.21746">
        <ele>265.5</ele>
        <time>2020-05-22T13:55:06Z</time>
      </trkpt>
      <trkpt lat="48.70379" lon="7.21747">
        <ele>265.8</ele>
        <time>2020-05-22T13:55:07Z</time>
      </trkpt>
      <trkpt lat="48.70375" lon="7.21749">
        <ele>264.2</ele>
        <time>2020-05-22T13:55:08Z</time>
      </trkpt>
      <trkpt lat="48.7037" lon="7.21751">
        <ele>263.6</ele>
        <time>2020-05-22T13:55:10Z</time>
      </trkpt>
      <trkpt lat="48.70367" lon="7.21751">
        <ele>262.6</ele>
        <time>2020-05-22T13:55:11Z</time>
      </trkpt>
      <trkpt lat="48.7036" lon="7.21751">
        <ele>260.5</ele>
        <time>2020-05-22T13:55:13Z</time>
      </trkpt>
      <trkpt lat="48.70351" lon="7.21753">
        <ele>257</ele>
        <time>2020-05-22T13:55:15Z</time>
      </trkpt>
      <trkpt lat="48.70346" lon="7.21756">
        <ele>257.2</ele>
        <time>2020-05-22T13:55:16Z</time>
      </trkpt>
      <trkpt lat="48.70335" lon="7.21765">
        <ele>256.1</ele>
        <time>2020-05-22T13:55:18Z</time>
      </trkpt>
      <trkpt lat="48.70326" lon="7.21775">
        <ele>256</ele>
        <time>2020-05-22T13:55:20Z</time>
      </trkpt>
      <trkpt lat="48.70321" lon="7.21777">
        <ele>255.9</ele>
        <time>2020-05-22T13:55:21Z</time>
      </trkpt>
      <trkpt lat="48.70316" lon="7.21778">
        <ele>255.9</ele>
        <time>2020-05-22T13:55:22Z</time>
      </trkpt>
      <trkpt lat="48.70311" lon="7.21782">
        <ele>255.8</ele>
        <time>2020-05-22T13:55:23Z</time>
      </trkpt>
      <trkpt lat="48.703" lon="7.2179">
        <ele>255.2</ele>
        <time>2020-05-22T13:55:25Z</time>
      </trkpt>
      <trkpt lat="48.70296" lon="7.21794">
        <ele>254.9</ele>
        <time>2020-05-22T13:55:26Z</time>
      </trkpt>
      <trkpt lat="48.70292" lon="7.218">
        <ele>254.5</ele>
        <time>2020-05-22T13:55:27Z</time>
      </trkpt>
      <trkpt lat="48.70284" lon="7.21813">
        <ele>255.1</ele>
        <time>2020-05-22T13:55:29Z</time>
      </trkpt>
      <trkpt lat="48.70277" lon="7.2182">
        <ele>255.5</ele>
        <time>2020-05-22T13:55:31Z</time>
      </trkpt>
      <trkpt lat="48.70268" lon="7.21828">
        <ele>255.9</ele>
        <time>2020-05-22T13:55:33Z</time>
      </trkpt>
      <trkpt lat="48.70259" lon="7.21836">
        <ele>256.2</ele>
        <time>2020-05-22T13:55:35Z</time>
      </trkpt>
      <trkpt lat="48.70253" lon="7.21845">
        <ele>256.5</ele>
        <time>2020-05-22T13:55:37Z</time>
      </trkpt>
      <trkpt lat="48.7025" lon="7.21849">
        <ele>256.6</ele>
        <time>2020-05-22T13:55:38Z</time>
      </trkpt>
      <trkpt lat="48.70245" lon="7.21855">
        <ele>256.9</ele>
        <time>2020-05-22T13:55:40Z</time>
      </trkpt>
      <trkpt lat="48.70242" lon="7.21856">
        <ele>257</ele>
        <time>2020-05-22T13:55:41Z</time>
      </trkpt>
      <trkpt lat="48.70236" lon="7.21858">
        <ele>257.4</ele>
        <time>2020-05-22T13:55:43Z</time>
      </trkpt>
      <trkpt lat="48.70227" lon="7.21858">
        <ele>258</ele>
        <time>2020-05-22T13:55:45Z</time>
      </trkpt>
      <trkpt lat="48.70222" lon="7.21858">
        <ele>258.4</ele>
        <time>2020-05-22T13:55:46Z</time>
      </trkpt>
      <trkpt lat="48.70211" lon="7.2186">
        <ele>259.3</ele>
        <time>2020-05-22T13:55:48Z</time>
      </trkpt>
      <trkpt lat="48.70202" lon="7.21872">
        <ele>260.2</ele>
        <time>2020-05-22T13:55:50Z</time>
      </trkpt>
      <trkpt lat="48.70196" lon="7.21883">
        <ele>261.1</ele>
        <time>2020-05-22T13:55:52Z</time>
      </trkpt>
      <trkpt lat="48.70191" lon="7.2189">
        <ele>261.7</ele>
        <time>2020-05-22T13:55:53Z</time>
      </trkpt>
      <trkpt lat="48.70186" lon="7.21898">
        <ele>262.3</ele>
        <time>2020-05-22T13:55:54Z</time>
      </trkpt>
      <trkpt lat="48.70178" lon="7.21914">
        <ele>263.4</ele>
        <time>2020-05-22T13:55:56Z</time>
      </trkpt>
      <trkpt lat="48.70176" lon="7.21926">
        <ele>263.9</ele>
        <time>2020-05-22T13:55:58Z</time>
      </trkpt>
      <trkpt lat="48.70174" lon="7.21929">
        <ele>264</ele>
        <time>2020-05-22T13:56:00Z</time>
      </trkpt>
      <trkpt lat="48.70172" lon="7.2193">
        <ele>264.1</ele>
        <time>2020-05-22T13:56:01Z</time>
      </trkpt>
      <trkpt lat="48.70172" lon="7.21931">
        <ele>264.2</ele>
        <time>2020-05-22T13:56:03Z</time>
      </trkpt>
      <trkpt lat="48.70172" lon="7.2193">
        <ele>264.2</ele>
        <time>2020-05-22T13:56:04Z</time>
      </trkpt>
      <trkpt lat="48.70172" lon="7.2193">
        <ele>264.2</ele>
        <time>2020-05-22T13:56:06Z</time>
      </trkpt>
      <trkpt lat="48.70172" lon="7.2193">
        <ele>264.3</ele>
        <time>2020-05-22T13:56:08Z</time>
      </trkpt>
      <trkpt lat="48.70173" lon="7.2193">
        <ele>264.3</ele>
        <time>2020-05-22T13:56:10Z</time>
      </trkpt>
      <trkpt lat="48.70173" lon="7.2193">
        <ele>264.3</ele>
        <time>2020-05-22T13:56:11Z</time>
      </trkpt>
      <trkpt lat="48.70173" lon="7.2193">
        <ele>264.3</ele>
        <time>2020-05-22T13:56:12Z</time>
      </trkpt>
      <trkpt lat="48.70174" lon="7.21931">
        <ele>264.4</ele>
        <time>2020-05-22T13:56:14Z</time>
      </trkpt>
      <trkpt lat="48.70174" lon="7.21932">
        <ele>264.4</ele>
        <time>2020-05-22T13:56:16Z</time>
      </trkpt>
      <trkpt lat="48.70174" lon="7.21932">
        <ele>264.4</ele>
        <time>2020-05-22T13:56:18Z</time>
      </trkpt>
      <trkpt lat="48.70174" lon="7.21932">
        <ele>264.4</ele>
        <time>2020-05-22T13:56:19Z</time>
      </trkpt>
      <trkpt lat="48.70175" lon="7.21932">
        <ele>264.4</ele>
        <time>2020-05-22T13:56:21Z</time>
      </trkpt>
      <trkpt lat="48.70175" lon="7.21932">
        <ele>264.4</ele>
        <time>2020-05-22T13:56:22Z</time>
      </trkpt>
      <trkpt lat="48.70175" lon="7.21931">
        <ele>264.5</ele>
        <time>2020-05-22T13:56:23Z</time>
      </trkpt>
      <trkpt lat="48.70176" lon="7.21931">
        <ele>264.5</ele>
        <time>2020-05-22T13:56:24Z</time>
      </trkpt>
      <trkpt lat="48.70177" lon="7.2193">
        <ele>264.6</ele>
        <time>2020-05-22T13:56:25Z</time>
      </trkpt>
      <trkpt lat="48.70178" lon="7.21928">
        <ele>264.7</ele>
        <time>2020-05-22T13:56:27Z</time>
      </trkpt>
      <trkpt lat="48.70179" lon="7.21925">
        <ele>264.8</ele>
        <time>2020-05-22T13:56:28Z</time>
      </trkpt>
      <trkpt lat="48.70179" lon="7.21921">
        <ele>265</ele>
        <time>2020-05-22T13:56:30Z</time>
      </trkpt>
      <trkpt lat="48.70179" lon="7.2192">
        <ele>265</ele>
        <time>2020-05-22T13:56:31Z</time>
      </trkpt>
      <trkpt lat="48.70177" lon="7.21918">
        <ele>265.2</ele>
        <time>2020-05-22T13:56:33Z</time>
      </trkpt>
      <trkpt lat="48.70176" lon="7.21918">
        <ele>265.2</ele>
        <time>2020-05-22T13:56:34Z</time>
      </trkpt>
      <trkpt lat="48.70176" lon="7.21917">
        <ele>265.2</ele>
        <time>2020-05-22T13:56:35Z</time>
      </trkpt>
      <trkpt lat="48.70176" lon="7.21915">
        <ele>265.3</ele>
        <time>2020-05-22T13:56:37Z</time>
      </trkpt>
      <trkpt lat="48.70175" lon="7.21915">
        <ele>265.3</ele>
        <time>2020-05-22T13:56:38Z</time>
      </trkpt>
      <trkpt lat="48.70175" lon="7.21914">
        <ele>265.3</ele>
        <time>2020-05-22T13:56:39Z</time>
      </trkpt>
      <trkpt lat="48.70175" lon="7.21913">
        <ele>265.4</ele>
        <time>2020-05-22T13:56:41Z</time>
      </trkpt>
      <trkpt lat="48.70175" lon="7.21912">
        <ele>265.4</ele>
        <time>2020-05-22T13:56:43Z</time>
      </trkpt>
      <trkpt lat="48.70175" lon="7.21912">
        <ele>265.4</ele>
        <time>2020-05-22T13:56:44Z</time>
      </trkpt>
      <trkpt lat="48.70175" lon="7.21913">
        <ele>265.4</ele>
        <time>2020-05-22T13:56:46Z</time>
      </trkpt>
      <trkpt lat="48.70175" lon="7.21914">
        <ele>265.5</ele>
        <time>2020-05-22T13:56:47Z</time>
      </trkpt>
      <trkpt lat="48.70179" lon="7.21916">
        <ele>265.6</ele>
        <time>2020-05-22T13:56:49Z</time>
      </trkpt>
      <trkpt lat="48.70181" lon="7.21916">
        <ele>265.7</ele>
        <time>2020-05-22T13:56:51Z</time>
      </trkpt>
      <trkpt lat="48.70182" lon="7.21916">
        <ele>265.7</ele>
        <time>2020-05-22T13:56:52Z</time>
      </trkpt>
      <trkpt lat="48.70182" lon="7.21916">
        <ele>265.7</ele>
        <time>2020-05-22T13:56:53Z</time>
      </trkpt>
      <trkpt lat="48.70182" lon="7.21916">
        <ele>265.7</ele>
        <time>2020-05-22T13:56:54Z</time>
      </trkpt>
      <trkpt lat="48.70182" lon="7.21916">
        <ele>265.7</ele>
        <time>2020-05-22T13:56:56Z</time>
      </trkpt>
      <trkpt lat="48.70182" lon="7.21916">
        <ele>265.7</ele>
        <time>2020-05-22T13:56:58Z</time>
      </trkpt>
      <trkpt lat="48.70182" lon="7.21916">
        <ele>265.7</ele>
        <time>2020-05-22T13:57:00Z</time>
      </trkpt>
      <trkpt lat="48.70182" lon="7.21916">
        <ele>265.7</ele>
        <time>2020-05-22T13:57:02Z</time>
      </trkpt>
      <trkpt lat="48.70182" lon="7.21916">
        <ele>265.7</ele>
        <time>2020-05-22T13:57:04Z</time>
      </trkpt>
      <trkpt lat="48.7018" lon="7.21924">
        <ele>265.8</ele>
        <time>2020-05-22T13:57:15Z</time>
      </trkpt>
      <trkpt lat="48.70179" lon="7.21934">
        <ele>266</ele>
        <time>2020-05-22T13:57:17Z</time>
      </trkpt>
      <trkpt lat="48.70178" lon="7.21945">
        <ele>266.2</ele>
        <time>2020-05-22T13:57:19Z</time>
      </trkpt>
      <trkpt lat="48.70178" lon="7.21951">
        <ele>266.3</ele>
        <time>2020-05-22T13:57:20Z</time>
      </trkpt>
      <trkpt lat="48.70178" lon="7.21956">
        <ele>266.4</ele>
        <time>2020-05-22T13:57:21Z</time>
      </trkpt>
      <trkpt lat="48.70177" lon="7.21965">
        <ele>266.6</ele>
        <time>2020-05-22T13:57:23Z</time>
      </trkpt>
      <trkpt lat="48.70177" lon="7.21976">
        <ele>266.7</ele>
        <time>2020-05-22T13:57:25Z</time>
      </trkpt>
      <trkpt lat="48.70177" lon="7.21986">
        <ele>266.9</ele>
        <time>2020-05-22T13:57:27Z</time>
      </trkpt>
      <trkpt lat="48.70176" lon="7.21993">
        <ele>267</ele>
        <time>2020-05-22T13:57:28Z</time>
      </trkpt>
      <trkpt lat="48.70175" lon="7.22004">
        <ele>267.2</ele>
        <time>2020-05-22T13:57:30Z</time>
      </trkpt>
      <trkpt lat="48.70175" lon="7.22009">
        <ele>267.3</ele>
        <time>2020-05-22T13:57:31Z</time>
      </trkpt>
      <trkpt lat="48.70174" lon="7.2202">
        <ele>267.5</ele>
        <time>2020-05-22T13:57:33Z</time>
      </trkpt>
      <trkpt lat="48.70173" lon="7.22027">
        <ele>267.7</ele>
        <time>2020-05-22T13:57:34Z</time>
      </trkpt>
      <trkpt lat="48.70172" lon="7.2204">
        <ele>268</ele>
        <time>2020-05-22T13:57:36Z</time>
      </trkpt>
      <trkpt lat="48.70171" lon="7.22054">
        <ele>268.4</ele>
        <time>2020-05-22T13:57:38Z</time>
      </trkpt>
      <trkpt lat="48.7017" lon="7.22061">
        <ele>268.7</ele>
        <time>2020-05-22T13:57:39Z</time>
      </trkpt>
      <trkpt lat="48.70171" lon="7.22067">
        <ele>268.9</ele>
        <time>2020-05-22T13:57:40Z</time>
      </trkpt>
      <trkpt lat="48.70171" lon="7.22078">
        <ele>269.4</ele>
        <time>2020-05-22T13:57:42Z</time>
      </trkpt>
      <trkpt lat="48.70171" lon="7.22084">
        <ele>269.7</ele>
        <time>2020-05-22T13:57:43Z</time>
      </trkpt>
      <trkpt lat="48.7017" lon="7.22097">
        <ele>270.3</ele>
        <time>2020-05-22T13:57:45Z</time>
      </trkpt>
      <trkpt lat="48.7017" lon="7.2211">
        <ele>270.9</ele>
        <time>2020-05-22T13:57:47Z</time>
      </trkpt>
      <trkpt lat="48.70171" lon="7.22117">
        <ele>271.3</ele>
        <time>2020-05-22T13:57:48Z</time>
      </trkpt>
      <trkpt lat="48.70172" lon="7.22131">
        <ele>272.1</ele>
        <time>2020-05-22T13:57:50Z</time>
      </trkpt>
      <trkpt lat="48.70173" lon="7.22138">
        <ele>272.5</ele>
        <time>2020-05-22T13:57:51Z</time>
      </trkpt>
      <trkpt lat="48.70174" lon="7.22144">
        <ele>272.8</ele>
        <time>2020-05-22T13:57:52Z</time>
      </trkpt>
      <trkpt lat="48.70177" lon="7.22155">
        <ele>273.4</ele>
        <time>2020-05-22T13:57:54Z</time>
      </trkpt>
      <trkpt lat="48.70178" lon="7.2216">
        <ele>273.6</ele>
        <time>2020-05-22T13:57:55Z</time>
      </trkpt>
      <trkpt lat="48.70179" lon="7.22165">
        <ele>273.8</ele>
        <time>2020-05-22T13:57:56Z</time>
      </trkpt>
      <trkpt lat="48.70181" lon="7.2217">
        <ele>274</ele>
        <time>2020-05-22T13:57:57Z</time>
      </trkpt>
      <trkpt lat="48.70183" lon="7.22175">
        <ele>274.2</ele>
        <time>2020-05-22T13:57:58Z</time>
      </trkpt>
      <trkpt lat="48.70186" lon="7.22182">
        <ele>274.6</ele>
        <time>2020-05-22T13:58:00Z</time>
      </trkpt>
      <trkpt lat="48.70189" lon="7.22189">
        <ele>274.8</ele>
        <time>2020-05-22T13:58:02Z</time>
      </trkpt>
      <trkpt lat="48.70191" lon="7.22199">
        <ele>275.1</ele>
        <time>2020-05-22T13:58:04Z</time>
      </trkpt>
      <trkpt lat="48.70195" lon="7.22208">
        <ele>275.4</ele>
        <time>2020-05-22T13:58:06Z</time>
      </trkpt>
      <trkpt lat="48.70197" lon="7.22213">
        <ele>275.6</ele>
        <time>2020-05-22T13:58:07Z</time>
      </trkpt>
      <trkpt lat="48.702" lon="7.22222">
        <ele>275.9</ele>
        <time>2020-05-22T13:58:09Z</time>
      </trkpt>
      <trkpt lat="48.70204" lon="7.22232">
        <ele>276.3</ele>
        <time>2020-05-22T13:58:11Z</time>
      </trkpt>
      <trkpt lat="48.70206" lon="7.22237">
        <ele>276.5</ele>
        <time>2020-05-22T13:58:12Z</time>
      </trkpt>
      <trkpt lat="48.70208" lon="7.22241">
        <ele>276.6</ele>
        <time>2020-05-22T13:58:13Z</time>
      </trkpt>
      <trkpt lat="48.7021" lon="7.22245">
        <ele>276.8</ele>
        <time>2020-05-22T13:58:14Z</time>
      </trkpt>
      <trkpt lat="48.70213" lon="7.22254">
        <ele>277.1</ele>
        <time>2020-05-22T13:58:16Z</time>
      </trkpt>
      <trkpt lat="48.70214" lon="7.22259">
        <ele>277.3</ele>
        <time>2020-05-22T13:58:17Z</time>
      </trkpt>
      <trkpt lat="48.70216" lon="7.22268">
        <ele>277.6</ele>
        <time>2020-05-22T13:58:19Z</time>
      </trkpt>
      <trkpt lat="48.70219" lon="7.22275">
        <ele>277.9</ele>
        <time>2020-05-22T13:58:21Z</time>
      </trkpt>
      <trkpt lat="48.70222" lon="7.22283">
        <ele>278.1</ele>
        <time>2020-05-22T13:58:23Z</time>
      </trkpt>
      <trkpt lat="48.70223" lon="7.22288">
        <ele>278.2</ele>
        <time>2020-05-22T13:58:24Z</time>
      </trkpt>
      <trkpt lat="48.70225" lon="7.22292">
        <ele>278.3</ele>
        <time>2020-05-22T13:58:25Z</time>
      </trkpt>
      <trkpt lat="48.70226" lon="7.22301">
        <ele>278.5</ele>
        <time>2020-05-22T13:58:27Z</time>
      </trkpt>
      <trkpt lat="48.70227" lon="7.22307">
        <ele>278.7</ele>
        <time>2020-05-22T13:58:28Z</time>
      </trkpt>
      <trkpt lat="48.70228" lon="7.22312">
        <ele>278.8</ele>
        <time>2020-05-22T13:58:29Z</time>
      </trkpt>
      <trkpt lat="48.70233" lon="7.22322">
        <ele>279.2</ele>
        <time>2020-05-22T13:58:31Z</time>
      </trkpt>
      <trkpt lat="48.70239" lon="7.22335">
        <ele>279.8</ele>
        <time>2020-05-22T13:58:33Z</time>
      </trkpt>
      <trkpt lat="48.70243" lon="7.22347">
        <ele>280.4</ele>
        <time>2020-05-22T13:58:35Z</time>
      </trkpt>
      <trkpt lat="48.70244" lon="7.22358">
        <ele>280.9</ele>
        <time>2020-05-22T13:58:37Z</time>
      </trkpt>
      <trkpt lat="48.70245" lon="7.22363">
        <ele>281.1</ele>
        <time>2020-05-22T13:58:38Z</time>
      </trkpt>
      <trkpt lat="48.70247" lon="7.22373">
        <ele>281.6</ele>
        <time>2020-05-22T13:58:40Z</time>
      </trkpt>
      <trkpt lat="48.7025" lon="7.22377">
        <ele>281.9</ele>
        <time>2020-05-22T13:58:41Z</time>
      </trkpt>
      <trkpt lat="48.70252" lon="7.22385">
        <ele>282.4</ele>
        <time>2020-05-22T13:58:43Z</time>
      </trkpt>
      <trkpt lat="48.70253" lon="7.22393">
        <ele>282.8</ele>
        <time>2020-05-22T13:58:45Z</time>
      </trkpt>
      <trkpt lat="48.70254" lon="7.22397">
        <ele>283.1</ele>
        <time>2020-05-22T13:58:46Z</time>
      </trkpt>
      <trkpt lat="48.70255" lon="7.22401">
        <ele>283.3</ele>
        <time>2020-05-22T13:58:47Z</time>
      </trkpt>
      <trkpt lat="48.70257" lon="7.22411">
        <ele>283.6</ele>
        <time>2020-05-22T13:58:49Z</time>
      </trkpt>
      <trkpt lat="48.70258" lon="7.22415">
        <ele>283.7</ele>
        <time>2020-05-22T13:58:50Z</time>
      </trkpt>
      <trkpt lat="48.70259" lon="7.22418">
        <ele>283.9</ele>
        <time>2020-05-22T13:58:51Z</time>
      </trkpt>
      <trkpt lat="48.70262" lon="7.22425">
        <ele>283.7</ele>
        <time>2020-05-22T13:58:53Z</time>
      </trkpt>
      <trkpt lat="48.70264" lon="7.22434">
        <ele>283.7</ele>
        <time>2020-05-22T13:58:55Z</time>
      </trkpt>
      <trkpt lat="48.70265" lon="7.22438">
        <ele>283.3</ele>
        <time>2020-05-22T13:58:56Z</time>
      </trkpt>
      <trkpt lat="48.70268" lon="7.22446">
        <ele>283.4</ele>
        <time>2020-05-22T13:58:58Z</time>
      </trkpt>
      <trkpt lat="48.70269" lon="7.2245">
        <ele>284.3</ele>
        <time>2020-05-22T13:58:59Z</time>
      </trkpt>
      <trkpt lat="48.70272" lon="7.22457">
        <ele>284.6</ele>
        <time>2020-05-22T13:59:01Z</time>
      </trkpt>
      <trkpt lat="48.70273" lon="7.22461">
        <ele>284.3</ele>
        <time>2020-05-22T13:59:02Z</time>
      </trkpt>
      <trkpt lat="48.70276" lon="7.22468">
        <ele>284.7</ele>
        <time>2020-05-22T13:59:04Z</time>
      </trkpt>
      <trkpt lat="48.70281" lon="7.22476">
        <ele>286</ele>
        <time>2020-05-22T13:59:06Z</time>
      </trkpt>
      <trkpt lat="48.70283" lon="7.22479">
        <ele>287</ele>
        <time>2020-05-22T13:59:07Z</time>
      </trkpt>
      <trkpt lat="48.70288" lon="7.22487">
        <ele>287.3</ele>
        <time>2020-05-22T13:59:09Z</time>
      </trkpt>
      <trkpt lat="48.70289" lon="7.2249">
        <ele>287.9</ele>
        <time>2020-05-22T13:59:10Z</time>
      </trkpt>
      <trkpt lat="48.70291" lon="7.22496">
        <ele>288.4</ele>
        <time>2020-05-22T13:59:11Z</time>
      </trkpt>
      <trkpt lat="48.70292" lon="7.22498">
        <ele>288.1</ele>
        <time>2020-05-22T13:59:12Z</time>
      </trkpt>
      <trkpt lat="48.70294" lon="7.22505">
        <ele>288.6</ele>
        <time>2020-05-22T13:59:14Z</time>
      </trkpt>
      <trkpt lat="48.70296" lon="7.22513">
        <ele>288</ele>
        <time>2020-05-22T13:59:16Z</time>
      </trkpt>
      <trkpt lat="48.70298" lon="7.22521">
        <ele>288.4</ele>
        <time>2020-05-22T13:59:18Z</time>
      </trkpt>
      <trkpt lat="48.703" lon="7.22528">
        <ele>288.2</ele>
        <time>2020-05-22T13:59:20Z</time>
      </trkpt>
      <trkpt lat="48.70302" lon="7.22536">
        <ele>288.7</ele>
        <time>2020-05-22T13:59:22Z</time>
      </trkpt>
      <trkpt lat="48.70303" lon="7.2254">
        <ele>289.6</ele>
        <time>2020-05-22T13:59:23Z</time>
      </trkpt>
      <trkpt lat="48.70305" lon="7.22545">
        <ele>289.2</ele>
        <time>2020-05-22T13:59:24Z</time>
      </trkpt>
      <trkpt lat="48.70306" lon="7.22547">
        <ele>290.1</ele>
        <time>2020-05-22T13:59:25Z</time>
      </trkpt>
      <trkpt lat="48.70308" lon="7.22553">
        <ele>289.6</ele>
        <time>2020-05-22T13:59:26Z</time>
      </trkpt>
      <trkpt lat="48.70308" lon="7.22555">
        <ele>289.6</ele>
        <time>2020-05-22T13:59:27Z</time>
      </trkpt>
      <trkpt lat="48.7031" lon="7.22563">
        <ele>289.9</ele>
        <time>2020-05-22T13:59:29Z</time>
      </trkpt>
      <trkpt lat="48.7031" lon="7.22567">
        <ele>289.6</ele>
        <time>2020-05-22T13:59:30Z</time>
      </trkpt>
      <trkpt lat="48.70311" lon="7.22573">
        <ele>289.5</ele>
        <time>2020-05-22T13:59:32Z</time>
      </trkpt>
      <trkpt lat="48.70312" lon="7.22576">
        <ele>289.9</ele>
        <time>2020-05-22T13:59:33Z</time>
      </trkpt>
      <trkpt lat="48.70314" lon="7.22583">
        <ele>290.1</ele>
        <time>2020-05-22T13:59:35Z</time>
      </trkpt>
      <trkpt lat="48.70315" lon="7.22587">
        <ele>290.1</ele>
        <time>2020-05-22T13:59:36Z</time>
      </trkpt>
      <trkpt lat="48.70317" lon="7.22593">
        <ele>290.3</ele>
        <time>2020-05-22T13:59:38Z</time>
      </trkpt>
      <trkpt lat="48.70319" lon="7.22598">
        <ele>290.1</ele>
        <time>2020-05-22T13:59:40Z</time>
      </trkpt>
      <trkpt lat="48.70319" lon="7.22606">
        <ele>289.8</ele>
        <time>2020-05-22T13:59:42Z</time>
      </trkpt>
      <trkpt lat="48.70319" lon="7.2261">
        <ele>289.6</ele>
        <time>2020-05-22T13:59:43Z</time>
      </trkpt>
      <trkpt lat="48.70321" lon="7.22616">
        <ele>289.9</ele>
        <time>2020-05-22T13:59:45Z</time>
      </trkpt>
      <trkpt lat="48.70323" lon="7.22621">
        <ele>290.2</ele>
        <time>2020-05-22T13:59:46Z</time>
      </trkpt>
      <trkpt lat="48.70325" lon="7.22626">
        <ele>289.7</ele>
        <time>2020-05-22T13:59:47Z</time>
      </trkpt>
      <trkpt lat="48.70327" lon="7.22636">
        <ele>289.7</ele>
        <time>2020-05-22T13:59:49Z</time>
      </trkpt>
      <trkpt lat="48.70328" lon="7.22641">
        <ele>289.5</ele>
        <time>2020-05-22T13:59:50Z</time>
      </trkpt>
      <trkpt lat="48.70329" lon="7.22653">
        <ele>289.1</ele>
        <time>2020-05-22T13:59:52Z</time>
      </trkpt>
      <trkpt lat="48.70329" lon="7.22659">
        <ele>288.8</ele>
        <time>2020-05-22T13:59:53Z</time>
      </trkpt>
      <trkpt lat="48.70328" lon="7.22665">
        <ele>288.1</ele>
        <time>2020-05-22T13:59:54Z</time>
      </trkpt>
      <trkpt lat="48.70327" lon="7.22669">
        <ele>288</ele>
        <time>2020-05-22T13:59:55Z</time>
      </trkpt>
      <trkpt lat="48.70324" lon="7.22677">
        <ele>287.8</ele>
        <time>2020-05-22T13:59:57Z</time>
      </trkpt>
      <trkpt lat="48.7032" lon="7.2268">
        <ele>287.8</ele>
        <time>2020-05-22T13:59:59Z</time>
      </trkpt>
      <trkpt lat="48.70316" lon="7.2268">
        <ele>287.9</ele>
        <time>2020-05-22T14:00:00Z</time>
      </trkpt>
      <trkpt lat="48.70314" lon="7.22678">
        <ele>288</ele>
        <time>2020-05-22T14:00:01Z</time>
      </trkpt>
      <trkpt lat="48.7031" lon="7.22672">
        <ele>288</ele>
        <time>2020-05-22T14:00:03Z</time>
      </trkpt>
      <trkpt lat="48.70308" lon="7.22669">
        <ele>288.2</ele>
        <time>2020-05-22T14:00:04Z</time>
      </trkpt>
      <trkpt lat="48.70306" lon="7.22664">
        <ele>288</ele>
        <time>2020-05-22T14:00:06Z</time>
      </trkpt>
      <trkpt lat="48.70307" lon="7.22664">
        <ele>288</ele>
        <time>2020-05-22T14:00:08Z</time>
      </trkpt>
      <trkpt lat="48.70307" lon="7.22664">
        <ele>288</ele>
        <time>2020-05-22T14:00:09Z</time>
      </trkpt>
      <trkpt lat="48.70309" lon="7.22665">
        <ele>288</ele>
        <time>2020-05-22T14:00:11Z</time>
      </trkpt>
      <trkpt lat="48.70309" lon="7.22665">
        <ele>288</ele>
        <time>2020-05-22T14:00:12Z</time>
      </trkpt>
      <trkpt lat="48.7031" lon="7.22666">
        <ele>288</ele>
        <time>2020-05-22T14:00:14Z</time>
      </trkpt>
      <trkpt lat="48.7031" lon="7.22666">
        <ele>288</ele>
        <time>2020-05-22T14:00:16Z</time>
      </trkpt>
      <trkpt lat="48.7031" lon="7.22666">
        <ele>288.1</ele>
        <time>2020-05-22T14:00:18Z</time>
      </trkpt>
      <trkpt lat="48.7031" lon="7.22665">
        <ele>288.1</ele>
        <time>2020-05-22T14:00:19Z</time>
      </trkpt>
      <trkpt lat="48.70307" lon="7.2266">
        <ele>288.1</ele>
        <time>2020-05-22T14:00:21Z</time>
      </trkpt>
      <trkpt lat="48.70303" lon="7.22651">
        <ele>287.9</ele>
        <time>2020-05-22T14:00:23Z</time>
      </trkpt>
      <trkpt lat="48.70298" lon="7.2264">
        <ele>287.6</ele>
        <time>2020-05-22T14:00:25Z</time>
      </trkpt>
      <trkpt lat="48.70296" lon="7.22633">
        <ele>287.2</ele>
        <time>2020-05-22T14:00:26Z</time>
      </trkpt>
      <trkpt lat="48.70291" lon="7.22621">
        <ele>286.6</ele>
        <time>2020-05-22T14:00:28Z</time>
      </trkpt>
      <trkpt lat="48.70287" lon="7.22614">
        <ele>286.3</ele>
        <time>2020-05-22T14:00:29Z</time>
      </trkpt>
      <trkpt lat="48.70284" lon="7.22607">
        <ele>285.9</ele>
        <time>2020-05-22T14:00:30Z</time>
      </trkpt>
      <trkpt lat="48.7028" lon="7.22593">
        <ele>285.2</ele>
        <time>2020-05-22T14:00:32Z</time>
      </trkpt>
      <trkpt lat="48.70277" lon="7.22585">
        <ele>284.4</ele>
        <time>2020-05-22T14:00:33Z</time>
      </trkpt>
      <trkpt lat="48.70274" lon="7.22578">
        <ele>284</ele>
        <time>2020-05-22T14:00:34Z</time>
      </trkpt>
      <trkpt lat="48.70272" lon="7.2257">
        <ele>283.1</ele>
        <time>2020-05-22T14:00:35Z</time>
      </trkpt>
      <trkpt lat="48.70267" lon="7.2256">
        <ele>281.8</ele>
        <time>2020-05-22T14:00:36Z</time>
      </trkpt>
      <trkpt lat="48.70258" lon="7.22539">
        <ele>280</ele>
        <time>2020-05-22T14:00:38Z</time>
      </trkpt>
      <trkpt lat="48.70249" lon="7.22518">
        <ele>278.7</ele>
        <time>2020-05-22T14:00:40Z</time>
      </trkpt>
      <trkpt lat="48.70243" lon="7.22508">
        <ele>278.2</ele>
        <time>2020-05-22T14:00:41Z</time>
      </trkpt>
      <trkpt lat="48.70231" lon="7.22488">
        <ele>276.5</ele>
        <time>2020-05-22T14:00:43Z</time>
      </trkpt>
      <trkpt lat="48.70221" lon="7.22471">
        <ele>275.8</ele>
        <time>2020-05-22T14:00:45Z</time>
      </trkpt>
      <trkpt lat="48.70216" lon="7.22462">
        <ele>275.6</ele>
        <time>2020-05-22T14:00:46Z</time>
      </trkpt>
      <trkpt lat="48.70204" lon="7.22442">
        <ele>275.8</ele>
        <time>2020-05-22T14:00:48Z</time>
      </trkpt>
      <trkpt lat="48.70198" lon="7.22431">
        <ele>275.6</ele>
        <time>2020-05-22T14:00:49Z</time>
      </trkpt>
      <trkpt lat="48.70189" lon="7.2241">
        <ele>276.3</ele>
        <time>2020-05-22T14:00:51Z</time>
      </trkpt>
      <trkpt lat="48.70182" lon="7.22388">
        <ele>276.6</ele>
        <time>2020-05-22T14:00:53Z</time>
      </trkpt>
      <trkpt lat="48.70179" lon="7.22377">
        <ele>276.5</ele>
        <time>2020-05-22T14:00:54Z</time>
      </trkpt>
      <trkpt lat="48.70176" lon="7.22358">
        <ele>276.1</ele>
        <time>2020-05-22T14:00:56Z</time>
      </trkpt>
      <trkpt lat="48.70171" lon="7.22339">
        <ele>275.7</ele>
        <time>2020-05-22T14:00:58Z</time>
      </trkpt>
      <trkpt lat="48.70165" lon="7.22321">
        <ele>274.3</ele>
        <time>2020-05-22T14:01:00Z</time>
      </trkpt>
      <trkpt lat="48.70158" lon="7.22305">
        <ele>273.5</ele>
        <time>2020-05-22T14:01:02Z</time>
      </trkpt>
      <trkpt lat="48.70154" lon="7.22297">
        <ele>273.1</ele>
        <time>2020-05-22T14:01:03Z</time>
      </trkpt>
      <trkpt lat="48.7015" lon="7.22289">
        <ele>272.5</ele>
        <time>2020-05-22T14:01:04Z</time>
      </trkpt>
      <trkpt lat="48.70146" lon="7.22283">
        <ele>272.5</ele>
        <time>2020-05-22T14:01:05Z</time>
      </trkpt>
      <trkpt lat="48.70139" lon="7.22272">
        <ele>271.7</ele>
        <time>2020-05-22T14:01:07Z</time>
      </trkpt>
      <trkpt lat="48.70135" lon="7.22267">
        <ele>271.6</ele>
        <time>2020-05-22T14:01:08Z</time>
      </trkpt>
      <trkpt lat="48.70129" lon="7.22257">
        <ele>270.9</ele>
        <time>2020-05-22T14:01:10Z</time>
      </trkpt>
      <trkpt lat="48.70129" lon="7.22255">
        <ele>270.3</ele>
        <time>2020-05-22T14:01:11Z</time>
      </trkpt>
      <trkpt lat="48.70129" lon="7.22255">
        <ele>270.3</ele>
        <time>2020-05-22T14:01:12Z</time>
      </trkpt>
      <trkpt lat="48.70129" lon="7.22254">
        <ele>270.3</ele>
        <time>2020-05-22T14:01:14Z</time>
      </trkpt>
      <trkpt lat="48.70129" lon="7.22253">
        <ele>270.3</ele>
        <time>2020-05-22T14:01:16Z</time>
      </trkpt>
      <trkpt lat="48.70129" lon="7.22253">
        <ele>270.4</ele>
        <time>2020-05-22T14:01:17Z</time>
      </trkpt>
      <trkpt lat="48.70129" lon="7.22252">
        <ele>269.8</ele>
        <time>2020-05-22T14:01:18Z</time>
      </trkpt>
      <trkpt lat="48.7013" lon="7.22252">
        <ele>269.8</ele>
        <time>2020-05-22T14:01:20Z</time>
      </trkpt>
      <trkpt lat="48.7013" lon="7.22251">
        <ele>269.8</ele>
        <time>2020-05-22T14:01:21Z</time>
      </trkpt>
      <trkpt lat="48.7013" lon="7.22251">
        <ele>269.8</ele>
        <time>2020-05-22T14:01:22Z</time>
      </trkpt>
      <trkpt lat="48.7013" lon="7.2225">
        <ele>269.7</ele>
        <time>2020-05-22T14:01:23Z</time>
      </trkpt>
      <trkpt lat="48.70128" lon="7.22247">
        <ele>269.2</ele>
        <time>2020-05-22T14:01:24Z</time>
      </trkpt>
      <trkpt lat="48.70122" lon="7.22239">
        <ele>268.2</ele>
        <time>2020-05-22T14:01:26Z</time>
      </trkpt>
      <trkpt lat="48.7012" lon="7.22234">
        <ele>267.7</ele>
        <time>2020-05-22T14:01:27Z</time>
      </trkpt>
      <trkpt lat="48.70118" lon="7.22228">
        <ele>267.1</ele>
        <time>2020-05-22T14:01:28Z</time>
      </trkpt>
      <trkpt lat="48.70115" lon="7.22222">
        <ele>265.9</ele>
        <time>2020-05-22T14:01:29Z</time>
      </trkpt>
      <trkpt lat="48.70109" lon="7.22208">
        <ele>264</ele>
        <time>2020-05-22T14:01:31Z</time>
      </trkpt>
      <trkpt lat="48.70106" lon="7.222">
        <ele>262.8</ele>
        <time>2020-05-22T14:01:32Z</time>
      </trkpt>
      <trkpt lat="48.70103" lon="7.22193">
        <ele>262.2</ele>
        <time>2020-05-22T14:01:33Z</time>
      </trkpt>
      <trkpt lat="48.70097" lon="7.22176">
        <ele>260.3</ele>
        <time>2020-05-22T14:01:35Z</time>
      </trkpt>
      <trkpt lat="48.70093" lon="7.22168">
        <ele>259.3</ele>
        <time>2020-05-22T14:01:36Z</time>
      </trkpt>
      <trkpt lat="48.70085" lon="7.22161">
        <ele>258.3</ele>
        <time>2020-05-22T14:01:38Z</time>
      </trkpt>
      <trkpt lat="48.70075" lon="7.2216">
        <ele>258.7</ele>
        <time>2020-05-22T14:01:40Z</time>
      </trkpt>
      <trkpt lat="48.70069" lon="7.22158">
        <ele>259</ele>
        <time>2020-05-22T14:01:41Z</time>
      </trkpt>
      <trkpt lat="48.70061" lon="7.22154">
        <ele>258.9</ele>
        <time>2020-05-22T14:01:43Z</time>
      </trkpt>
      <trkpt lat="48.70057" lon="7.22152">
        <ele>258.5</ele>
        <time>2020-05-22T14:01:44Z</time>
      </trkpt>
      <trkpt lat="48.70054" lon="7.2215">
        <ele>258.7</ele>
        <time>2020-05-22T14:01:45Z</time>
      </trkpt>
      <trkpt lat="48.70051" lon="7.22147">
        <ele>258.5</ele>
        <time>2020-05-22T14:01:46Z</time>
      </trkpt>
      <trkpt lat="48.70048" lon="7.22146">
        <ele>258.7</ele>
        <time>2020-05-22T14:01:47Z</time>
      </trkpt>
      <trkpt lat="48.70043" lon="7.22145">
        <ele>258.9</ele>
        <time>2020-05-22T14:01:49Z</time>
      </trkpt>
      <trkpt lat="48.7004" lon="7.22145">
        <ele>259.7</ele>
        <time>2020-05-22T14:01:50Z</time>
      </trkpt>
      <trkpt lat="48.70038" lon="7.22146">
        <ele>260</ele>
        <time>2020-05-22T14:01:51Z</time>
      </trkpt>
      <trkpt lat="48.70035" lon="7.22146">
        <ele>260.4</ele>
        <time>2020-05-22T14:01:52Z</time>
      </trkpt>
      <trkpt lat="48.70031" lon="7.22147">
        <ele>260.9</ele>
        <time>2020-05-22T14:01:54Z</time>
      </trkpt>
      <trkpt lat="48.70032" lon="7.22147">
        <ele>260.9</ele>
        <time>2020-05-22T14:01:56Z</time>
      </trkpt>
      <trkpt lat="48.70032" lon="7.22147">
        <ele>260.9</ele>
        <time>2020-05-22T14:01:58Z</time>
      </trkpt>
      <trkpt lat="48.70032" lon="7.22147">
        <ele>260.9</ele>
        <time>2020-05-22T14:01:59Z</time>
      </trkpt>
      <trkpt lat="48.70032" lon="7.22146">
        <ele>260.9</ele>
        <time>2020-05-22T14:02:02Z</time>
      </trkpt>
      <trkpt lat="48.70033" lon="7.22146">
        <ele>260.9</ele>
        <time>2020-05-22T14:02:04Z</time>
      </trkpt>
      <trkpt lat="48.70033" lon="7.22147">
        <ele>261</ele>
        <time>2020-05-22T14:02:05Z</time>
      </trkpt>
      <trkpt lat="48.70033" lon="7.22146">
        <ele>261</ele>
        <time>2020-05-22T14:02:07Z</time>
      </trkpt>
      <trkpt lat="48.70033" lon="7.22146">
        <ele>261</ele>
        <time>2020-05-22T14:02:08Z</time>
      </trkpt>
      <trkpt lat="48.70033" lon="7.22144">
        <ele>260.6</ele>
        <time>2020-05-22T14:02:10Z</time>
      </trkpt>
      <trkpt lat="48.70034" lon="7.22143">
        <ele>260.2</ele>
        <time>2020-05-22T14:02:11Z</time>
      </trkpt>
      <trkpt lat="48.70035" lon="7.22141">
        <ele>260.2</ele>
        <time>2020-05-22T14:02:13Z</time>
      </trkpt>
      <trkpt lat="48.70035" lon="7.2214">
        <ele>259.9</ele>
        <time>2020-05-22T14:02:14Z</time>
      </trkpt>
      <trkpt lat="48.70034" lon="7.22139">
        <ele>259.9</ele>
        <time>2020-05-22T14:02:16Z</time>
      </trkpt>
      <trkpt lat="48.70034" lon="7.22139">
        <ele>260.3</ele>
        <time>2020-05-22T14:02:17Z</time>
      </trkpt>
      <trkpt lat="48.70034" lon="7.22139">
        <ele>260.3</ele>
        <time>2020-05-22T14:02:18Z</time>
      </trkpt>
      <trkpt lat="48.70033" lon="7.22138">
        <ele>260.3</ele>
        <time>2020-05-22T14:02:20Z</time>
      </trkpt>
      <trkpt lat="48.70034" lon="7.22138">
        <ele>260.4</ele>
        <time>2020-05-22T14:02:22Z</time>
      </trkpt>
      <trkpt lat="48.70034" lon="7.22139">
        <ele>260.4</ele>
        <time>2020-05-22T14:02:23Z</time>
      </trkpt>
      <trkpt lat="48.70033" lon="7.22139">
        <ele>260.4</ele>
        <time>2020-05-22T14:02:24Z</time>
      </trkpt>
      <trkpt lat="48.70033" lon="7.22139">
        <ele>260.4</ele>
        <time>2020-05-22T14:02:25Z</time>
      </trkpt>
      <trkpt lat="48.70033" lon="7.22139">
        <ele>260.4</ele>
        <time>2020-05-22T14:02:27Z</time>
      </trkpt>
      <trkpt lat="48.70027" lon="7.22142">
        <ele>261.7</ele>
        <time>2020-05-22T14:02:41Z</time>
      </trkpt>
      <trkpt lat="48.70024" lon="7.22144">
        <ele>262.2</ele>
        <time>2020-05-22T14:02:42Z</time>
      </trkpt>
      <trkpt lat="48.70021" lon="7.22146">
        <ele>263</ele>
        <time>2020-05-22T14:02:43Z</time>
      </trkpt>
      <trkpt lat="48.70015" lon="7.22151">
        <ele>264.2</ele>
        <time>2020-05-22T14:02:45Z</time>
      </trkpt>
      <trkpt lat="48.70008" lon="7.22153">
        <ele>264.9</ele>
        <time>2020-05-22T14:02:47Z</time>
      </trkpt>
      <trkpt lat="48.70005" lon="7.22154">
        <ele>265.8</ele>
        <time>2020-05-22T14:02:48Z</time>
      </trkpt>
      <trkpt lat="48.70002" lon="7.22155">
        <ele>266.1</ele>
        <time>2020-05-22T14:02:49Z</time>
      </trkpt>
      <trkpt lat="48.69996" lon="7.22159">
        <ele>266.9</ele>
        <time>2020-05-22T14:02:51Z</time>
      </trkpt>
      <trkpt lat="48.69989" lon="7.22163">
        <ele>267.6</ele>
        <time>2020-05-22T14:02:53Z</time>
      </trkpt>
      <trkpt lat="48.69986" lon="7.22166">
        <ele>267.9</ele>
        <time>2020-05-22T14:02:54Z</time>
      </trkpt>
      <trkpt lat="48.69983" lon="7.22168">
        <ele>268.4</ele>
        <time>2020-05-22T14:02:55Z</time>
      </trkpt>
      <trkpt lat="48.69977" lon="7.22173">
        <ele>269.5</ele>
        <time>2020-05-22T14:02:57Z</time>
      </trkpt>
      <trkpt lat="48.69974" lon="7.22175">
        <ele>269.7</ele>
        <time>2020-05-22T14:02:58Z</time>
      </trkpt>
      <trkpt lat="48.69968" lon="7.2218">
        <ele>270.6</ele>
        <time>2020-05-22T14:03:00Z</time>
      </trkpt>
      <trkpt lat="48.69964" lon="7.22185">
        <ele>271</ele>
        <time>2020-05-22T14:03:02Z</time>
      </trkpt>
      <trkpt lat="48.6996" lon="7.22191">
        <ele>271.4</ele>
        <time>2020-05-22T14:03:04Z</time>
      </trkpt>
      <trkpt lat="48.69959" lon="7.22194">
        <ele>271.8</ele>
        <time>2020-05-22T14:03:05Z</time>
      </trkpt>
      <trkpt lat="48.69954" lon="7.22199">
        <ele>272.6</ele>
        <time>2020-05-22T14:03:07Z</time>
      </trkpt>
      <trkpt lat="48.69951" lon="7.22202">
        <ele>273.3</ele>
        <time>2020-05-22T14:03:08Z</time>
      </trkpt>
      <trkpt lat="48.69946" lon="7.22207">
        <ele>274.1</ele>
        <time>2020-05-22T14:03:10Z</time>
      </trkpt>
      <trkpt lat="48.69942" lon="7.22212">
        <ele>275.1</ele>
        <time>2020-05-22T14:03:12Z</time>
      </trkpt>
      <trkpt lat="48.6994" lon="7.22214">
        <ele>275.7</ele>
        <time>2020-05-22T14:03:13Z</time>
      </trkpt>
      <trkpt lat="48.69937" lon="7.22218">
        <ele>275.8</ele>
        <time>2020-05-22T14:03:14Z</time>
      </trkpt>
      <trkpt lat="48.69935" lon="7.22219">
        <ele>276.1</ele>
        <time>2020-05-22T14:03:15Z</time>
      </trkpt>
      <trkpt lat="48.69934" lon="7.22221">
        <ele>276.1</ele>
        <time>2020-05-22T14:03:16Z</time>
      </trkpt>
      <trkpt lat="48.69929" lon="7.22227">
        <ele>276.3</ele>
        <time>2020-05-22T14:03:18Z</time>
      </trkpt>
      <trkpt lat="48.69926" lon="7.22229">
        <ele>276.4</ele>
        <time>2020-05-22T14:03:19Z</time>
      </trkpt>
      <trkpt lat="48.69921" lon="7.22234">
        <ele>276.6</ele>
        <time>2020-05-22T14:03:21Z</time>
      </trkpt>
      <trkpt lat="48.69918" lon="7.22237">
        <ele>276.8</ele>
        <time>2020-05-22T14:03:22Z</time>
      </trkpt>
      <trkpt lat="48.69913" lon="7.22242">
        <ele>277</ele>
        <time>2020-05-22T14:03:24Z</time>
      </trkpt>
      <trkpt lat="48.6991" lon="7.22246">
        <ele>277.3</ele>
        <time>2020-05-22T14:03:25Z</time>
      </trkpt>
      <trkpt lat="48.69904" lon="7.22252">
        <ele>277.4</ele>
        <time>2020-05-22T14:03:27Z</time>
      </trkpt>
      <trkpt lat="48.69898" lon="7.22259">
        <ele>277.2</ele>
        <time>2020-05-22T14:03:29Z</time>
      </trkpt>
      <trkpt lat="48.69894" lon="7.22262">
        <ele>277.1</ele>
        <time>2020-05-22T14:03:30Z</time>
      </trkpt>
      <trkpt lat="48.69888" lon="7.22268">
        <ele>276.6</ele>
        <time>2020-05-22T14:03:32Z</time>
      </trkpt>
      <trkpt lat="48.69885" lon="7.22272">
        <ele>276.5</ele>
        <time>2020-05-22T14:03:33Z</time>
      </trkpt>
      <trkpt lat="48.6988" lon="7.22278">
        <ele>276</ele>
        <time>2020-05-22T14:03:35Z</time>
      </trkpt>
      <trkpt lat="48.69874" lon="7.22284">
        <ele>276.2</ele>
        <time>2020-05-22T14:03:37Z</time>
      </trkpt>
      <trkpt lat="48.69868" lon="7.22289">
        <ele>275.9</ele>
        <time>2020-05-22T14:03:39Z</time>
      </trkpt>
      <trkpt lat="48.69862" lon="7.22295">
        <ele>275.5</ele>
        <time>2020-05-22T14:03:41Z</time>
      </trkpt>
      <trkpt lat="48.69856" lon="7.22302">
        <ele>275.7</ele>
        <time>2020-05-22T14:03:43Z</time>
      </trkpt>
      <trkpt lat="48.6985" lon="7.22309">
        <ele>276.2</ele>
        <time>2020-05-22T14:03:45Z</time>
      </trkpt>
      <trkpt lat="48.69844" lon="7.22316">
        <ele>275.6</ele>
        <time>2020-05-22T14:03:47Z</time>
      </trkpt>
      <trkpt lat="48.69837" lon="7.22323">
        <ele>276</ele>
        <time>2020-05-22T14:03:49Z</time>
      </trkpt>
      <trkpt lat="48.69831" lon="7.22329">
        <ele>275.6</ele>
        <time>2020-05-22T14:03:51Z</time>
      </trkpt>
      <trkpt lat="48.69821" lon="7.22336">
        <ele>274.5</ele>
        <time>2020-05-22T14:03:53Z</time>
      </trkpt>
      <trkpt lat="48.69815" lon="7.2234">
        <ele>274</ele>
        <time>2020-05-22T14:03:54Z</time>
      </trkpt>
      <trkpt lat="48.69805" lon="7.22346">
        <ele>272.5</ele>
        <time>2020-05-22T14:03:56Z</time>
      </trkpt>
      <trkpt lat="48.69797" lon="7.22354">
        <ele>271.4</ele>
        <time>2020-05-22T14:03:58Z</time>
      </trkpt>
      <trkpt lat="48.69792" lon="7.22361">
        <ele>271</ele>
        <time>2020-05-22T14:04:00Z</time>
      </trkpt>
      <trkpt lat="48.69789" lon="7.22364">
        <ele>271</ele>
        <time>2020-05-22T14:04:01Z</time>
      </trkpt>
      <trkpt lat="48.69786" lon="7.22367">
        <ele>270.5</ele>
        <time>2020-05-22T14:04:02Z</time>
      </trkpt>
      <trkpt lat="48.69784" lon="7.2237">
        <ele>270.5</ele>
        <time>2020-05-22T14:04:03Z</time>
      </trkpt>
      <trkpt lat="48.69779" lon="7.22376">
        <ele>270</ele>
        <time>2020-05-22T14:04:05Z</time>
      </trkpt>
      <trkpt lat="48.69773" lon="7.22381">
        <ele>270.1</ele>
        <time>2020-05-22T14:04:07Z</time>
      </trkpt>
      <trkpt lat="48.69771" lon="7.22385">
        <ele>270.1</ele>
        <time>2020-05-22T14:04:08Z</time>
      </trkpt>
      <trkpt lat="48.69766" lon="7.22389">
        <ele>269.9</ele>
        <time>2020-05-22T14:04:10Z</time>
      </trkpt>
      <trkpt lat="48.69763" lon="7.22392">
        <ele>270.1</ele>
        <time>2020-05-22T14:04:11Z</time>
      </trkpt>
      <trkpt lat="48.69758" lon="7.22397">
        <ele>269.9</ele>
        <time>2020-05-22T14:04:13Z</time>
      </trkpt>
      <trkpt lat="48.69753" lon="7.22401">
        <ele>269.7</ele>
        <time>2020-05-22T14:04:15Z</time>
      </trkpt>
      <trkpt lat="48.6975" lon="7.22402">
        <ele>269.5</ele>
        <time>2020-05-22T14:04:16Z</time>
      </trkpt>
      <trkpt lat="48.69747" lon="7.22404">
        <ele>269.7</ele>
        <time>2020-05-22T14:04:17Z</time>
      </trkpt>
      <trkpt lat="48.69741" lon="7.22409">
        <ele>269.8</ele>
        <time>2020-05-22T14:04:19Z</time>
      </trkpt>
      <trkpt lat="48.69735" lon="7.22414">
        <ele>269.9</ele>
        <time>2020-05-22T14:04:21Z</time>
      </trkpt>
      <trkpt lat="48.69733" lon="7.22417">
        <ele>270.2</ele>
        <time>2020-05-22T14:04:22Z</time>
      </trkpt>
      <trkpt lat="48.69727" lon="7.22424">
        <ele>270.2</ele>
        <time>2020-05-22T14:04:24Z</time>
      </trkpt>
      <trkpt lat="48.69724" lon="7.22427">
        <ele>270.4</ele>
        <time>2020-05-22T14:04:25Z</time>
      </trkpt>
      <trkpt lat="48.69717" lon="7.22433">
        <ele>270.8</ele>
        <time>2020-05-22T14:04:27Z</time>
      </trkpt>
      <trkpt lat="48.69711" lon="7.2244">
        <ele>270.5</ele>
        <time>2020-05-22T14:04:29Z</time>
      </trkpt>
      <trkpt lat="48.69707" lon="7.22443">
        <ele>270.7</ele>
        <time>2020-05-22T14:04:30Z</time>
      </trkpt>
      <trkpt lat="48.69699" lon="7.22448">
        <ele>270.2</ele>
        <time>2020-05-22T14:04:32Z</time>
      </trkpt>
      <trkpt lat="48.69696" lon="7.22451">
        <ele>270.1</ele>
        <time>2020-05-22T14:04:33Z</time>
      </trkpt>
      <trkpt lat="48.69692" lon="7.22454">
        <ele>269.7</ele>
        <time>2020-05-22T14:04:34Z</time>
      </trkpt>
      <trkpt lat="48.69689" lon="7.22456">
        <ele>269.6</ele>
        <time>2020-05-22T14:04:35Z</time>
      </trkpt>
      <trkpt lat="48.69685" lon="7.22458">
        <ele>269</ele>
        <time>2020-05-22T14:04:36Z</time>
      </trkpt>
      <trkpt lat="48.69682" lon="7.2246">
        <ele>268.5</ele>
        <time>2020-05-22T14:04:37Z</time>
      </trkpt>
      <trkpt lat="48.69674" lon="7.22463">
        <ele>267.2</ele>
        <time>2020-05-22T14:04:39Z</time>
      </trkpt>
      <trkpt lat="48.6967" lon="7.22464">
        <ele>267</ele>
        <time>2020-05-22T14:04:40Z</time>
      </trkpt>
      <trkpt lat="48.69663" lon="7.22467">
        <ele>266.1</ele>
        <time>2020-05-22T14:04:42Z</time>
      </trkpt>
      <trkpt lat="48.69657" lon="7.2247">
        <ele>265.7</ele>
        <time>2020-05-22T14:04:44Z</time>
      </trkpt>
      <trkpt lat="48.6965" lon="7.22473">
        <ele>265.4</ele>
        <time>2020-05-22T14:04:46Z</time>
      </trkpt>
      <trkpt lat="48.69647" lon="7.22475">
        <ele>265.2</ele>
        <time>2020-05-22T14:04:47Z</time>
      </trkpt>
      <trkpt lat="48.69643" lon="7.22476">
        <ele>265.4</ele>
        <time>2020-05-22T14:04:48Z</time>
      </trkpt>
      <trkpt lat="48.69641" lon="7.22479">
        <ele>265.3</ele>
        <time>2020-05-22T14:04:49Z</time>
      </trkpt>
      <trkpt lat="48.69635" lon="7.22484">
        <ele>265.4</ele>
        <time>2020-05-22T14:04:51Z</time>
      </trkpt>
      <trkpt lat="48.69632" lon="7.22486">
        <ele>265.6</ele>
        <time>2020-05-22T14:04:52Z</time>
      </trkpt>
      <trkpt lat="48.69625" lon="7.2249">
        <ele>265.8</ele>
        <time>2020-05-22T14:04:54Z</time>
      </trkpt>
      <trkpt lat="48.69622" lon="7.22492">
        <ele>265.8</ele>
        <time>2020-05-22T14:04:55Z</time>
      </trkpt>
      <trkpt lat="48.69618" lon="7.22494">
        <ele>266.1</ele>
        <time>2020-05-22T14:04:56Z</time>
      </trkpt>
      <trkpt lat="48.69615" lon="7.22496">
        <ele>266.2</ele>
        <time>2020-05-22T14:04:57Z</time>
      </trkpt>
      <trkpt lat="48.69607" lon="7.225">
        <ele>266.5</ele>
        <time>2020-05-22T14:04:59Z</time>
      </trkpt>
      <trkpt lat="48.69603" lon="7.22502">
        <ele>266.8</ele>
        <time>2020-05-22T14:05:00Z</time>
      </trkpt>
      <trkpt lat="48.696" lon="7.22505">
        <ele>266.9</ele>
        <time>2020-05-22T14:05:01Z</time>
      </trkpt>
      <trkpt lat="48.69597" lon="7.22507">
        <ele>267.1</ele>
        <time>2020-05-22T14:05:02Z</time>
      </trkpt>
      <trkpt lat="48.69592" lon="7.22512">
        <ele>267.1</ele>
        <time>2020-05-22T14:05:04Z</time>
      </trkpt>
      <trkpt lat="48.69586" lon="7.22517">
        <ele>267.2</ele>
        <time>2020-05-22T14:05:06Z</time>
      </trkpt>
      <trkpt lat="48.69583" lon="7.2252">
        <ele>267.1</ele>
        <time>2020-05-22T14:05:07Z</time>
      </trkpt>
      <trkpt lat="48.6958" lon="7.22522">
        <ele>267.1</ele>
        <time>2020-05-22T14:05:08Z</time>
      </trkpt>
      <trkpt lat="48.69573" lon="7.22528">
        <ele>266.9</ele>
        <time>2020-05-22T14:05:10Z</time>
      </trkpt>
      <trkpt lat="48.6957" lon="7.22531">
        <ele>266.9</ele>
        <time>2020-05-22T14:05:11Z</time>
      </trkpt>
      <trkpt lat="48.69563" lon="7.2254">
        <ele>267</ele>
        <time>2020-05-22T14:05:13Z</time>
      </trkpt>
      <trkpt lat="48.69557" lon="7.22548">
        <ele>267.3</ele>
        <time>2020-05-22T14:05:15Z</time>
      </trkpt>
      <trkpt lat="48.69551" lon="7.22556">
        <ele>267.5</ele>
        <time>2020-05-22T14:05:17Z</time>
      </trkpt>
      <trkpt lat="48.69549" lon="7.2256">
        <ele>267.6</ele>
        <time>2020-05-22T14:05:18Z</time>
      </trkpt>
      <trkpt lat="48.69547" lon="7.22563">
        <ele>267.6</ele>
        <time>2020-05-22T14:05:19Z</time>
      </trkpt>
      <trkpt lat="48.69546" lon="7.22566">
        <ele>267.7</ele>
        <time>2020-05-22T14:05:20Z</time>
      </trkpt>
      <trkpt lat="48.69546" lon="7.22567">
        <ele>267.7</ele>
        <time>2020-05-22T14:05:22Z</time>
      </trkpt>
      <trkpt lat="48.69546" lon="7.22567">
        <ele>267.7</ele>
        <time>2020-05-22T14:05:23Z</time>
      </trkpt>
      <trkpt lat="48.69547" lon="7.22567">
        <ele>267.7</ele>
        <time>2020-05-22T14:05:25Z</time>
      </trkpt>
      <trkpt lat="48.69547" lon="7.22567">
        <ele>267.7</ele>
        <time>2020-05-22T14:05:26Z</time>
      </trkpt>
      <trkpt lat="48.69547" lon="7.22568">
        <ele>267.7</ele>
        <time>2020-05-22T14:05:27Z</time>
      </trkpt>
      <trkpt lat="48.69546" lon="7.22568">
        <ele>267.7</ele>
        <time>2020-05-22T14:05:29Z</time>
      </trkpt>
      <trkpt lat="48.69546" lon="7.22568">
        <ele>267.7</ele>
        <time>2020-05-22T14:05:30Z</time>
      </trkpt>
      <trkpt lat="48.69546" lon="7.22568">
        <ele>267.7</ele>
        <time>2020-05-22T14:05:32Z</time>
      </trkpt>
      <trkpt lat="48.69546" lon="7.22568">
        <ele>267.7</ele>
        <time>2020-05-22T14:05:33Z</time>
      </trkpt>
      <trkpt lat="48.69546" lon="7.22568">
        <ele>267.7</ele>
        <time>2020-05-22T14:05:34Z</time>
      </trkpt>
      <trkpt lat="48.69546" lon="7.22568">
        <ele>267.7</ele>
        <time>2020-05-22T14:05:36Z</time>
      </trkpt>
      <trkpt lat="48.69542" lon="7.22567">
        <ele>267.8</ele>
        <time>2020-05-22T14:06:09Z</time>
      </trkpt>
      <trkpt lat="48.69535" lon="7.22562">
        <ele>268</ele>
        <time>2020-05-22T14:06:11Z</time>
      </trkpt>
      <trkpt lat="48.69532" lon="7.22557">
        <ele>268.1</ele>
        <time>2020-05-22T14:06:12Z</time>
      </trkpt>
      <trkpt lat="48.69529" lon="7.22551">
        <ele>268.3</ele>
        <time>2020-05-22T14:06:13Z</time>
      </trkpt>
      <trkpt lat="48.69522" lon="7.22539">
        <ele>268.8</ele>
        <time>2020-05-22T14:06:15Z</time>
      </trkpt>
      <trkpt lat="48.69513" lon="7.22537">
        <ele>269.2</ele>
        <time>2020-05-22T14:06:17Z</time>
      </trkpt>
      <trkpt lat="48.69511" lon="7.22538">
        <ele>269.2</ele>
        <time>2020-05-22T14:06:19Z</time>
      </trkpt>
      <trkpt lat="48.69511" lon="7.22539">
        <ele>269.2</ele>
        <time>2020-05-22T14:06:20Z</time>
      </trkpt>
      <trkpt lat="48.69511" lon="7.2254">
        <ele>269.2</ele>
        <time>2020-05-22T14:06:22Z</time>
      </trkpt>
      <trkpt lat="48.69511" lon="7.22541">
        <ele>269.2</ele>
        <time>2020-05-22T14:06:23Z</time>
      </trkpt>
      <trkpt lat="48.69511" lon="7.22541">
        <ele>269.2</ele>
        <time>2020-05-22T14:06:25Z</time>
      </trkpt>
      <trkpt lat="48.69511" lon="7.22541">
        <ele>269.2</ele>
        <time>2020-05-22T14:06:26Z</time>
      </trkpt>
      <trkpt lat="48.69511" lon="7.22541">
        <ele>269.2</ele>
        <time>2020-05-22T14:06:28Z</time>
      </trkpt>
      <trkpt lat="48.69511" lon="7.22541">
        <ele>269.2</ele>
        <time>2020-05-22T14:06:29Z</time>
      </trkpt>
      <trkpt lat="48.6951" lon="7.22541">
        <ele>269.2</ele>
        <time>2020-05-22T14:06:30Z</time>
      </trkpt>
      <trkpt lat="48.6951" lon="7.22543">
        <ele>269.2</ele>
        <time>2020-05-22T14:06:32Z</time>
      </trkpt>
      <trkpt lat="48.69511" lon="7.22544">
        <ele>269.2</ele>
        <time>2020-05-22T14:06:33Z</time>
      </trkpt>
      <trkpt lat="48.6951" lon="7.22543">
        <ele>269.2</ele>
        <time>2020-05-22T14:06:35Z</time>
      </trkpt>
      <trkpt lat="48.6951" lon="7.22543">
        <ele>269.2</ele>
        <time>2020-05-22T14:06:36Z</time>
      </trkpt>
      <trkpt lat="48.69511" lon="7.22546">
        <ele>269.4</ele>
        <time>2020-05-22T14:06:38Z</time>
      </trkpt>
      <trkpt lat="48.6951" lon="7.22546">
        <ele>269.4</ele>
        <time>2020-05-22T14:06:39Z</time>
      </trkpt>
      <trkpt lat="48.6951" lon="7.2255">
        <ele>269.5</ele>
        <time>2020-05-22T14:06:40Z</time>
      </trkpt>
      <trkpt lat="48.6951" lon="7.22554">
        <ele>269.6</ele>
        <time>2020-05-22T14:06:41Z</time>
      </trkpt>
      <trkpt lat="48.69509" lon="7.22562">
        <ele>269.8</ele>
        <time>2020-05-22T14:06:43Z</time>
      </trkpt>
      <trkpt lat="48.69508" lon="7.22566">
        <ele>270</ele>
        <time>2020-05-22T14:06:44Z</time>
      </trkpt>
      <trkpt lat="48.69508" lon="7.22574">
        <ele>270.2</ele>
        <time>2020-05-22T14:06:46Z</time>
      </trkpt>
      <trkpt lat="48.69508" lon="7.22581">
        <ele>270.5</ele>
        <time>2020-05-22T14:06:48Z</time>
      </trkpt>
      <trkpt lat="48.69509" lon="7.22586">
        <ele>270.7</ele>
        <time>2020-05-22T14:06:49Z</time>
      </trkpt>
      <trkpt lat="48.69509" lon="7.22588">
        <ele>270.8</ele>
        <time>2020-05-22T14:06:50Z</time>
      </trkpt>
      <trkpt lat="48.69511" lon="7.22592">
        <ele>270.9</ele>
        <time>2020-05-22T14:06:51Z</time>
      </trkpt>
      <trkpt lat="48.69511" lon="7.22594">
        <ele>271</ele>
        <time>2020-05-22T14:06:52Z</time>
      </trkpt>
      <trkpt lat="48.69511" lon="7.226">
        <ele>271.2</ele>
        <time>2020-05-22T14:06:54Z</time>
      </trkpt>
      <trkpt lat="48.69511" lon="7.22604">
        <ele>271.3</ele>
        <time>2020-05-22T14:06:55Z</time>
      </trkpt>
      <trkpt lat="48.69511" lon="7.22608">
        <ele>271.5</ele>
        <time>2020-05-22T14:06:57Z</time>
      </trkpt>
      <trkpt lat="48.69511" lon="7.2261">
        <ele>271.6</ele>
        <time>2020-05-22T14:06:58Z</time>
      </trkpt>
      <trkpt lat="48.6951" lon="7.22615">
        <ele>271.8</ele>
        <time>2020-05-22T14:07:00Z</time>
      </trkpt>
      <trkpt lat="48.69509" lon="7.22618">
        <ele>271.9</ele>
        <time>2020-05-22T14:07:02Z</time>
      </trkpt>
      <trkpt lat="48.69509" lon="7.22618">
        <ele>271.9</ele>
        <time>2020-05-22T14:07:03Z</time>
      </trkpt>
      <trkpt lat="48.6951" lon="7.22619">
        <ele>272</ele>
        <time>2020-05-22T14:07:05Z</time>
      </trkpt>
      <trkpt lat="48.6951" lon="7.22619">
        <ele>272</ele>
        <time>2020-05-22T14:07:06Z</time>
      </trkpt>
      <trkpt lat="48.6951" lon="7.22619">
        <ele>272</ele>
        <time>2020-05-22T14:07:07Z</time>
      </trkpt>
      <trkpt lat="48.6951" lon="7.2262">
        <ele>272</ele>
        <time>2020-05-22T14:07:09Z</time>
      </trkpt>
      <trkpt lat="48.6951" lon="7.22621">
        <ele>272.1</ele>
        <time>2020-05-22T14:07:11Z</time>
      </trkpt>
      <trkpt lat="48.6951" lon="7.22621">
        <ele>272.1</ele>
        <time>2020-05-22T14:07:13Z</time>
      </trkpt>
      <trkpt lat="48.6951" lon="7.22621">
        <ele>272.1</ele>
        <time>2020-05-22T14:07:15Z</time>
      </trkpt>
      <trkpt lat="48.6951" lon="7.22621">
        <ele>272.1</ele>
        <time>2020-05-22T14:07:16Z</time>
      </trkpt>
      <trkpt lat="48.6951" lon="7.22621">
        <ele>272.1</ele>
        <time>2020-05-22T14:07:18Z</time>
      </trkpt>
      <trkpt lat="48.6951" lon="7.22621">
        <ele>272.1</ele>
        <time>2020-05-22T14:07:19Z</time>
      </trkpt>
      <trkpt lat="48.6951" lon="7.22621">
        <ele>272.1</ele>
        <time>2020-05-22T14:07:21Z</time>
      </trkpt>
      <trkpt lat="48.69509" lon="7.22625">
        <ele>272.3</ele>
        <time>2020-05-22T14:07:40Z</time>
      </trkpt>
      <trkpt lat="48.69509" lon="7.22627">
        <ele>272.4</ele>
        <time>2020-05-22T14:07:41Z</time>
      </trkpt>
      <trkpt lat="48.69509" lon="7.2263">
        <ele>272.5</ele>
        <time>2020-05-22T14:07:42Z</time>
      </trkpt>
      <trkpt lat="48.69509" lon="7.22634">
        <ele>272.8</ele>
        <time>2020-05-22T14:07:44Z</time>
      </trkpt>
      <trkpt lat="48.69511" lon="7.22641">
        <ele>273.1</ele>
        <time>2020-05-22T14:07:46Z</time>
      </trkpt>
      <trkpt lat="48.69511" lon="7.22646">
        <ele>273.5</ele>
        <time>2020-05-22T14:07:48Z</time>
      </trkpt>
      <trkpt lat="48.6951" lon="7.2265">
        <ele>273.7</ele>
        <time>2020-05-22T14:07:49Z</time>
      </trkpt>
      <trkpt lat="48.6951" lon="7.22656">
        <ele>274.1</ele>
        <time>2020-05-22T14:07:51Z</time>
      </trkpt>
      <trkpt lat="48.69509" lon="7.22662">
        <ele>274.5</ele>
        <time>2020-05-22T14:07:53Z</time>
      </trkpt>
      <trkpt lat="48.6951" lon="7.22665">
        <ele>274.6</ele>
        <time>2020-05-22T14:07:54Z</time>
      </trkpt>
      <trkpt lat="48.69511" lon="7.2267">
        <ele>275</ele>
        <time>2020-05-22T14:07:56Z</time>
      </trkpt>
      <trkpt lat="48.69512" lon="7.22675">
        <ele>275.3</ele>
        <time>2020-05-22T14:07:58Z</time>
      </trkpt>
      <trkpt lat="48.69513" lon="7.2268">
        <ele>275.6</ele>
        <time>2020-05-22T14:08:00Z</time>
      </trkpt>
      <trkpt lat="48.69513" lon="7.22683">
        <ele>275.8</ele>
        <time>2020-05-22T14:08:01Z</time>
      </trkpt>
      <trkpt lat="48.69513" lon="7.22688">
        <ele>276.1</ele>
        <time>2020-05-22T14:08:03Z</time>
      </trkpt>
      <trkpt lat="48.69513" lon="7.22692">
        <ele>276.3</ele>
        <time>2020-05-22T14:08:04Z</time>
      </trkpt>
      <trkpt lat="48.69511" lon="7.22698">
        <ele>276.7</ele>
        <time>2020-05-22T14:08:06Z</time>
      </trkpt>
      <trkpt lat="48.6951" lon="7.22705">
        <ele>277.1</ele>
        <time>2020-05-22T14:08:08Z</time>
      </trkpt>
      <trkpt lat="48.69509" lon="7.22709">
        <ele>277.3</ele>
        <time>2020-05-22T14:08:09Z</time>
      </trkpt>
      <trkpt lat="48.69508" lon="7.22714">
        <ele>277.6</ele>
        <time>2020-05-22T14:08:11Z</time>
      </trkpt>
      <trkpt lat="48.69507" lon="7.2272">
        <ele>277.9</ele>
        <time>2020-05-22T14:08:13Z</time>
      </trkpt>
      <trkpt lat="48.69506" lon="7.22723">
        <ele>278</ele>
        <time>2020-05-22T14:08:14Z</time>
      </trkpt>
      <trkpt lat="48.69505" lon="7.22729">
        <ele>278.3</ele>
        <time>2020-05-22T14:08:16Z</time>
      </trkpt>
      <trkpt lat="48.69505" lon="7.22735">
        <ele>278.5</ele>
        <time>2020-05-22T14:08:18Z</time>
      </trkpt>
      <trkpt lat="48.69505" lon="7.22738">
        <ele>278.7</ele>
        <time>2020-05-22T14:08:19Z</time>
      </trkpt>
      <trkpt lat="48.69506" lon="7.22745">
        <ele>278.9</ele>
        <time>2020-05-22T14:08:21Z</time>
      </trkpt>
      <trkpt lat="48.69505" lon="7.22753">
        <ele>279.3</ele>
        <time>2020-05-22T14:08:23Z</time>
      </trkpt>
      <trkpt lat="48.69504" lon="7.2276">
        <ele>279.5</ele>
        <time>2020-05-22T14:08:25Z</time>
      </trkpt>
      <trkpt lat="48.69503" lon="7.22763">
        <ele>279.7</ele>
        <time>2020-05-22T14:08:26Z</time>
      </trkpt>
      <trkpt lat="48.69502" lon="7.22768">
        <ele>279.9</ele>
        <time>2020-05-22T14:08:28Z</time>
      </trkpt>
      <trkpt lat="48.695" lon="7.22774">
        <ele>280.1</ele>
        <time>2020-05-22T14:08:30Z</time>
      </trkpt>
      <trkpt lat="48.69499" lon="7.22781">
        <ele>280.4</ele>
        <time>2020-05-22T14:08:32Z</time>
      </trkpt>
      <trkpt lat="48.69498" lon="7.22787">
        <ele>280.6</ele>
        <time>2020-05-22T14:08:34Z</time>
      </trkpt>
      <trkpt lat="48.69497" lon="7.22789">
        <ele>280.7</ele>
        <time>2020-05-22T14:08:35Z</time>
      </trkpt>
      <trkpt lat="48.69496" lon="7.22795">
        <ele>280.9</ele>
        <time>2020-05-22T14:08:37Z</time>
      </trkpt>
      <trkpt lat="48.69495" lon="7.22798">
        <ele>281.1</ele>
        <time>2020-05-22T14:08:38Z</time>
      </trkpt>
      <trkpt lat="48.69493" lon="7.22804">
        <ele>281.3</ele>
        <time>2020-05-22T14:08:40Z</time>
      </trkpt>
      <trkpt lat="48.69492" lon="7.22807">
        <ele>281.4</ele>
        <time>2020-05-22T14:08:41Z</time>
      </trkpt>
      <trkpt lat="48.69491" lon="7.22813">
        <ele>281.6</ele>
        <time>2020-05-22T14:08:43Z</time>
      </trkpt>
      <trkpt lat="48.69491" lon="7.22819">
        <ele>281.7</ele>
        <time>2020-05-22T14:08:45Z</time>
      </trkpt>
      <trkpt lat="48.6949" lon="7.22825">
        <ele>281.9</ele>
        <time>2020-05-22T14:08:47Z</time>
      </trkpt>
      <trkpt lat="48.6949" lon="7.22828">
        <ele>281.9</ele>
        <time>2020-05-22T14:08:48Z</time>
      </trkpt>
      <trkpt lat="48.69491" lon="7.22835">
        <ele>282.1</ele>
        <time>2020-05-22T14:08:50Z</time>
      </trkpt>
      <trkpt lat="48.69492" lon="7.2284">
        <ele>282.2</ele>
        <time>2020-05-22T14:08:52Z</time>
      </trkpt>
      <trkpt lat="48.69492" lon="7.22843">
        <ele>282.2</ele>
        <time>2020-05-22T14:08:53Z</time>
      </trkpt>
      <trkpt lat="48.69493" lon="7.22849">
        <ele>282.4</ele>
        <time>2020-05-22T14:08:55Z</time>
      </trkpt>
      <trkpt lat="48.69493" lon="7.22852">
        <ele>282.5</ele>
        <time>2020-05-22T14:08:56Z</time>
      </trkpt>
      <trkpt lat="48.69494" lon="7.22857">
        <ele>282.6</ele>
        <time>2020-05-22T14:08:58Z</time>
      </trkpt>
      <trkpt lat="48.69495" lon="7.2286">
        <ele>282.7</ele>
        <time>2020-05-22T14:08:59Z</time>
      </trkpt>
      <trkpt lat="48.69494" lon="7.22862">
        <ele>282.8</ele>
        <time>2020-05-22T14:09:00Z</time>
      </trkpt>
      <trkpt lat="48.69494" lon="7.22864">
        <ele>282.9</ele>
        <time>2020-05-22T14:09:01Z</time>
      </trkpt>
      <trkpt lat="48.69494" lon="7.22866">
        <ele>282.9</ele>
        <time>2020-05-22T14:09:02Z</time>
      </trkpt>
      <trkpt lat="48.69494" lon="7.22872">
        <ele>283.1</ele>
        <time>2020-05-22T14:09:04Z</time>
      </trkpt>
      <trkpt lat="48.69491" lon="7.22878">
        <ele>283.4</ele>
        <time>2020-05-22T14:09:06Z</time>
      </trkpt>
      <trkpt lat="48.69489" lon="7.22884">
        <ele>283.6</ele>
        <time>2020-05-22T14:09:08Z</time>
      </trkpt>
      <trkpt lat="48.69489" lon="7.22889">
        <ele>283.7</ele>
        <time>2020-05-22T14:09:09Z</time>
      </trkpt>
      <trkpt lat="48.69489" lon="7.2289">
        <ele>283.8</ele>
        <time>2020-05-22T14:09:10Z</time>
      </trkpt>
      <trkpt lat="48.69489" lon="7.22893">
        <ele>283.8</ele>
        <time>2020-05-22T14:09:11Z</time>
      </trkpt>
      <trkpt lat="48.69489" lon="7.22899">
        <ele>283.9</ele>
        <time>2020-05-22T14:09:13Z</time>
      </trkpt>
      <trkpt lat="48.69489" lon="7.22902">
        <ele>283.9</ele>
        <time>2020-05-22T14:09:14Z</time>
      </trkpt>
      <trkpt lat="48.6949" lon="7.22909">
        <ele>284</ele>
        <time>2020-05-22T14:09:16Z</time>
      </trkpt>
      <trkpt lat="48.69488" lon="7.22916">
        <ele>284.2</ele>
        <time>2020-05-22T14:09:18Z</time>
      </trkpt>
      <trkpt lat="48.69487" lon="7.22922">
        <ele>284.4</ele>
        <time>2020-05-22T14:09:20Z</time>
      </trkpt>
      <trkpt lat="48.69486" lon="7.22927">
        <ele>284.5</ele>
        <time>2020-05-22T14:09:21Z</time>
      </trkpt>
      <trkpt lat="48.69486" lon="7.22929">
        <ele>284.6</ele>
        <time>2020-05-22T14:09:22Z</time>
      </trkpt>
      <trkpt lat="48.69485" lon="7.22932">
        <ele>284.6</ele>
        <time>2020-05-22T14:09:23Z</time>
      </trkpt>
      <trkpt lat="48.69484" lon="7.22938">
        <ele>284.8</ele>
        <time>2020-05-22T14:09:25Z</time>
      </trkpt>
      <trkpt lat="48.69483" lon="7.22943">
        <ele>284.9</ele>
        <time>2020-05-22T14:09:26Z</time>
      </trkpt>
      <trkpt lat="48.69482" lon="7.22944">
        <ele>285</ele>
        <time>2020-05-22T14:09:27Z</time>
      </trkpt>
      <trkpt lat="48.69481" lon="7.22949">
        <ele>285.1</ele>
        <time>2020-05-22T14:09:29Z</time>
      </trkpt>
      <trkpt lat="48.69478" lon="7.22955">
        <ele>285.3</ele>
        <time>2020-05-22T14:09:31Z</time>
      </trkpt>
      <trkpt lat="48.69478" lon="7.22957">
        <ele>285.3</ele>
        <time>2020-05-22T14:09:32Z</time>
      </trkpt>
      <trkpt lat="48.69477" lon="7.22961">
        <ele>285.4</ele>
        <time>2020-05-22T14:09:34Z</time>
      </trkpt>
      <trkpt lat="48.69476" lon="7.22964">
        <ele>285.5</ele>
        <time>2020-05-22T14:09:35Z</time>
      </trkpt>
      <trkpt lat="48.69475" lon="7.22971">
        <ele>285.6</ele>
        <time>2020-05-22T14:09:37Z</time>
      </trkpt>
      <trkpt lat="48.69472" lon="7.22976">
        <ele>285.8</ele>
        <time>2020-05-22T14:09:39Z</time>
      </trkpt>
      <trkpt lat="48.69471" lon="7.22979">
        <ele>285.9</ele>
        <time>2020-05-22T14:09:40Z</time>
      </trkpt>
      <trkpt lat="48.69469" lon="7.22985">
        <ele>286.1</ele>
        <time>2020-05-22T14:09:42Z</time>
      </trkpt>
      <trkpt lat="48.69469" lon="7.22989">
        <ele>286.2</ele>
        <time>2020-05-22T14:09:43Z</time>
      </trkpt>
      <trkpt lat="48.69469" lon="7.22991">
        <ele>286.2</ele>
        <time>2020-05-22T14:09:44Z</time>
      </trkpt>
      <trkpt lat="48.69469" lon="7.22995">
        <ele>286.3</ele>
        <time>2020-05-22T14:09:45Z</time>
      </trkpt>
      <trkpt lat="48.69469" lon="7.22997">
        <ele>286.4</ele>
        <time>2020-05-22T14:09:46Z</time>
      </trkpt>
      <trkpt lat="48.69469" lon="7.23001">
        <ele>286.5</ele>
        <time>2020-05-22T14:09:47Z</time>
      </trkpt>
      <trkpt lat="48.69468" lon="7.23008">
        <ele>286.7</ele>
        <time>2020-05-22T14:09:49Z</time>
      </trkpt>
      <trkpt lat="48.69468" lon="7.23011">
        <ele>286.7</ele>
        <time>2020-05-22T14:09:50Z</time>
      </trkpt>
      <trkpt lat="48.69468" lon="7.23018">
        <ele>287</ele>
        <time>2020-05-22T14:09:52Z</time>
      </trkpt>
      <trkpt lat="48.69469" lon="7.23025">
        <ele>287.2</ele>
        <time>2020-05-22T14:09:54Z</time>
      </trkpt>
      <trkpt lat="48.69469" lon="7.23031">
        <ele>287.4</ele>
        <time>2020-05-22T14:09:55Z</time>
      </trkpt>
      <trkpt lat="48.69469" lon="7.23032">
        <ele>287.5</ele>
        <time>2020-05-22T14:09:56Z</time>
      </trkpt>
      <trkpt lat="48.69469" lon="7.23038">
        <ele>287.7</ele>
        <time>2020-05-22T14:09:58Z</time>
      </trkpt>
      <trkpt lat="48.69469" lon="7.23044">
        <ele>288</ele>
        <time>2020-05-22T14:10:00Z</time>
      </trkpt>
      <trkpt lat="48.69468" lon="7.23047">
        <ele>288.1</ele>
        <time>2020-05-22T14:10:01Z</time>
      </trkpt>
      <trkpt lat="48.69467" lon="7.23052">
        <ele>288.3</ele>
        <time>2020-05-22T14:10:03Z</time>
      </trkpt>
      <trkpt lat="48.69465" lon="7.23058">
        <ele>288.6</ele>
        <time>2020-05-22T14:10:05Z</time>
      </trkpt>
      <trkpt lat="48.69464" lon="7.23063">
        <ele>288.8</ele>
        <time>2020-05-22T14:10:06Z</time>
      </trkpt>
      <trkpt lat="48.69463" lon="7.23064">
        <ele>288.9</ele>
        <time>2020-05-22T14:10:07Z</time>
      </trkpt>
      <trkpt lat="48.69462" lon="7.23069">
        <ele>289.1</ele>
        <time>2020-05-22T14:10:09Z</time>
      </trkpt>
      <trkpt lat="48.69461" lon="7.23075">
        <ele>289.4</ele>
        <time>2020-05-22T14:10:11Z</time>
      </trkpt>
      <trkpt lat="48.6946" lon="7.23081">
        <ele>289.6</ele>
        <time>2020-05-22T14:10:13Z</time>
      </trkpt>
      <trkpt lat="48.69459" lon="7.23087">
        <ele>289.9</ele>
        <time>2020-05-22T14:10:15Z</time>
      </trkpt>
      <trkpt lat="48.69459" lon="7.23091">
        <ele>290.1</ele>
        <time>2020-05-22T14:10:17Z</time>
      </trkpt>
      <trkpt lat="48.69458" lon="7.23096">
        <ele>290.4</ele>
        <time>2020-05-22T14:10:19Z</time>
      </trkpt>
      <trkpt lat="48.69455" lon="7.23101">
        <ele>290.7</ele>
        <time>2020-05-22T14:10:21Z</time>
      </trkpt>
      <trkpt lat="48.69453" lon="7.23103">
        <ele>290.8</ele>
        <time>2020-05-22T14:10:22Z</time>
      </trkpt>
      <trkpt lat="48.69451" lon="7.23108">
        <ele>291</ele>
        <time>2020-05-22T14:10:24Z</time>
      </trkpt>
      <trkpt lat="48.69449" lon="7.23113">
        <ele>291.2</ele>
        <time>2020-05-22T14:10:25Z</time>
      </trkpt>
      <trkpt lat="48.69449" lon="7.23115">
        <ele>291.2</ele>
        <time>2020-05-22T14:10:26Z</time>
      </trkpt>
      <trkpt lat="48.69447" lon="7.23119">
        <ele>291.3</ele>
        <time>2020-05-22T14:10:27Z</time>
      </trkpt>
      <trkpt lat="48.69443" lon="7.23125">
        <ele>291.4</ele>
        <time>2020-05-22T14:10:29Z</time>
      </trkpt>
      <trkpt lat="48.6944" lon="7.23128">
        <ele>291.5</ele>
        <time>2020-05-22T14:10:30Z</time>
      </trkpt>
      <trkpt lat="48.69436" lon="7.23134">
        <ele>291.6</ele>
        <time>2020-05-22T14:10:32Z</time>
      </trkpt>
      <trkpt lat="48.69431" lon="7.23143">
        <ele>291.6</ele>
        <time>2020-05-22T14:10:34Z</time>
      </trkpt>
      <trkpt lat="48.69426" lon="7.23153">
        <ele>291.6</ele>
        <time>2020-05-22T14:10:36Z</time>
      </trkpt>
      <trkpt lat="48.69421" lon="7.23164">
        <ele>291.5</ele>
        <time>2020-05-22T14:10:38Z</time>
      </trkpt>
      <trkpt lat="48.69417" lon="7.23171">
        <ele>291.4</ele>
        <time>2020-05-22T14:10:39Z</time>
      </trkpt>
      <trkpt lat="48.69411" lon="7.23186">
        <ele>291.2</ele>
        <time>2020-05-22T14:10:41Z</time>
      </trkpt>
      <trkpt lat="48.69408" lon="7.23197">
        <ele>291.1</ele>
        <time>2020-05-22T14:10:43Z</time>
      </trkpt>
      <trkpt lat="48.69405" lon="7.23203">
        <ele>291.1</ele>
        <time>2020-05-22T14:10:44Z</time>
      </trkpt>
      <trkpt lat="48.694" lon="7.23214">
        <ele>290.9</ele>
        <time>2020-05-22T14:10:46Z</time>
      </trkpt>
      <trkpt lat="48.69393" lon="7.23223">
        <ele>290.8</ele>
        <time>2020-05-22T14:10:48Z</time>
      </trkpt>
      <trkpt lat="48.6939" lon="7.23228">
        <ele>290.7</ele>
        <time>2020-05-22T14:10:49Z</time>
      </trkpt>
      <trkpt lat="48.69385" lon="7.23237">
        <ele>290.7</ele>
        <time>2020-05-22T14:10:51Z</time>
      </trkpt>
      <trkpt lat="48.6938" lon="7.23248">
        <ele>290.6</ele>
        <time>2020-05-22T14:10:53Z</time>
      </trkpt>
      <trkpt lat="48.69375" lon="7.2326">
        <ele>290.4</ele>
        <time>2020-05-22T14:10:55Z</time>
      </trkpt>
      <trkpt lat="48.6937" lon="7.23272">
        <ele>290.3</ele>
        <time>2020-05-22T14:10:57Z</time>
      </trkpt>
      <trkpt lat="48.69368" lon="7.23279">
        <ele>290.3</ele>
        <time>2020-05-22T14:10:58Z</time>
      </trkpt>
      <trkpt lat="48.69363" lon="7.23292">
        <ele>290.2</ele>
        <time>2020-05-22T14:11:00Z</time>
      </trkpt>
      <trkpt lat="48.6936" lon="7.23298">
        <ele>290.2</ele>
        <time>2020-05-22T14:11:01Z</time>
      </trkpt>
      <trkpt lat="48.69355" lon="7.2331">
        <ele>290.1</ele>
        <time>2020-05-22T14:11:03Z</time>
      </trkpt>
      <trkpt lat="48.6935" lon="7.23321">
        <ele>289.9</ele>
        <time>2020-05-22T14:11:05Z</time>
      </trkpt>
      <trkpt lat="48.69343" lon="7.23333">
        <ele>289.7</ele>
        <time>2020-05-22T14:11:07Z</time>
      </trkpt>
      <trkpt lat="48.69337" lon="7.23344">
        <ele>289.5</ele>
        <time>2020-05-22T14:11:09Z</time>
      </trkpt>
      <trkpt lat="48.69335" lon="7.2335">
        <ele>289.5</ele>
        <time>2020-05-22T14:11:10Z</time>
      </trkpt>
      <trkpt lat="48.6933" lon="7.23362">
        <ele>289.3</ele>
        <time>2020-05-22T14:11:12Z</time>
      </trkpt>
      <trkpt lat="48.69327" lon="7.23369">
        <ele>289.3</ele>
        <time>2020-05-22T14:11:13Z</time>
      </trkpt>
      <trkpt lat="48.69323" lon="7.23383">
        <ele>289.2</ele>
        <time>2020-05-22T14:11:15Z</time>
      </trkpt>
      <trkpt lat="48.69317" lon="7.23394">
        <ele>289.1</ele>
        <time>2020-05-22T14:11:17Z</time>
      </trkpt>
      <trkpt lat="48.69314" lon="7.234">
        <ele>289.1</ele>
        <time>2020-05-22T14:11:18Z</time>
      </trkpt>
      <trkpt lat="48.69309" lon="7.23411">
        <ele>289</ele>
        <time>2020-05-22T14:11:20Z</time>
      </trkpt>
      <trkpt lat="48.69307" lon="7.23418">
        <ele>289</ele>
        <time>2020-05-22T14:11:21Z</time>
      </trkpt>
      <trkpt lat="48.69303" lon="7.23431">
        <ele>289</ele>
        <time>2020-05-22T14:11:23Z</time>
      </trkpt>
      <trkpt lat="48.69297" lon="7.23442">
        <ele>288.9</ele>
        <time>2020-05-22T14:11:25Z</time>
      </trkpt>
      <trkpt lat="48.69293" lon="7.23448">
        <ele>288.9</ele>
        <time>2020-05-22T14:11:26Z</time>
      </trkpt>
      <trkpt lat="48.69289" lon="7.23454">
        <ele>288.8</ele>
        <time>2020-05-22T14:11:27Z</time>
      </trkpt>
      <trkpt lat="48.69281" lon="7.23467">
        <ele>288.6</ele>
        <time>2020-05-22T14:11:29Z</time>
      </trkpt>
      <trkpt lat="48.69277" lon="7.23473">
        <ele>288.6</ele>
        <time>2020-05-22T14:11:30Z</time>
      </trkpt>
      <trkpt lat="48.69271" lon="7.23486">
        <ele>288.4</ele>
        <time>2020-05-22T14:11:32Z</time>
      </trkpt>
      <trkpt lat="48.69268" lon="7.23494">
        <ele>288.4</ele>
        <time>2020-05-22T14:11:33Z</time>
      </trkpt>
      <trkpt lat="48.69265" lon="7.23501">
        <ele>288.3</ele>
        <time>2020-05-22T14:11:34Z</time>
      </trkpt>
      <trkpt lat="48.69261" lon="7.23513">
        <ele>288.3</ele>
        <time>2020-05-22T14:11:36Z</time>
      </trkpt>
      <trkpt lat="48.69258" lon="7.2352">
        <ele>288.3</ele>
        <time>2020-05-22T14:11:37Z</time>
      </trkpt>
      <trkpt lat="48.69254" lon="7.23532">
        <ele>288.4</ele>
        <time>2020-05-22T14:11:39Z</time>
      </trkpt>
      <trkpt lat="48.69249" lon="7.23542">
        <ele>288.4</ele>
        <time>2020-05-22T14:11:41Z</time>
      </trkpt>
      <trkpt lat="48.69243" lon="7.23554">
        <ele>288.4</ele>
        <time>2020-05-22T14:11:43Z</time>
      </trkpt>
      <trkpt lat="48.69239" lon="7.23561">
        <ele>288.4</ele>
        <time>2020-05-22T14:11:45Z</time>
      </trkpt>
      <trkpt lat="48.69239" lon="7.23561">
        <ele>288.4</ele>
        <time>2020-05-22T14:11:47Z</time>
      </trkpt>
      <trkpt lat="48.69239" lon="7.23561">
        <ele>288.4</ele>
        <time>2020-05-22T14:11:49Z</time>
      </trkpt>
      <trkpt lat="48.69239" lon="7.23561">
        <ele>288.4</ele>
        <time>2020-05-22T14:11:51Z</time>
      </trkpt>
      <trkpt lat="48.69239" lon="7.23561">
        <ele>288.4</ele>
        <time>2020-05-22T14:11:52Z</time>
      </trkpt>
      <trkpt lat="48.69239" lon="7.23561">
        <ele>288.4</ele>
        <time>2020-05-22T14:11:54Z</time>
      </trkpt>
      <trkpt lat="48.69239" lon="7.23561">
        <ele>288.4</ele>
        <time>2020-05-22T14:11:56Z</time>
      </trkpt>
      <trkpt lat="48.69237" lon="7.23566">
        <ele>288.4</ele>
        <time>2020-05-22T14:12:19Z</time>
      </trkpt>
      <trkpt lat="48.69233" lon="7.23571">
        <ele>288.3</ele>
        <time>2020-05-22T14:12:21Z</time>
      </trkpt>
      <trkpt lat="48.69229" lon="7.23577">
        <ele>288.2</ele>
        <time>2020-05-22T14:12:23Z</time>
      </trkpt>
      <trkpt lat="48.69225" lon="7.23586">
        <ele>288.2</ele>
        <time>2020-05-22T14:12:25Z</time>
      </trkpt>
      <trkpt lat="48.69223" lon="7.23591">
        <ele>288.2</ele>
        <time>2020-05-22T14:12:26Z</time>
      </trkpt>
      <trkpt lat="48.69222" lon="7.23595">
        <ele>288.2</ele>
        <time>2020-05-22T14:12:27Z</time>
      </trkpt>
      <trkpt lat="48.69217" lon="7.23605">
        <ele>288.2</ele>
        <time>2020-05-22T14:12:29Z</time>
      </trkpt>
      <trkpt lat="48.69213" lon="7.23613">
        <ele>288.1</ele>
        <time>2020-05-22T14:12:31Z</time>
      </trkpt>
      <trkpt lat="48.69211" lon="7.23617">
        <ele>288.1</ele>
        <time>2020-05-22T14:12:32Z</time>
      </trkpt>
      <trkpt lat="48.69209" lon="7.23622">
        <ele>288.1</ele>
        <time>2020-05-22T14:12:33Z</time>
      </trkpt>
      <trkpt lat="48.69207" lon="7.23626">
        <ele>288.1</ele>
        <time>2020-05-22T14:12:34Z</time>
      </trkpt>
      <trkpt lat="48.69204" lon="7.23631">
        <ele>288.2</ele>
        <time>2020-05-22T14:12:36Z</time>
      </trkpt>
      <trkpt lat="48.69201" lon="7.23634">
        <ele>288.2</ele>
        <time>2020-05-22T14:12:37Z</time>
      </trkpt>
      <trkpt lat="48.69197" lon="7.23639">
        <ele>288.3</ele>
        <time>2020-05-22T14:12:39Z</time>
      </trkpt>
      <trkpt lat="48.69192" lon="7.23645">
        <ele>288.4</ele>
        <time>2020-05-22T14:12:41Z</time>
      </trkpt>
      <trkpt lat="48.69189" lon="7.23653">
        <ele>288.5</ele>
        <time>2020-05-22T14:12:43Z</time>
      </trkpt>
      <trkpt lat="48.69186" lon="7.23658">
        <ele>288.6</ele>
        <time>2020-05-22T14:12:44Z</time>
      </trkpt>
      <trkpt lat="48.69184" lon="7.23662">
        <ele>288.7</ele>
        <time>2020-05-22T14:12:45Z</time>
      </trkpt>
      <trkpt lat="48.6918" lon="7.2367">
        <ele>288.9</ele>
        <time>2020-05-22T14:12:47Z</time>
      </trkpt>
      <trkpt lat="48.69178" lon="7.23675">
        <ele>289</ele>
        <time>2020-05-22T14:12:48Z</time>
      </trkpt>
      <trkpt lat="48.69174" lon="7.23686">
        <ele>288.9</ele>
        <time>2020-05-22T14:12:50Z</time>
      </trkpt>
      <trkpt lat="48.69171" lon="7.23698">
        <ele>287.7</ele>
        <time>2020-05-22T14:12:52Z</time>
      </trkpt>
      <trkpt lat="48.69169" lon="7.23704">
        <ele>286.3</ele>
        <time>2020-05-22T14:12:53Z</time>
      </trkpt>
      <trkpt lat="48.69168" lon="7.23709">
        <ele>284.4</ele>
        <time>2020-05-22T14:12:54Z</time>
      </trkpt>
      <trkpt lat="48.69167" lon="7.23715">
        <ele>281.9</ele>
        <time>2020-05-22T14:12:55Z</time>
      </trkpt>
      <trkpt lat="48.69166" lon="7.23721">
        <ele>282</ele>
        <time>2020-05-22T14:12:56Z</time>
      </trkpt>
      <trkpt lat="48.69165" lon="7.23732">
        <ele>282.2</ele>
        <time>2020-05-22T14:12:58Z</time>
      </trkpt>
      <trkpt lat="48.69165" lon="7.23742">
        <ele>282.2</ele>
        <time>2020-05-22T14:13:00Z</time>
      </trkpt>
      <trkpt lat="48.69165" lon="7.23746">
        <ele>282.2</ele>
        <time>2020-05-22T14:13:01Z</time>
      </trkpt>
      <trkpt lat="48.69164" lon="7.23747">
        <ele>282.2</ele>
        <time>2020-05-22T14:13:03Z</time>
      </trkpt>
      <trkpt lat="48.69162" lon="7.23746">
        <ele>282.2</ele>
        <time>2020-05-22T14:13:05Z</time>
      </trkpt>
      <trkpt lat="48.69161" lon="7.23744">
        <ele>282.2</ele>
        <time>2020-05-22T14:13:06Z</time>
      </trkpt>
      <trkpt lat="48.69161" lon="7.23743">
        <ele>282.2</ele>
        <time>2020-05-22T14:13:07Z</time>
      </trkpt>
      <trkpt lat="48.69161" lon="7.23743">
        <ele>282.2</ele>
        <time>2020-05-22T14:13:08Z</time>
      </trkpt>
      <trkpt lat="48.69161" lon="7.23743">
        <ele>282.2</ele>
        <time>2020-05-22T14:13:09Z</time>
      </trkpt>
      <trkpt lat="48.69162" lon="7.23745">
        <ele>282.2</ele>
        <time>2020-05-22T14:13:11Z</time>
      </trkpt>
      <trkpt lat="48.69162" lon="7.23745">
        <ele>282.2</ele>
        <time>2020-05-22T14:13:12Z</time>
      </trkpt>
      <trkpt lat="48.69161" lon="7.23746">
        <ele>282.2</ele>
        <time>2020-05-22T14:13:14Z</time>
      </trkpt>
      <trkpt lat="48.69161" lon="7.23746">
        <ele>282.2</ele>
        <time>2020-05-22T14:13:16Z</time>
      </trkpt>
      <trkpt lat="48.69161" lon="7.23746">
        <ele>282.2</ele>
        <time>2020-05-22T14:13:17Z</time>
      </trkpt>
      <trkpt lat="48.69161" lon="7.23746">
        <ele>282.2</ele>
        <time>2020-05-22T14:13:19Z</time>
      </trkpt>
      <trkpt lat="48.69161" lon="7.23746">
        <ele>282.2</ele>
        <time>2020-05-22T14:13:20Z</time>
      </trkpt>
      <trkpt lat="48.69161" lon="7.23746">
        <ele>282.2</ele>
        <time>2020-05-22T14:13:22Z</time>
      </trkpt>
      <trkpt lat="48.6916" lon="7.23753">
        <ele>282.2</ele>
        <time>2020-05-22T14:14:18Z</time>
      </trkpt>
      <trkpt lat="48.6916" lon="7.23755">
        <ele>282.2</ele>
        <time>2020-05-22T14:14:19Z</time>
      </trkpt>
      <trkpt lat="48.69159" lon="7.23763">
        <ele>282.3</ele>
        <time>2020-05-22T14:14:21Z</time>
      </trkpt>
      <trkpt lat="48.69158" lon="7.23771">
        <ele>282.5</ele>
        <time>2020-05-22T14:14:23Z</time>
      </trkpt>
      <trkpt lat="48.69158" lon="7.23776">
        <ele>282.5</ele>
        <time>2020-05-22T14:14:24Z</time>
      </trkpt>
      <trkpt lat="48.69158" lon="7.23781">
        <ele>282.6</ele>
        <time>2020-05-22T14:14:25Z</time>
      </trkpt>
      <trkpt lat="48.69159" lon="7.23786">
        <ele>282.7</ele>
        <time>2020-05-22T14:14:26Z</time>
      </trkpt>
      <trkpt lat="48.69159" lon="7.23797">
        <ele>283</ele>
        <time>2020-05-22T14:14:28Z</time>
      </trkpt>
      <trkpt lat="48.69159" lon="7.23801">
        <ele>283.1</ele>
        <time>2020-05-22T14:14:29Z</time>
      </trkpt>
      <trkpt lat="48.69159" lon="7.23805">
        <ele>283.3</ele>
        <time>2020-05-22T14:14:30Z</time>
      </trkpt>
      <trkpt lat="48.6916" lon="7.23814">
        <ele>283.5</ele>
        <time>2020-05-22T14:14:32Z</time>
      </trkpt>
      <trkpt lat="48.6916" lon="7.2382">
        <ele>283.7</ele>
        <time>2020-05-22T14:14:34Z</time>
      </trkpt>
      <trkpt lat="48.69161" lon="7.23825">
        <ele>283.8</ele>
        <time>2020-05-22T14:14:35Z</time>
      </trkpt>
      <trkpt lat="48.69161" lon="7.23827">
        <ele>283.9</ele>
        <time>2020-05-22T14:14:36Z</time>
      </trkpt>
      <trkpt lat="48.69161" lon="7.23831">
        <ele>284</ele>
        <time>2020-05-22T14:14:37Z</time>
      </trkpt>
      <trkpt lat="48.69161" lon="7.23836">
        <ele>284.2</ele>
        <time>2020-05-22T14:14:39Z</time>
      </trkpt>
      <trkpt lat="48.69161" lon="7.23842">
        <ele>284.4</ele>
        <time>2020-05-22T14:14:41Z</time>
      </trkpt>
      <trkpt lat="48.69161" lon="7.2385">
        <ele>284.7</ele>
        <time>2020-05-22T14:14:43Z</time>
      </trkpt>
      <trkpt lat="48.69161" lon="7.23856">
        <ele>285</ele>
        <time>2020-05-22T14:14:45Z</time>
      </trkpt>
      <trkpt lat="48.69161" lon="7.23861">
        <ele>285.2</ele>
        <time>2020-05-22T14:14:46Z</time>
      </trkpt>
      <trkpt lat="48.69161" lon="7.23862">
        <ele>285.2</ele>
        <time>2020-05-22T14:14:47Z</time>
      </trkpt>
      <trkpt lat="48.6916" lon="7.23869">
        <ele>285.5</ele>
        <time>2020-05-22T14:14:49Z</time>
      </trkpt>
      <trkpt lat="48.69158" lon="7.23875">
        <ele>285.9</ele>
        <time>2020-05-22T14:14:51Z</time>
      </trkpt>
      <trkpt lat="48.69158" lon="7.2388">
        <ele>286.2</ele>
        <time>2020-05-22T14:14:53Z</time>
      </trkpt>
      <trkpt lat="48.69157" lon="7.23885">
        <ele>286.5</ele>
        <time>2020-05-22T14:14:55Z</time>
      </trkpt>
      <trkpt lat="48.69157" lon="7.23889">
        <ele>286.8</ele>
        <time>2020-05-22T14:14:57Z</time>
      </trkpt>
      <trkpt lat="48.69158" lon="7.23896">
        <ele>287.3</ele>
        <time>2020-05-22T14:14:59Z</time>
      </trkpt>
      <trkpt lat="48.6916" lon="7.23903">
        <ele>287.8</ele>
        <time>2020-05-22T14:15:01Z</time>
      </trkpt>
      <trkpt lat="48.6916" lon="7.23906">
        <ele>288</ele>
        <time>2020-05-22T14:15:02Z</time>
      </trkpt>
      <trkpt lat="48.6916" lon="7.23911">
        <ele>288.4</ele>
        <time>2020-05-22T14:15:04Z</time>
      </trkpt>
      <trkpt lat="48.6916" lon="7.23913">
        <ele>288.5</ele>
        <time>2020-05-22T14:15:05Z</time>
      </trkpt>
      <trkpt lat="48.69158" lon="7.23917">
        <ele>288.8</ele>
        <time>2020-05-22T14:15:07Z</time>
      </trkpt>
      <trkpt lat="48.69158" lon="7.23922">
        <ele>289</ele>
        <time>2020-05-22T14:15:09Z</time>
      </trkpt>
      <trkpt lat="48.69158" lon="7.23924">
        <ele>289.1</ele>
        <time>2020-05-22T14:15:10Z</time>
      </trkpt>
      <trkpt lat="48.69158" lon="7.23926">
        <ele>289.3</ele>
        <time>2020-05-22T14:15:11Z</time>
      </trkpt>
      <trkpt lat="48.69157" lon="7.23929">
        <ele>289.4</ele>
        <time>2020-05-22T14:15:12Z</time>
      </trkpt>
      <trkpt lat="48.69156" lon="7.23936">
        <ele>289.8</ele>
        <time>2020-05-22T14:15:14Z</time>
      </trkpt>
      <trkpt lat="48.69153" lon="7.23943">
        <ele>290.2</ele>
        <time>2020-05-22T14:15:16Z</time>
      </trkpt>
      <trkpt lat="48.69152" lon="7.23948">
        <ele>290.5</ele>
        <time>2020-05-22T14:15:18Z</time>
      </trkpt>
      <trkpt lat="48.69151" lon="7.23952">
        <ele>290.6</ele>
        <time>2020-05-22T14:15:19Z</time>
      </trkpt>
      <trkpt lat="48.6915" lon="7.23958">
        <ele>290.9</ele>
        <time>2020-05-22T14:15:21Z</time>
      </trkpt>
      <trkpt lat="48.69149" lon="7.23961">
        <ele>291</ele>
        <time>2020-05-22T14:15:22Z</time>
      </trkpt>
      <trkpt lat="48.69149" lon="7.23968">
        <ele>291.2</ele>
        <time>2020-05-22T14:15:24Z</time>
      </trkpt>
      <trkpt lat="48.69149" lon="7.23972">
        <ele>291.3</ele>
        <time>2020-05-22T14:15:25Z</time>
      </trkpt>
      <trkpt lat="48.69148" lon="7.23979">
        <ele>291.4</ele>
        <time>2020-05-22T14:15:27Z</time>
      </trkpt>
      <trkpt lat="48.69147" lon="7.23985">
        <ele>291.6</ele>
        <time>2020-05-22T14:15:29Z</time>
      </trkpt>
      <trkpt lat="48.69147" lon="7.2399">
        <ele>291.8</ele>
        <time>2020-05-22T14:15:31Z</time>
      </trkpt>
      <trkpt lat="48.69147" lon="7.23993">
        <ele>291.9</ele>
        <time>2020-05-22T14:15:32Z</time>
      </trkpt>
      <trkpt lat="48.69146" lon="7.23998">
        <ele>292.2</ele>
        <time>2020-05-22T14:15:34Z</time>
      </trkpt>
      <trkpt lat="48.69146" lon="7.24">
        <ele>292.3</ele>
        <time>2020-05-22T14:15:35Z</time>
      </trkpt>
      <trkpt lat="48.69147" lon="7.24003">
        <ele>292.4</ele>
        <time>2020-05-22T14:15:36Z</time>
      </trkpt>
      <trkpt lat="48.69147" lon="7.24007">
        <ele>292.5</ele>
        <time>2020-05-22T14:15:38Z</time>
      </trkpt>
      <trkpt lat="48.69148" lon="7.2401">
        <ele>292.6</ele>
        <time>2020-05-22T14:15:40Z</time>
      </trkpt>
      <trkpt lat="48.69149" lon="7.24012">
        <ele>292.6</ele>
        <time>2020-05-22T14:15:42Z</time>
      </trkpt>
      <trkpt lat="48.69149" lon="7.24012">
        <ele>292.6</ele>
        <time>2020-05-22T14:15:44Z</time>
      </trkpt>
      <trkpt lat="48.69149" lon="7.24012">
        <ele>292.7</ele>
        <time>2020-05-22T14:15:45Z</time>
      </trkpt>
      <trkpt lat="48.69149" lon="7.24012">
        <ele>292.7</ele>
        <time>2020-05-22T14:15:47Z</time>
      </trkpt>
      <trkpt lat="48.69149" lon="7.24013">
        <ele>292.7</ele>
        <time>2020-05-22T14:15:49Z</time>
      </trkpt>
      <trkpt lat="48.69149" lon="7.24013">
        <ele>292.7</ele>
        <time>2020-05-22T14:15:51Z</time>
      </trkpt>
      <trkpt lat="48.69149" lon="7.24013">
        <ele>292.7</ele>
        <time>2020-05-22T14:15:53Z</time>
      </trkpt>
      <trkpt lat="48.6915" lon="7.24017">
        <ele>292.8</ele>
        <time>2020-05-22T14:15:56Z</time>
      </trkpt>
      <trkpt lat="48.69151" lon="7.2402">
        <ele>292.9</ele>
        <time>2020-05-22T14:15:57Z</time>
      </trkpt>
      <trkpt lat="48.69152" lon="7.24024">
        <ele>293.1</ele>
        <time>2020-05-22T14:15:59Z</time>
      </trkpt>
      <trkpt lat="48.69152" lon="7.24026">
        <ele>293.2</ele>
        <time>2020-05-22T14:16:00Z</time>
      </trkpt>
      <trkpt lat="48.69152" lon="7.24028">
        <ele>293.3</ele>
        <time>2020-05-22T14:16:01Z</time>
      </trkpt>
      <trkpt lat="48.69153" lon="7.24031">
        <ele>293.4</ele>
        <time>2020-05-22T14:16:02Z</time>
      </trkpt>
      <trkpt lat="48.69153" lon="7.24033">
        <ele>293.5</ele>
        <time>2020-05-22T14:16:03Z</time>
      </trkpt>
      <trkpt lat="48.69154" lon="7.24037">
        <ele>293.6</ele>
        <time>2020-05-22T14:16:05Z</time>
      </trkpt>
      <trkpt lat="48.69154" lon="7.24039">
        <ele>293.7</ele>
        <time>2020-05-22T14:16:06Z</time>
      </trkpt>
      <trkpt lat="48.69154" lon="7.24042">
        <ele>293.8</ele>
        <time>2020-05-22T14:16:07Z</time>
      </trkpt>
      <trkpt lat="48.69153" lon="7.24044">
        <ele>293.9</ele>
        <time>2020-05-22T14:16:08Z</time>
      </trkpt>
      <trkpt lat="48.69153" lon="7.24048">
        <ele>294</ele>
        <time>2020-05-22T14:16:10Z</time>
      </trkpt>
      <trkpt lat="48.69153" lon="7.24051">
        <ele>294.1</ele>
        <time>2020-05-22T14:16:11Z</time>
      </trkpt>
      <trkpt lat="48.69154" lon="7.24056">
        <ele>294.2</ele>
        <time>2020-05-22T14:16:13Z</time>
      </trkpt>
      <trkpt lat="48.69154" lon="7.24062">
        <ele>294.4</ele>
        <time>2020-05-22T14:16:15Z</time>
      </trkpt>
      <trkpt lat="48.69154" lon="7.24064">
        <ele>294.4</ele>
        <time>2020-05-22T14:16:16Z</time>
      </trkpt>
      <trkpt lat="48.69154" lon="7.2407">
        <ele>294.6</ele>
        <time>2020-05-22T14:16:18Z</time>
      </trkpt>
      <trkpt lat="48.69153" lon="7.24073">
        <ele>294.7</ele>
        <time>2020-05-22T14:16:19Z</time>
      </trkpt>
      <trkpt lat="48.69153" lon="7.24081">
        <ele>294.9</ele>
        <time>2020-05-22T14:16:21Z</time>
      </trkpt>
      <trkpt lat="48.69153" lon="7.24088">
        <ele>295.2</ele>
        <time>2020-05-22T14:16:23Z</time>
      </trkpt>
      <trkpt lat="48.69153" lon="7.24091">
        <ele>295.4</ele>
        <time>2020-05-22T14:16:24Z</time>
      </trkpt>
      <trkpt lat="48.69153" lon="7.24097">
        <ele>295.6</ele>
        <time>2020-05-22T14:16:26Z</time>
      </trkpt>
      <trkpt lat="48.69153" lon="7.241">
        <ele>295.8</ele>
        <time>2020-05-22T14:16:27Z</time>
      </trkpt>
      <trkpt lat="48.69154" lon="7.24104">
        <ele>296</ele>
        <time>2020-05-22T14:16:29Z</time>
      </trkpt>
      <trkpt lat="48.69154" lon="7.24108">
        <ele>296.1</ele>
        <time>2020-05-22T14:16:30Z</time>
      </trkpt>
      <trkpt lat="48.69155" lon="7.24114">
        <ele>296.4</ele>
        <time>2020-05-22T14:16:32Z</time>
      </trkpt>
      <trkpt lat="48.69154" lon="7.24118">
        <ele>296.5</ele>
        <time>2020-05-22T14:16:33Z</time>
      </trkpt>
      <trkpt lat="48.69153" lon="7.24124">
        <ele>296.8</ele>
        <time>2020-05-22T14:16:35Z</time>
      </trkpt>
      <trkpt lat="48.69152" lon="7.24127">
        <ele>296.9</ele>
        <time>2020-05-22T14:16:36Z</time>
      </trkpt>
      <trkpt lat="48.6915" lon="7.24132">
        <ele>297.1</ele>
        <time>2020-05-22T14:16:38Z</time>
      </trkpt>
      <trkpt lat="48.69149" lon="7.24136">
        <ele>297.2</ele>
        <time>2020-05-22T14:16:39Z</time>
      </trkpt>
      <trkpt lat="48.69149" lon="7.24138">
        <ele>297.3</ele>
        <time>2020-05-22T14:16:40Z</time>
      </trkpt>
      <trkpt lat="48.69148" lon="7.24141">
        <ele>297.4</ele>
        <time>2020-05-22T14:16:41Z</time>
      </trkpt>
      <trkpt lat="48.69147" lon="7.24147">
        <ele>297.6</ele>
        <time>2020-05-22T14:16:43Z</time>
      </trkpt>
      <trkpt lat="48.69146" lon="7.2415">
        <ele>297.7</ele>
        <time>2020-05-22T14:16:44Z</time>
      </trkpt>
      <trkpt lat="48.69144" lon="7.24157">
        <ele>297.9</ele>
        <time>2020-05-22T14:16:46Z</time>
      </trkpt>
      <trkpt lat="48.69143" lon="7.2416">
        <ele>298</ele>
        <time>2020-05-22T14:16:47Z</time>
      </trkpt>
      <trkpt lat="48.6914" lon="7.24165">
        <ele>298.2</ele>
        <time>2020-05-22T14:16:49Z</time>
      </trkpt>
      <trkpt lat="48.69139" lon="7.24168">
        <ele>298.3</ele>
        <time>2020-05-22T14:16:50Z</time>
      </trkpt>
      <trkpt lat="48.69136" lon="7.24172">
        <ele>298.5</ele>
        <time>2020-05-22T14:16:52Z</time>
      </trkpt>
      <trkpt lat="48.69133" lon="7.24176">
        <ele>298.7</ele>
        <time>2020-05-22T14:16:54Z</time>
      </trkpt>
      <trkpt lat="48.69132" lon="7.24178">
        <ele>298.8</ele>
        <time>2020-05-22T14:16:55Z</time>
      </trkpt>
      <trkpt lat="48.6913" lon="7.24182">
        <ele>299</ele>
        <time>2020-05-22T14:16:57Z</time>
      </trkpt>
      <trkpt lat="48.69127" lon="7.24186">
        <ele>299.1</ele>
        <time>2020-05-22T14:16:58Z</time>
      </trkpt>
      <trkpt lat="48.69126" lon="7.24187">
        <ele>299.2</ele>
        <time>2020-05-22T14:16:59Z</time>
      </trkpt>
      <trkpt lat="48.69124" lon="7.2419">
        <ele>299.3</ele>
        <time>2020-05-22T14:17:01Z</time>
      </trkpt>
      <trkpt lat="48.69119" lon="7.24194">
        <ele>299.5</ele>
        <time>2020-05-22T14:17:03Z</time>
      </trkpt>
      <trkpt lat="48.69116" lon="7.24197">
        <ele>299.7</ele>
        <time>2020-05-22T14:17:05Z</time>
      </trkpt>
      <trkpt lat="48.69112" lon="7.24202">
        <ele>299.9</ele>
        <time>2020-05-22T14:17:07Z</time>
      </trkpt>
      <trkpt lat="48.69107" lon="7.24207">
        <ele>300.1</ele>
        <time>2020-05-22T14:17:09Z</time>
      </trkpt>
      <trkpt lat="48.69103" lon="7.2421">
        <ele>300.2</ele>
        <time>2020-05-22T14:17:11Z</time>
      </trkpt>
      <trkpt lat="48.691" lon="7.24214">
        <ele>300.3</ele>
        <time>2020-05-22T14:17:12Z</time>
      </trkpt>
      <trkpt lat="48.69099" lon="7.24216">
        <ele>300.3</ele>
        <time>2020-05-22T14:17:13Z</time>
      </trkpt>
      <trkpt lat="48.69096" lon="7.24218">
        <ele>300.4</ele>
        <time>2020-05-22T14:17:14Z</time>
      </trkpt>
      <trkpt lat="48.69094" lon="7.24221">
        <ele>300.4</ele>
        <time>2020-05-22T14:17:15Z</time>
      </trkpt>
      <trkpt lat="48.69091" lon="7.24227">
        <ele>300.6</ele>
        <time>2020-05-22T14:17:17Z</time>
      </trkpt>
      <trkpt lat="48.69088" lon="7.24234">
        <ele>300.7</ele>
        <time>2020-05-22T14:17:19Z</time>
      </trkpt>
      <trkpt lat="48.69086" lon="7.24239">
        <ele>300.8</ele>
        <time>2020-05-22T14:17:21Z</time>
      </trkpt>
      <trkpt lat="48.69085" lon="7.24242">
        <ele>300.9</ele>
        <time>2020-05-22T14:17:22Z</time>
      </trkpt>
      <trkpt lat="48.69082" lon="7.24248">
        <ele>301.1</ele>
        <time>2020-05-22T14:17:24Z</time>
      </trkpt>
      <trkpt lat="48.6908" lon="7.24251">
        <ele>301.2</ele>
        <time>2020-05-22T14:17:25Z</time>
      </trkpt>
      <trkpt lat="48.69077" lon="7.24258">
        <ele>301.5</ele>
        <time>2020-05-22T14:17:27Z</time>
      </trkpt>
      <trkpt lat="48.69073" lon="7.24266">
        <ele>301.9</ele>
        <time>2020-05-22T14:17:29Z</time>
      </trkpt>
      <trkpt lat="48.69069" lon="7.24274">
        <ele>302.3</ele>
        <time>2020-05-22T14:17:31Z</time>
      </trkpt>
      <trkpt lat="48.69064" lon="7.24284">
        <ele>302.7</ele>
        <time>2020-05-22T14:17:33Z</time>
      </trkpt>
      <trkpt lat="48.69062" lon="7.24287">
        <ele>302.9</ele>
        <time>2020-05-22T14:17:34Z</time>
      </trkpt>
      <trkpt lat="48.69058" lon="7.24297">
        <ele>303.2</ele>
        <time>2020-05-22T14:17:36Z</time>
      </trkpt>
      <trkpt lat="48.69056" lon="7.24301">
        <ele>303.4</ele>
        <time>2020-05-22T14:17:37Z</time>
      </trkpt>
      <trkpt lat="48.69051" lon="7.2431">
        <ele>303.6</ele>
        <time>2020-05-22T14:17:39Z</time>
      </trkpt>
      <trkpt lat="48.69048" lon="7.24315">
        <ele>303.7</ele>
        <time>2020-05-22T14:17:40Z</time>
      </trkpt>
      <trkpt lat="48.69043" lon="7.24324">
        <ele>304</ele>
        <time>2020-05-22T14:17:42Z</time>
      </trkpt>
      <trkpt lat="48.69039" lon="7.24333">
        <ele>304.3</ele>
        <time>2020-05-22T14:17:44Z</time>
      </trkpt>
      <trkpt lat="48.69036" lon="7.24337">
        <ele>304.5</ele>
        <time>2020-05-22T14:17:45Z</time>
      </trkpt>
      <trkpt lat="48.69031" lon="7.24344">
        <ele>304.7</ele>
        <time>2020-05-22T14:17:47Z</time>
      </trkpt>
      <trkpt lat="48.69028" lon="7.24348">
        <ele>304.8</ele>
        <time>2020-05-22T14:17:48Z</time>
      </trkpt>
      <trkpt lat="48.69025" lon="7.24353">
        <ele>304.9</ele>
        <time>2020-05-22T14:17:49Z</time>
      </trkpt>
      <trkpt lat="48.69022" lon="7.2436">
        <ele>305</ele>
        <time>2020-05-22T14:17:51Z</time>
      </trkpt>
      <trkpt lat="48.69018" lon="7.24367">
        <ele>305.3</ele>
        <time>2020-05-22T14:17:53Z</time>
      </trkpt>
      <trkpt lat="48.69016" lon="7.24369">
        <ele>305.4</ele>
        <time>2020-05-22T14:17:54Z</time>
      </trkpt>
      <trkpt lat="48.69013" lon="7.24374">
        <ele>305.6</ele>
        <time>2020-05-22T14:17:56Z</time>
      </trkpt>
      <trkpt lat="48.69007" lon="7.2438">
        <ele>306</ele>
        <time>2020-05-22T14:17:58Z</time>
      </trkpt>
      <trkpt lat="48.69005" lon="7.24382">
        <ele>306.1</ele>
        <time>2020-05-22T14:17:59Z</time>
      </trkpt>
      <trkpt lat="48.69" lon="7.24386">
        <ele>306.3</ele>
        <time>2020-05-22T14:18:01Z</time>
      </trkpt>
      <trkpt lat="48.68995" lon="7.24392">
        <ele>306.6</ele>
        <time>2020-05-22T14:18:03Z</time>
      </trkpt>
      <trkpt lat="48.68991" lon="7.24394">
        <ele>306.8</ele>
        <time>2020-05-22T14:18:05Z</time>
      </trkpt>
      <trkpt lat="48.68988" lon="7.24395">
        <ele>306.9</ele>
        <time>2020-05-22T14:18:06Z</time>
      </trkpt>
      <trkpt lat="48.68985" lon="7.24398">
        <ele>307.1</ele>
        <time>2020-05-22T14:18:08Z</time>
      </trkpt>
      <trkpt lat="48.68984" lon="7.24399">
        <ele>307.2</ele>
        <time>2020-05-22T14:18:09Z</time>
      </trkpt>
      <trkpt lat="48.68979" lon="7.24401">
        <ele>307.5</ele>
        <time>2020-05-22T14:18:11Z</time>
      </trkpt>
      <trkpt lat="48.68973" lon="7.24403">
        <ele>308</ele>
        <time>2020-05-22T14:18:13Z</time>
      </trkpt>
      <trkpt lat="48.6897" lon="7.24406">
        <ele>308.3</ele>
        <time>2020-05-22T14:18:14Z</time>
      </trkpt>
      <trkpt lat="48.68965" lon="7.24409">
        <ele>308.7</ele>
        <time>2020-05-22T14:18:16Z</time>
      </trkpt>
      <trkpt lat="48.68961" lon="7.24413">
        <ele>309.1</ele>
        <time>2020-05-22T14:18:18Z</time>
      </trkpt>
      <trkpt lat="48.68957" lon="7.24417">
        <ele>309.3</ele>
        <time>2020-05-22T14:18:19Z</time>
      </trkpt>
      <trkpt lat="48.68956" lon="7.24418">
        <ele>309.4</ele>
        <time>2020-05-22T14:18:20Z</time>
      </trkpt>
      <trkpt lat="48.6895" lon="7.24423">
        <ele>309.9</ele>
        <time>2020-05-22T14:18:22Z</time>
      </trkpt>
      <trkpt lat="48.68946" lon="7.24427">
        <ele>310.2</ele>
        <time>2020-05-22T14:18:24Z</time>
      </trkpt>
      <trkpt lat="48.68943" lon="7.2443">
        <ele>310.4</ele>
        <time>2020-05-22T14:18:25Z</time>
      </trkpt>
      <trkpt lat="48.6894" lon="7.24433">
        <ele>310.7</ele>
        <time>2020-05-22T14:18:26Z</time>
      </trkpt>
      <trkpt lat="48.68934" lon="7.24439">
        <ele>311.1</ele>
        <time>2020-05-22T14:18:28Z</time>
      </trkpt>
      <trkpt lat="48.68926" lon="7.24448">
        <ele>311.6</ele>
        <time>2020-05-22T14:18:30Z</time>
      </trkpt>
      <trkpt lat="48.68921" lon="7.24459">
        <ele>312</ele>
        <time>2020-05-22T14:18:32Z</time>
      </trkpt>
      <trkpt lat="48.68919" lon="7.24464">
        <ele>312.2</ele>
        <time>2020-05-22T14:18:33Z</time>
      </trkpt>
      <trkpt lat="48.68916" lon="7.24475">
        <ele>312.5</ele>
        <time>2020-05-22T14:18:35Z</time>
      </trkpt>
      <trkpt lat="48.68915" lon="7.2448">
        <ele>312.6</ele>
        <time>2020-05-22T14:18:36Z</time>
      </trkpt>
      <trkpt lat="48.68912" lon="7.2449">
        <ele>312.8</ele>
        <time>2020-05-22T14:18:38Z</time>
      </trkpt>
      <trkpt lat="48.68908" lon="7.24502">
        <ele>313.2</ele>
        <time>2020-05-22T14:18:40Z</time>
      </trkpt>
      <trkpt lat="48.68906" lon="7.24513">
        <ele>313.7</ele>
        <time>2020-05-22T14:18:42Z</time>
      </trkpt>
      <trkpt lat="48.68903" lon="7.24523">
        <ele>314.2</ele>
        <time>2020-05-22T14:18:44Z</time>
      </trkpt>
      <trkpt lat="48.689" lon="7.24532">
        <ele>314.5</ele>
        <time>2020-05-22T14:18:46Z</time>
      </trkpt>
      <trkpt lat="48.68897" lon="7.24541">
        <ele>314.6</ele>
        <time>2020-05-22T14:18:48Z</time>
      </trkpt>
      <trkpt lat="48.68893" lon="7.24549">
        <ele>315</ele>
        <time>2020-05-22T14:18:50Z</time>
      </trkpt>
      <trkpt lat="48.68891" lon="7.24551">
        <ele>315.1</ele>
        <time>2020-05-22T14:18:51Z</time>
      </trkpt>
      <trkpt lat="48.6889" lon="7.24551">
        <ele>315.1</ele>
        <time>2020-05-22T14:18:52Z</time>
      </trkpt>
      <trkpt lat="48.68889" lon="7.24553">
        <ele>315.1</ele>
        <time>2020-05-22T14:18:53Z</time>
      </trkpt>
      <trkpt lat="48.68889" lon="7.24554">
        <ele>315.4</ele>
        <time>2020-05-22T14:18:55Z</time>
      </trkpt>
      <trkpt lat="48.68889" lon="7.24555">
        <ele>315.4</ele>
        <time>2020-05-22T14:18:57Z</time>
      </trkpt>
      <trkpt lat="48.68889" lon="7.24556">
        <ele>315.4</ele>
        <time>2020-05-22T14:18:58Z</time>
      </trkpt>
      <trkpt lat="48.68888" lon="7.24557">
        <ele>315.5</ele>
        <time>2020-05-22T14:18:59Z</time>
      </trkpt>
      <trkpt lat="48.68888" lon="7.24558">
        <ele>315.5</ele>
        <time>2020-05-22T14:19:01Z</time>
      </trkpt>
      <trkpt lat="48.68888" lon="7.24559">
        <ele>315.5</ele>
        <time>2020-05-22T14:19:03Z</time>
      </trkpt>
      <trkpt lat="48.68888" lon="7.24561">
        <ele>315.5</ele>
        <time>2020-05-22T14:19:20Z</time>
      </trkpt>
      <trkpt lat="48.68887" lon="7.24562">
        <ele>315.7</ele>
        <time>2020-05-22T14:19:21Z</time>
      </trkpt>
      <trkpt lat="48.68887" lon="7.24563">
        <ele>315.7</ele>
        <time>2020-05-22T14:19:22Z</time>
      </trkpt>
      <trkpt lat="48.68883" lon="7.24571">
        <ele>316.2</ele>
        <time>2020-05-22T14:19:24Z</time>
      </trkpt>
      <trkpt lat="48.68881" lon="7.24575">
        <ele>316.3</ele>
        <time>2020-05-22T14:19:25Z</time>
      </trkpt>
      <trkpt lat="48.68877" lon="7.24583">
        <ele>316.4</ele>
        <time>2020-05-22T14:19:27Z</time>
      </trkpt>
      <trkpt lat="48.68874" lon="7.24592">
        <ele>316.8</ele>
        <time>2020-05-22T14:19:29Z</time>
      </trkpt>
      <trkpt lat="48.68873" lon="7.24596">
        <ele>317</ele>
        <time>2020-05-22T14:19:30Z</time>
      </trkpt>
      <trkpt lat="48.68868" lon="7.24607">
        <ele>317.6</ele>
        <time>2020-05-22T14:19:33Z</time>
      </trkpt>
      <trkpt lat="48.68864" lon="7.24613">
        <ele>318.3</ele>
        <time>2020-05-22T14:19:35Z</time>
      </trkpt>
      <trkpt lat="48.68862" lon="7.24617">
        <ele>318.3</ele>
        <time>2020-05-22T14:19:36Z</time>
      </trkpt>
      <trkpt lat="48.68857" lon="7.24624">
        <ele>318.9</ele>
        <time>2020-05-22T14:19:38Z</time>
      </trkpt>
      <trkpt lat="48.68855" lon="7.24627">
        <ele>319.3</ele>
        <time>2020-05-22T14:19:39Z</time>
      </trkpt>
      <trkpt lat="48.68851" lon="7.24634">
        <ele>319.4</ele>
        <time>2020-05-22T14:19:41Z</time>
      </trkpt>
      <trkpt lat="48.68849" lon="7.24637">
        <ele>319.6</ele>
        <time>2020-05-22T14:19:42Z</time>
      </trkpt>
      <trkpt lat="48.68845" lon="7.24645">
        <ele>319.9</ele>
        <time>2020-05-22T14:19:44Z</time>
      </trkpt>
      <trkpt lat="48.68843" lon="7.24649">
        <ele>320</ele>
        <time>2020-05-22T14:19:45Z</time>
      </trkpt>
      <trkpt lat="48.68838" lon="7.24656">
        <ele>320.2</ele>
        <time>2020-05-22T14:19:47Z</time>
      </trkpt>
      <trkpt lat="48.68836" lon="7.2466">
        <ele>320.2</ele>
        <time>2020-05-22T14:19:48Z</time>
      </trkpt>
      <trkpt lat="48.68832" lon="7.24664">
        <ele>320.3</ele>
        <time>2020-05-22T14:19:49Z</time>
      </trkpt>
      <trkpt lat="48.6883" lon="7.24667">
        <ele>320.5</ele>
        <time>2020-05-22T14:19:50Z</time>
      </trkpt>
      <trkpt lat="48.68825" lon="7.24674">
        <ele>320.8</ele>
        <time>2020-05-22T14:19:52Z</time>
      </trkpt>
      <trkpt lat="48.68822" lon="7.24677">
        <ele>320.9</ele>
        <time>2020-05-22T14:19:53Z</time>
      </trkpt>
      <trkpt lat="48.68818" lon="7.24681">
        <ele>320.9</ele>
        <time>2020-05-22T14:19:55Z</time>
      </trkpt>
      <trkpt lat="48.68815" lon="7.24684">
        <ele>321.1</ele>
        <time>2020-05-22T14:19:56Z</time>
      </trkpt>
      <trkpt lat="48.68813" lon="7.24685">
        <ele>321.1</ele>
        <time>2020-05-22T14:19:57Z</time>
      </trkpt>
      <trkpt lat="48.68811" lon="7.24687">
        <ele>321.2</ele>
        <time>2020-05-22T14:19:58Z</time>
      </trkpt>
      <trkpt lat="48.68808" lon="7.24688">
        <ele>321.3</ele>
        <time>2020-05-22T14:19:59Z</time>
      </trkpt>
      <trkpt lat="48.68803" lon="7.2469">
        <ele>321.9</ele>
        <time>2020-05-22T14:20:01Z</time>
      </trkpt>
      <trkpt lat="48.688" lon="7.24692">
        <ele>322.1</ele>
        <time>2020-05-22T14:20:02Z</time>
      </trkpt>
      <trkpt lat="48.68794" lon="7.24693">
        <ele>322.7</ele>
        <time>2020-05-22T14:20:04Z</time>
      </trkpt>
      <trkpt lat="48.68787" lon="7.24695">
        <ele>323.4</ele>
        <time>2020-05-22T14:20:06Z</time>
      </trkpt>
      <trkpt lat="48.68784" lon="7.24696">
        <ele>324</ele>
        <time>2020-05-22T14:20:07Z</time>
      </trkpt>
      <trkpt lat="48.68779" lon="7.24698">
        <ele>324.6</ele>
        <time>2020-05-22T14:20:09Z</time>
      </trkpt>
      <trkpt lat="48.68773" lon="7.24701">
        <ele>325.2</ele>
        <time>2020-05-22T14:20:11Z</time>
      </trkpt>
      <trkpt lat="48.68767" lon="7.24705">
        <ele>325.7</ele>
        <time>2020-05-22T14:20:13Z</time>
      </trkpt>
      <trkpt lat="48.68762" lon="7.24709">
        <ele>326</ele>
        <time>2020-05-22T14:20:15Z</time>
      </trkpt>
      <trkpt lat="48.68756" lon="7.24711">
        <ele>326.8</ele>
        <time>2020-05-22T14:20:17Z</time>
      </trkpt>
      <trkpt lat="48.68754" lon="7.24713">
        <ele>327.2</ele>
        <time>2020-05-22T14:20:18Z</time>
      </trkpt>
      <trkpt lat="48.68752" lon="7.24714">
        <ele>327.7</ele>
        <time>2020-05-22T14:20:19Z</time>
      </trkpt>
      <trkpt lat="48.68747" lon="7.24716">
        <ele>328.5</ele>
        <time>2020-05-22T14:20:21Z</time>
      </trkpt>
      <trkpt lat="48.68745" lon="7.24717">
        <ele>328.5</ele>
        <time>2020-05-22T14:20:22Z</time>
      </trkpt>
      <trkpt lat="48.6874" lon="7.24718">
        <ele>329.3</ele>
        <time>2020-05-22T14:20:24Z</time>
      </trkpt>
      <trkpt lat="48.68738" lon="7.24718">
        <ele>329.7</ele>
        <time>2020-05-22T14:20:25Z</time>
      </trkpt>
      <trkpt lat="48.68733" lon="7.24719">
        <ele>330.4</ele>
        <time>2020-05-22T14:20:27Z</time>
      </trkpt>
      <trkpt lat="48.6873" lon="7.24719">
        <ele>330.7</ele>
        <time>2020-05-22T14:20:28Z</time>
      </trkpt>
      <trkpt lat="48.68725" lon="7.24721">
        <ele>331.1</ele>
        <time>2020-05-22T14:20:30Z</time>
      </trkpt>
      <trkpt lat="48.68721" lon="7.24723">
        <ele>331.5</ele>
        <time>2020-05-22T14:20:32Z</time>
      </trkpt>
      <trkpt lat="48.68716" lon="7.24725">
        <ele>331.8</ele>
        <time>2020-05-22T14:20:34Z</time>
      </trkpt>
      <trkpt lat="48.68713" lon="7.24726">
        <ele>332.1</ele>
        <time>2020-05-22T14:20:35Z</time>
      </trkpt>
      <trkpt lat="48.68712" lon="7.24727">
        <ele>332.1</ele>
        <time>2020-05-22T14:20:36Z</time>
      </trkpt>
      <trkpt lat="48.6871" lon="7.24728">
        <ele>332.5</ele>
        <time>2020-05-22T14:20:37Z</time>
      </trkpt>
      <trkpt lat="48.68706" lon="7.2473">
        <ele>332.4</ele>
        <time>2020-05-22T14:20:39Z</time>
      </trkpt>
      <trkpt lat="48.68701" lon="7.24732">
        <ele>333.2</ele>
        <time>2020-05-22T14:20:41Z</time>
      </trkpt>
      <trkpt lat="48.68697" lon="7.24734">
        <ele>333.2</ele>
        <time>2020-05-22T14:20:43Z</time>
      </trkpt>
      <trkpt lat="48.68695" lon="7.24735">
        <ele>333.6</ele>
        <time>2020-05-22T14:20:44Z</time>
      </trkpt>
      <trkpt lat="48.6869" lon="7.24735">
        <ele>334.4</ele>
        <time>2020-05-22T14:20:46Z</time>
      </trkpt>
      <trkpt lat="48.68688" lon="7.24735">
        <ele>334.7</ele>
        <time>2020-05-22T14:20:47Z</time>
      </trkpt>
      <trkpt lat="48.68683" lon="7.24733">
        <ele>335.1</ele>
        <time>2020-05-22T14:20:49Z</time>
      </trkpt>
      <trkpt lat="48.68681" lon="7.24733">
        <ele>335.5</ele>
        <time>2020-05-22T14:20:50Z</time>
      </trkpt>
      <trkpt lat="48.68677" lon="7.24734">
        <ele>335.9</ele>
        <time>2020-05-22T14:20:52Z</time>
      </trkpt>
      <trkpt lat="48.68675" lon="7.24735">
        <ele>336.3</ele>
        <time>2020-05-22T14:20:53Z</time>
      </trkpt>
      <trkpt lat="48.6867" lon="7.24737">
        <ele>337.1</ele>
        <time>2020-05-22T14:20:55Z</time>
      </trkpt>
      <trkpt lat="48.68667" lon="7.24737">
        <ele>337.5</ele>
        <time>2020-05-22T14:20:56Z</time>
      </trkpt>
      <trkpt lat="48.68663" lon="7.24737">
        <ele>337.9</ele>
        <time>2020-05-22T14:20:58Z</time>
      </trkpt>
      <trkpt lat="48.68661" lon="7.24737">
        <ele>338.3</ele>
        <time>2020-05-22T14:20:59Z</time>
      </trkpt>
      <trkpt lat="48.68656" lon="7.24736">
        <ele>339</ele>
        <time>2020-05-22T14:21:01Z</time>
      </trkpt>
      <trkpt lat="48.68651" lon="7.24736">
        <ele>339.6</ele>
        <time>2020-05-22T14:21:03Z</time>
      </trkpt>
      <trkpt lat="48.68648" lon="7.24737">
        <ele>339.8</ele>
        <time>2020-05-22T14:21:04Z</time>
      </trkpt>
      <trkpt lat="48.68644" lon="7.24736">
        <ele>340.1</ele>
        <time>2020-05-22T14:21:06Z</time>
      </trkpt>
      <trkpt lat="48.68641" lon="7.24735">
        <ele>340.3</ele>
        <time>2020-05-22T14:21:07Z</time>
      </trkpt>
      <trkpt lat="48.6864" lon="7.24735">
        <ele>340.3</ele>
        <time>2020-05-22T14:21:08Z</time>
      </trkpt>
      <trkpt lat="48.68638" lon="7.24735">
        <ele>340.6</ele>
        <time>2020-05-22T14:21:09Z</time>
      </trkpt>
      <trkpt lat="48.68633" lon="7.24736">
        <ele>341</ele>
        <time>2020-05-22T14:21:11Z</time>
      </trkpt>
      <trkpt lat="48.68628" lon="7.24738">
        <ele>340.4</ele>
        <time>2020-05-22T14:21:13Z</time>
      </trkpt>
      <trkpt lat="48.68623" lon="7.24739">
        <ele>340.7</ele>
        <time>2020-05-22T14:21:15Z</time>
      </trkpt>
      <trkpt lat="48.68617" lon="7.2474">
        <ele>340.8</ele>
        <time>2020-05-22T14:21:17Z</time>
      </trkpt>
      <trkpt lat="48.68612" lon="7.24741">
        <ele>341.1</ele>
        <time>2020-05-22T14:21:19Z</time>
      </trkpt>
      <trkpt lat="48.6861" lon="7.24741">
        <ele>341.3</ele>
        <time>2020-05-22T14:21:20Z</time>
      </trkpt>
      <trkpt lat="48.68606" lon="7.2474">
        <ele>341.5</ele>
        <time>2020-05-22T14:21:22Z</time>
      </trkpt>
      <trkpt lat="48.68604" lon="7.24739">
        <ele>341.7</ele>
        <time>2020-05-22T14:21:23Z</time>
      </trkpt>
      <trkpt lat="48.68599" lon="7.24739">
        <ele>342</ele>
        <time>2020-05-22T14:21:25Z</time>
      </trkpt>
      <trkpt lat="48.68595" lon="7.2474">
        <ele>342</ele>
        <time>2020-05-22T14:21:27Z</time>
      </trkpt>
      <trkpt lat="48.6859" lon="7.24742">
        <ele>341.2</ele>
        <time>2020-05-22T14:21:29Z</time>
      </trkpt>
      <trkpt lat="48.68587" lon="7.24742">
        <ele>341.3</ele>
        <time>2020-05-22T14:21:30Z</time>
      </trkpt>
      <trkpt lat="48.68583" lon="7.24742">
        <ele>341.6</ele>
        <time>2020-05-22T14:21:32Z</time>
      </trkpt>
      <trkpt lat="48.68581" lon="7.24743">
        <ele>341.6</ele>
        <time>2020-05-22T14:21:33Z</time>
      </trkpt>
      <trkpt lat="48.68575" lon="7.24744">
        <ele>341.9</ele>
        <time>2020-05-22T14:21:35Z</time>
      </trkpt>
      <trkpt lat="48.6857" lon="7.24746">
        <ele>341.1</ele>
        <time>2020-05-22T14:21:37Z</time>
      </trkpt>
      <trkpt lat="48.68564" lon="7.24749">
        <ele>341.5</ele>
        <time>2020-05-22T14:21:39Z</time>
      </trkpt>
      <trkpt lat="48.68562" lon="7.2475">
        <ele>341.7</ele>
        <time>2020-05-22T14:21:40Z</time>
      </trkpt>
      <trkpt lat="48.68559" lon="7.24754">
        <ele>340.9</ele>
        <time>2020-05-22T14:21:42Z</time>
      </trkpt>
      <trkpt lat="48.68556" lon="7.24756">
        <ele>340.1</ele>
        <time>2020-05-22T14:21:43Z</time>
      </trkpt>
      <trkpt lat="48.68555" lon="7.24757">
        <ele>340.1</ele>
        <time>2020-05-22T14:21:44Z</time>
      </trkpt>
      <trkpt lat="48.68551" lon="7.24759">
        <ele>339.7</ele>
        <time>2020-05-22T14:21:46Z</time>
      </trkpt>
      <trkpt lat="48.68546" lon="7.24762">
        <ele>340.3</ele>
        <time>2020-05-22T14:21:48Z</time>
      </trkpt>
      <trkpt lat="48.68542" lon="7.24764">
        <ele>339.7</ele>
        <time>2020-05-22T14:21:50Z</time>
      </trkpt>
      <trkpt lat="48.68538" lon="7.24765">
        <ele>340</ele>
        <time>2020-05-22T14:21:52Z</time>
      </trkpt>
      <trkpt lat="48.68533" lon="7.24766">
        <ele>340.8</ele>
        <time>2020-05-22T14:21:54Z</time>
      </trkpt>
      <trkpt lat="48.68528" lon="7.24767">
        <ele>341.7</ele>
        <time>2020-05-22T14:21:56Z</time>
      </trkpt>
      <trkpt lat="48.68525" lon="7.24768">
        <ele>341.2</ele>
        <time>2020-05-22T14:21:57Z</time>
      </trkpt>
      <trkpt lat="48.6852" lon="7.24771">
        <ele>342.1</ele>
        <time>2020-05-22T14:21:59Z</time>
      </trkpt>
      <trkpt lat="48.68515" lon="7.24773">
        <ele>342.2</ele>
        <time>2020-05-22T14:22:01Z</time>
      </trkpt>
      <trkpt lat="48.68511" lon="7.24775">
        <ele>342.6</ele>
        <time>2020-05-22T14:22:02Z</time>
      </trkpt>
      <trkpt lat="48.68509" lon="7.24776">
        <ele>343</ele>
        <time>2020-05-22T14:22:03Z</time>
      </trkpt>
      <trkpt lat="48.68504" lon="7.24779">
        <ele>342.7</ele>
        <time>2020-05-22T14:22:05Z</time>
      </trkpt>
      <trkpt lat="48.685" lon="7.24781">
        <ele>342.8</ele>
        <time>2020-05-22T14:22:07Z</time>
      </trkpt>
      <trkpt lat="48.68497" lon="7.24783">
        <ele>343.2</ele>
        <time>2020-05-22T14:22:08Z</time>
      </trkpt>
      <trkpt lat="48.68495" lon="7.24783">
        <ele>343.6</ele>
        <time>2020-05-22T14:22:09Z</time>
      </trkpt>
      <trkpt lat="48.6849" lon="7.24786">
        <ele>343.3</ele>
        <time>2020-05-22T14:22:11Z</time>
      </trkpt>
      <trkpt lat="48.68488" lon="7.24787">
        <ele>343.6</ele>
        <time>2020-05-22T14:22:12Z</time>
      </trkpt>
      <trkpt lat="48.68482" lon="7.24788">
        <ele>344</ele>
        <time>2020-05-22T14:22:14Z</time>
      </trkpt>
      <trkpt lat="48.6848" lon="7.24788">
        <ele>344.2</ele>
        <time>2020-05-22T14:22:15Z</time>
      </trkpt>
      <trkpt lat="48.68475" lon="7.24789">
        <ele>344</ele>
        <time>2020-05-22T14:22:17Z</time>
      </trkpt>
      <trkpt lat="48.68472" lon="7.2479">
        <ele>344.2</ele>
        <time>2020-05-22T14:22:18Z</time>
      </trkpt>
      <trkpt lat="48.68468" lon="7.2479">
        <ele>344.3</ele>
        <time>2020-05-22T14:22:19Z</time>
      </trkpt>
      <trkpt lat="48.68467" lon="7.24791">
        <ele>344.4</ele>
        <time>2020-05-22T14:22:20Z</time>
      </trkpt>
      <trkpt lat="48.68464" lon="7.24792">
        <ele>344.5</ele>
        <time>2020-05-22T14:22:22Z</time>
      </trkpt>
      <trkpt lat="48.68459" lon="7.24793">
        <ele>344.5</ele>
        <time>2020-05-22T14:22:24Z</time>
      </trkpt>
      <trkpt lat="48.68454" lon="7.24794">
        <ele>344.2</ele>
        <time>2020-05-22T14:22:26Z</time>
      </trkpt>
      <trkpt lat="48.68449" lon="7.24797">
        <ele>344.3</ele>
        <time>2020-05-22T14:22:28Z</time>
      </trkpt>
      <trkpt lat="48.68444" lon="7.24799">
        <ele>344</ele>
        <time>2020-05-22T14:22:30Z</time>
      </trkpt>
      <trkpt lat="48.68441" lon="7.24799">
        <ele>344</ele>
        <time>2020-05-22T14:22:31Z</time>
      </trkpt>
      <trkpt lat="48.68437" lon="7.248">
        <ele>344.1</ele>
        <time>2020-05-22T14:22:32Z</time>
      </trkpt>
      <trkpt lat="48.68436" lon="7.248">
        <ele>344.1</ele>
        <time>2020-05-22T14:22:33Z</time>
      </trkpt>
      <trkpt lat="48.68434" lon="7.24801">
        <ele>344.1</ele>
        <time>2020-05-22T14:22:34Z</time>
      </trkpt>
      <trkpt lat="48.68429" lon="7.248">
        <ele>344</ele>
        <time>2020-05-22T14:22:36Z</time>
      </trkpt>
      <trkpt lat="48.68426" lon="7.24801">
        <ele>344</ele>
        <time>2020-05-22T14:22:37Z</time>
      </trkpt>
      <trkpt lat="48.68422" lon="7.24801">
        <ele>343.9</ele>
        <time>2020-05-22T14:22:39Z</time>
      </trkpt>
      <trkpt lat="48.6842" lon="7.24801">
        <ele>343.9</ele>
        <time>2020-05-22T14:22:40Z</time>
      </trkpt>
      <trkpt lat="48.68416" lon="7.24803">
        <ele>343.4</ele>
        <time>2020-05-22T14:22:42Z</time>
      </trkpt>
      <trkpt lat="48.68413" lon="7.24804">
        <ele>343.4</ele>
        <time>2020-05-22T14:22:43Z</time>
      </trkpt>
      <trkpt lat="48.68412" lon="7.24805">
        <ele>343.4</ele>
        <time>2020-05-22T14:22:44Z</time>
      </trkpt>
      <trkpt lat="48.68408" lon="7.24805">
        <ele>343.4</ele>
        <time>2020-05-22T14:22:46Z</time>
      </trkpt>
      <trkpt lat="48.68406" lon="7.24805">
        <ele>343.4</ele>
        <time>2020-05-22T14:22:47Z</time>
      </trkpt>
      <trkpt lat="48.68402" lon="7.24806">
        <ele>343</ele>
        <time>2020-05-22T14:22:49Z</time>
      </trkpt>
      <trkpt lat="48.684" lon="7.24807">
        <ele>343</ele>
        <time>2020-05-22T14:22:50Z</time>
      </trkpt>
      <trkpt lat="48.68395" lon="7.24808">
        <ele>343</ele>
        <time>2020-05-22T14:22:52Z</time>
      </trkpt>
      <trkpt lat="48.68392" lon="7.24809">
        <ele>343</ele>
        <time>2020-05-22T14:22:53Z</time>
      </trkpt>
      <trkpt lat="48.68386" lon="7.2481">
        <ele>342.6</ele>
        <time>2020-05-22T14:22:55Z</time>
      </trkpt>
      <trkpt lat="48.68381" lon="7.24811">
        <ele>342.6</ele>
        <time>2020-05-22T14:22:57Z</time>
      </trkpt>
      <trkpt lat="48.68376" lon="7.2481">
        <ele>343.4</ele>
        <time>2020-05-22T14:22:59Z</time>
      </trkpt>
      <trkpt lat="48.68374" lon="7.24809">
        <ele>343.4</ele>
        <time>2020-05-22T14:23:00Z</time>
      </trkpt>
      <trkpt lat="48.68369" lon="7.24809">
        <ele>343.7</ele>
        <time>2020-05-22T14:23:02Z</time>
      </trkpt>
      <trkpt lat="48.68365" lon="7.2481">
        <ele>343.9</ele>
        <time>2020-05-22T14:23:03Z</time>
      </trkpt>
      <trkpt lat="48.68364" lon="7.2481">
        <ele>344.2</ele>
        <time>2020-05-22T14:23:04Z</time>
      </trkpt>
      <trkpt lat="48.6836" lon="7.2481">
        <ele>343.8</ele>
        <time>2020-05-22T14:23:05Z</time>
      </trkpt>
      <trkpt lat="48.68359" lon="7.2481">
        <ele>344.1</ele>
        <time>2020-05-22T14:23:06Z</time>
      </trkpt>
      <trkpt lat="48.68356" lon="7.24811">
        <ele>344.4</ele>
        <time>2020-05-22T14:23:07Z</time>
      </trkpt>
      <trkpt lat="48.68351" lon="7.24812">
        <ele>345.1</ele>
        <time>2020-05-22T14:23:09Z</time>
      </trkpt>
      <trkpt lat="48.68349" lon="7.24812">
        <ele>345.1</ele>
        <time>2020-05-22T14:23:10Z</time>
      </trkpt>
      <trkpt lat="48.68345" lon="7.24813">
        <ele>345.7</ele>
        <time>2020-05-22T14:23:12Z</time>
      </trkpt>
      <trkpt lat="48.68341" lon="7.24814">
        <ele>346.1</ele>
        <time>2020-05-22T14:23:14Z</time>
      </trkpt>
      <trkpt lat="48.68337" lon="7.24817">
        <ele>345.8</ele>
        <time>2020-05-22T14:23:16Z</time>
      </trkpt>
      <trkpt lat="48.68335" lon="7.24818">
        <ele>346.2</ele>
        <time>2020-05-22T14:23:17Z</time>
      </trkpt>
      <trkpt lat="48.68331" lon="7.24818">
        <ele>346.9</ele>
        <time>2020-05-22T14:23:19Z</time>
      </trkpt>
      <trkpt lat="48.68329" lon="7.24818">
        <ele>346.9</ele>
        <time>2020-05-22T14:23:20Z</time>
      </trkpt>
      <trkpt lat="48.68324" lon="7.24819">
        <ele>347.1</ele>
        <time>2020-05-22T14:23:22Z</time>
      </trkpt>
      <trkpt lat="48.68319" lon="7.24821">
        <ele>347.8</ele>
        <time>2020-05-22T14:23:24Z</time>
      </trkpt>
      <trkpt lat="48.68316" lon="7.24822">
        <ele>348.2</ele>
        <time>2020-05-22T14:23:25Z</time>
      </trkpt>
      <trkpt lat="48.68312" lon="7.24824">
        <ele>347.9</ele>
        <time>2020-05-22T14:23:27Z</time>
      </trkpt>
      <trkpt lat="48.68303" lon="7.24827">
        <ele>349</ele>
        <time>2020-05-22T14:23:31Z</time>
      </trkpt>
      <trkpt lat="48.68301" lon="7.24829">
        <ele>348.7</ele>
        <time>2020-05-22T14:23:32Z</time>
      </trkpt>
      <trkpt lat="48.68297" lon="7.24833">
        <ele>348.6</ele>
        <time>2020-05-22T14:23:34Z</time>
      </trkpt>
      <trkpt lat="48.68295" lon="7.24834">
        <ele>348.6</ele>
        <time>2020-05-22T14:23:35Z</time>
      </trkpt>
      <trkpt lat="48.6829" lon="7.24834">
        <ele>349.1</ele>
        <time>2020-05-22T14:23:37Z</time>
      </trkpt>
      <trkpt lat="48.68288" lon="7.24833">
        <ele>349.3</ele>
        <time>2020-05-22T14:23:38Z</time>
      </trkpt>
      <trkpt lat="48.68284" lon="7.24832">
        <ele>349.5</ele>
        <time>2020-05-22T14:23:40Z</time>
      </trkpt>
      <trkpt lat="48.68285" lon="7.2483">
        <ele>350.2</ele>
        <time>2020-05-22T14:23:42Z</time>
      </trkpt>
      <trkpt lat="48.68286" lon="7.2483">
        <ele>350</ele>
        <time>2020-05-22T14:23:43Z</time>
      </trkpt>
      <trkpt lat="48.68287" lon="7.2483">
        <ele>350</ele>
        <time>2020-05-22T14:23:45Z</time>
      </trkpt>
      <trkpt lat="48.68287" lon="7.2483">
        <ele>350</ele>
        <time>2020-05-22T14:23:47Z</time>
      </trkpt>
      <trkpt lat="48.68287" lon="7.24829">
        <ele>350</ele>
        <time>2020-05-22T14:23:50Z</time>
      </trkpt>
      <trkpt lat="48.68287" lon="7.24829">
        <ele>350</ele>
        <time>2020-05-22T14:23:52Z</time>
      </trkpt>
      <trkpt lat="48.68287" lon="7.24829">
        <ele>350</ele>
        <time>2020-05-22T14:23:53Z</time>
      </trkpt>
      <trkpt lat="48.68283" lon="7.24829">
        <ele>350.4</ele>
        <time>2020-05-22T14:24:09Z</time>
      </trkpt>
      <trkpt lat="48.68279" lon="7.24827">
        <ele>351.2</ele>
        <time>2020-05-22T14:24:11Z</time>
      </trkpt>
      <trkpt lat="48.68276" lon="7.24827">
        <ele>351.3</ele>
        <time>2020-05-22T14:24:13Z</time>
      </trkpt>
      <trkpt lat="48.68273" lon="7.24825">
        <ele>351.4</ele>
        <time>2020-05-22T14:24:15Z</time>
      </trkpt>
      <trkpt lat="48.6827" lon="7.24823">
        <ele>351.5</ele>
        <time>2020-05-22T14:24:17Z</time>
      </trkpt>
      <trkpt lat="48.68267" lon="7.24821">
        <ele>352.2</ele>
        <time>2020-05-22T14:24:19Z</time>
      </trkpt>
      <trkpt lat="48.68265" lon="7.2482">
        <ele>352.1</ele>
        <time>2020-05-22T14:24:20Z</time>
      </trkpt>
      <trkpt lat="48.68262" lon="7.2482">
        <ele>352.1</ele>
        <time>2020-05-22T14:24:22Z</time>
      </trkpt>
      <trkpt lat="48.68259" lon="7.24819">
        <ele>352</ele>
        <time>2020-05-22T14:24:24Z</time>
      </trkpt>
      <trkpt lat="48.68257" lon="7.24819">
        <ele>352</ele>
        <time>2020-05-22T14:24:25Z</time>
      </trkpt>
      <trkpt lat="48.68254" lon="7.24819">
        <ele>351.9</ele>
        <time>2020-05-22T14:24:27Z</time>
      </trkpt>
      <trkpt lat="48.6825" lon="7.24819">
        <ele>351.8</ele>
        <time>2020-05-22T14:24:29Z</time>
      </trkpt>
      <trkpt lat="48.68247" lon="7.24819">
        <ele>351.7</ele>
        <time>2020-05-22T14:24:31Z</time>
      </trkpt>
      <trkpt lat="48.68243" lon="7.2482">
        <ele>351.5</ele>
        <time>2020-05-22T14:24:33Z</time>
      </trkpt>
      <trkpt lat="48.6824" lon="7.24821">
        <ele>351.4</ele>
        <time>2020-05-22T14:24:34Z</time>
      </trkpt>
      <trkpt lat="48.68236" lon="7.24822">
        <ele>351.3</ele>
        <time>2020-05-22T14:24:36Z</time>
      </trkpt>
      <trkpt lat="48.68233" lon="7.24824">
        <ele>350.5</ele>
        <time>2020-05-22T14:24:38Z</time>
      </trkpt>
      <trkpt lat="48.6823" lon="7.24825">
        <ele>350.5</ele>
        <time>2020-05-22T14:24:39Z</time>
      </trkpt>
      <trkpt lat="48.68226" lon="7.24828">
        <ele>349.9</ele>
        <time>2020-05-22T14:24:41Z</time>
      </trkpt>
      <trkpt lat="48.68222" lon="7.24829">
        <ele>349.9</ele>
        <time>2020-05-22T14:24:43Z</time>
      </trkpt>
      <trkpt lat="48.68217" lon="7.2483">
        <ele>350</ele>
        <time>2020-05-22T14:24:45Z</time>
      </trkpt>
      <trkpt lat="48.68213" lon="7.24832">
        <ele>349.5</ele>
        <time>2020-05-22T14:24:47Z</time>
      </trkpt>
      <trkpt lat="48.68209" lon="7.24836">
        <ele>349.1</ele>
        <time>2020-05-22T14:24:49Z</time>
      </trkpt>
      <trkpt lat="48.68207" lon="7.24837">
        <ele>349.1</ele>
        <time>2020-05-22T14:24:50Z</time>
      </trkpt>
      <trkpt lat="48.68204" lon="7.2484">
        <ele>349.2</ele>
        <time>2020-05-22T14:24:52Z</time>
      </trkpt>
      <trkpt lat="48.68201" lon="7.24842">
        <ele>348.8</ele>
        <time>2020-05-22T14:24:54Z</time>
      </trkpt>
      <trkpt lat="48.68196" lon="7.24843">
        <ele>349</ele>
        <time>2020-05-22T14:24:56Z</time>
      </trkpt>
      <trkpt lat="48.68193" lon="7.24847">
        <ele>348.5</ele>
        <time>2020-05-22T14:24:58Z</time>
      </trkpt>
      <trkpt lat="48.68192" lon="7.24851">
        <ele>348.1</ele>
        <time>2020-05-22T14:25:00Z</time>
      </trkpt>
      <trkpt lat="48.6819" lon="7.24853">
        <ele>347.4</ele>
        <time>2020-05-22T14:25:02Z</time>
      </trkpt>
      <trkpt lat="48.68186" lon="7.24856">
        <ele>347.7</ele>
        <time>2020-05-22T14:25:04Z</time>
      </trkpt>
      <trkpt lat="48.68183" lon="7.24858">
        <ele>347.2</ele>
        <time>2020-05-22T14:25:06Z</time>
      </trkpt>
      <trkpt lat="48.68179" lon="7.2486">
        <ele>347.3</ele>
        <time>2020-05-22T14:25:07Z</time>
      </trkpt>
      <trkpt lat="48.68178" lon="7.24861">
        <ele>347.3</ele>
        <time>2020-05-22T14:25:08Z</time>
      </trkpt>
      <trkpt lat="48.68174" lon="7.24863">
        <ele>347</ele>
        <time>2020-05-22T14:25:10Z</time>
      </trkpt>
      <trkpt lat="48.68171" lon="7.24866">
        <ele>346.7</ele>
        <time>2020-05-22T14:25:12Z</time>
      </trkpt>
      <trkpt lat="48.6817" lon="7.24868">
        <ele>346.7</ele>
        <time>2020-05-22T14:25:13Z</time>
      </trkpt>
      <trkpt lat="48.68167" lon="7.24871">
        <ele>346.7</ele>
        <time>2020-05-22T14:25:15Z</time>
      </trkpt>
      <trkpt lat="48.68165" lon="7.24873">
        <ele>347</ele>
        <time>2020-05-22T14:25:16Z</time>
      </trkpt>
      <trkpt lat="48.68162" lon="7.24873">
        <ele>347.4</ele>
        <time>2020-05-22T14:25:18Z</time>
      </trkpt>
      <trkpt lat="48.6816" lon="7.24874">
        <ele>347.8</ele>
        <time>2020-05-22T14:25:19Z</time>
      </trkpt>
      <trkpt lat="48.68157" lon="7.24877">
        <ele>348</ele>
        <time>2020-05-22T14:25:21Z</time>
      </trkpt>
      <trkpt lat="48.68154" lon="7.24881">
        <ele>348.5</ele>
        <time>2020-05-22T14:25:23Z</time>
      </trkpt>
      <trkpt lat="48.68152" lon="7.24883">
        <ele>348.8</ele>
        <time>2020-05-22T14:25:24Z</time>
      </trkpt>
      <trkpt lat="48.68149" lon="7.24885">
        <ele>349.3</ele>
        <time>2020-05-22T14:25:26Z</time>
      </trkpt>
      <trkpt lat="48.68148" lon="7.24886">
        <ele>349.3</ele>
        <time>2020-05-22T14:25:27Z</time>
      </trkpt>
      <trkpt lat="48.68146" lon="7.24887">
        <ele>349.5</ele>
        <time>2020-05-22T14:25:28Z</time>
      </trkpt>
      <trkpt lat="48.68142" lon="7.2489">
        <ele>349.8</ele>
        <time>2020-05-22T14:25:30Z</time>
      </trkpt>
      <trkpt lat="48.6814" lon="7.24893">
        <ele>349.8</ele>
        <time>2020-05-22T14:25:32Z</time>
      </trkpt>
      <trkpt lat="48.68136" lon="7.24898">
        <ele>349.9</ele>
        <time>2020-05-22T14:25:34Z</time>
      </trkpt>
      <trkpt lat="48.68134" lon="7.24901">
        <ele>349.9</ele>
        <time>2020-05-22T14:25:35Z</time>
      </trkpt>
      <trkpt lat="48.68132" lon="7.24906">
        <ele>350.3</ele>
        <time>2020-05-22T14:25:37Z</time>
      </trkpt>
      <trkpt lat="48.68129" lon="7.24911">
        <ele>350.8</ele>
        <time>2020-05-22T14:25:39Z</time>
      </trkpt>
      <trkpt lat="48.68126" lon="7.24914">
        <ele>351.5</ele>
        <time>2020-05-22T14:25:41Z</time>
      </trkpt>
      <trkpt lat="48.68124" lon="7.24917">
        <ele>351.5</ele>
        <time>2020-05-22T14:25:42Z</time>
      </trkpt>
      <trkpt lat="48.68122" lon="7.2492">
        <ele>352.2</ele>
        <time>2020-05-22T14:25:44Z</time>
      </trkpt>
      <trkpt lat="48.68119" lon="7.24924">
        <ele>352.8</ele>
        <time>2020-05-22T14:25:46Z</time>
      </trkpt>
      <trkpt lat="48.68118" lon="7.24925">
        <ele>352.8</ele>
        <time>2020-05-22T14:25:47Z</time>
      </trkpt>
      <trkpt lat="48.68114" lon="7.24929">
        <ele>353.4</ele>
        <time>2020-05-22T14:25:49Z</time>
      </trkpt>
      <trkpt lat="48.6811" lon="7.24933">
        <ele>353.7</ele>
        <time>2020-05-22T14:25:51Z</time>
      </trkpt>
      <trkpt lat="48.68106" lon="7.24935">
        <ele>354</ele>
        <time>2020-05-22T14:25:52Z</time>
      </trkpt>
      <trkpt lat="48.68105" lon="7.24936">
        <ele>354</ele>
        <time>2020-05-22T14:25:53Z</time>
      </trkpt>
      <trkpt lat="48.68101" lon="7.24938">
        <ele>353.9</ele>
        <time>2020-05-22T14:25:55Z</time>
      </trkpt>
      <trkpt lat="48.68099" lon="7.24939">
        <ele>354.3</ele>
        <time>2020-05-22T14:25:56Z</time>
      </trkpt>
      <trkpt lat="48.68094" lon="7.24942">
        <ele>354.2</ele>
        <time>2020-05-22T14:25:58Z</time>
      </trkpt>
      <trkpt lat="48.68092" lon="7.24943">
        <ele>354.8</ele>
        <time>2020-05-22T14:25:59Z</time>
      </trkpt>
      <trkpt lat="48.6809" lon="7.24944">
        <ele>354.8</ele>
        <time>2020-05-22T14:26:00Z</time>
      </trkpt>
      <trkpt lat="48.68086" lon="7.24946">
        <ele>354.7</ele>
        <time>2020-05-22T14:26:02Z</time>
      </trkpt>
      <trkpt lat="48.68084" lon="7.24948">
        <ele>355.4</ele>
        <time>2020-05-22T14:26:03Z</time>
      </trkpt>
      <trkpt lat="48.68083" lon="7.24949">
        <ele>355.4</ele>
        <time>2020-05-22T14:26:04Z</time>
      </trkpt>
      <trkpt lat="48.6808" lon="7.24952">
        <ele>355.8</ele>
        <time>2020-05-22T14:26:06Z</time>
      </trkpt>
      <trkpt lat="48.68078" lon="7.24954">
        <ele>355.8</ele>
        <time>2020-05-22T14:26:07Z</time>
      </trkpt>
      <trkpt lat="48.68074" lon="7.24956">
        <ele>355.7</ele>
        <time>2020-05-22T14:26:09Z</time>
      </trkpt>
      <trkpt lat="48.6807" lon="7.24959">
        <ele>355.9</ele>
        <time>2020-05-22T14:26:11Z</time>
      </trkpt>
      <trkpt lat="48.68065" lon="7.24959">
        <ele>355.8</ele>
        <time>2020-05-22T14:26:13Z</time>
      </trkpt>
      <trkpt lat="48.68061" lon="7.24959">
        <ele>355.8</ele>
        <time>2020-05-22T14:26:15Z</time>
      </trkpt>
      <trkpt lat="48.68056" lon="7.2496">
        <ele>355.8</ele>
        <time>2020-05-22T14:26:17Z</time>
      </trkpt>
      <trkpt lat="48.68053" lon="7.24961">
        <ele>356.4</ele>
        <time>2020-05-22T14:26:19Z</time>
      </trkpt>
      <trkpt lat="48.68049" lon="7.24963">
        <ele>356.4</ele>
        <time>2020-05-22T14:26:21Z</time>
      </trkpt>
      <trkpt lat="48.68046" lon="7.24964">
        <ele>356.5</ele>
        <time>2020-05-22T14:26:23Z</time>
      </trkpt>
      <trkpt lat="48.68042" lon="7.24965">
        <ele>356.5</ele>
        <time>2020-05-22T14:26:25Z</time>
      </trkpt>
      <trkpt lat="48.6804" lon="7.24965">
        <ele>356.8</ele>
        <time>2020-05-22T14:26:26Z</time>
      </trkpt>
      <trkpt lat="48.68036" lon="7.24966">
        <ele>356.9</ele>
        <time>2020-05-22T14:26:28Z</time>
      </trkpt>
      <trkpt lat="48.68032" lon="7.24967">
        <ele>357</ele>
        <time>2020-05-22T14:26:29Z</time>
      </trkpt>
      <trkpt lat="48.68031" lon="7.24967">
        <ele>357</ele>
        <time>2020-05-22T14:26:30Z</time>
      </trkpt>
      <trkpt lat="48.68029" lon="7.24968">
        <ele>357.2</ele>
        <time>2020-05-22T14:26:31Z</time>
      </trkpt>
      <trkpt lat="48.68023" lon="7.24968">
        <ele>357.5</ele>
        <time>2020-05-22T14:26:33Z</time>
      </trkpt>
      <trkpt lat="48.68019" lon="7.24969">
        <ele>357.9</ele>
        <time>2020-05-22T14:26:35Z</time>
      </trkpt>
      <trkpt lat="48.68015" lon="7.2497">
        <ele>358.4</ele>
        <time>2020-05-22T14:26:37Z</time>
      </trkpt>
      <trkpt lat="48.68013" lon="7.2497">
        <ele>358.6</ele>
        <time>2020-05-22T14:26:38Z</time>
      </trkpt>
      <trkpt lat="48.68009" lon="7.24972">
        <ele>358.9</ele>
        <time>2020-05-22T14:26:40Z</time>
      </trkpt>
      <trkpt lat="48.68007" lon="7.24973">
        <ele>359.2</ele>
        <time>2020-05-22T14:26:41Z</time>
      </trkpt>
      <trkpt lat="48.68002" lon="7.24973">
        <ele>359.9</ele>
        <time>2020-05-22T14:26:43Z</time>
      </trkpt>
      <trkpt lat="48.68" lon="7.24973">
        <ele>359.9</ele>
        <time>2020-05-22T14:26:44Z</time>
      </trkpt>
      <trkpt lat="48.67996" lon="7.24974">
        <ele>360.7</ele>
        <time>2020-05-22T14:26:46Z</time>
      </trkpt>
      <trkpt lat="48.67993" lon="7.24976">
        <ele>361.1</ele>
        <time>2020-05-22T14:26:48Z</time>
      </trkpt>
      <trkpt lat="48.67991" lon="7.24978">
        <ele>361.3</ele>
        <time>2020-05-22T14:26:50Z</time>
      </trkpt>
      <trkpt lat="48.6799" lon="7.2498">
        <ele>361.3</ele>
        <time>2020-05-22T14:26:51Z</time>
      </trkpt>
      <trkpt lat="48.67987" lon="7.24984">
        <ele>361.4</ele>
        <time>2020-05-22T14:26:53Z</time>
      </trkpt>
      <trkpt lat="48.67985" lon="7.24988">
        <ele>361.6</ele>
        <time>2020-05-22T14:26:55Z</time>
      </trkpt>
      <trkpt lat="48.67984" lon="7.2499">
        <ele>361.6</ele>
        <time>2020-05-22T14:26:56Z</time>
      </trkpt>
      <trkpt lat="48.67983" lon="7.24992">
        <ele>361.4</ele>
        <time>2020-05-22T14:26:57Z</time>
      </trkpt>
      <trkpt lat="48.6798" lon="7.24997">
        <ele>361.7</ele>
        <time>2020-05-22T14:26:59Z</time>
      </trkpt>
      <trkpt lat="48.67979" lon="7.25">
        <ele>362.2</ele>
        <time>2020-05-22T14:27:00Z</time>
      </trkpt>
      <trkpt lat="48.67978" lon="7.25002">
        <ele>362.2</ele>
        <time>2020-05-22T14:27:01Z</time>
      </trkpt>
      <trkpt lat="48.67976" lon="7.25006">
        <ele>362.8</ele>
        <time>2020-05-22T14:27:03Z</time>
      </trkpt>
      <trkpt lat="48.67975" lon="7.25008">
        <ele>362.8</ele>
        <time>2020-05-22T14:27:04Z</time>
      </trkpt>
      <trkpt lat="48.67974" lon="7.25011">
        <ele>362.8</ele>
        <time>2020-05-22T14:27:05Z</time>
      </trkpt>
      <trkpt lat="48.67972" lon="7.25017">
        <ele>363.7</ele>
        <time>2020-05-22T14:27:07Z</time>
      </trkpt>
      <trkpt lat="48.67971" lon="7.2502">
        <ele>364.3</ele>
        <time>2020-05-22T14:27:08Z</time>
      </trkpt>
      <trkpt lat="48.6797" lon="7.25026">
        <ele>364.6</ele>
        <time>2020-05-22T14:27:10Z</time>
      </trkpt>
      <trkpt lat="48.67968" lon="7.25031">
        <ele>365.3</ele>
        <time>2020-05-22T14:27:11Z</time>
      </trkpt>
      <trkpt lat="48.67968" lon="7.25032">
        <ele>365.3</ele>
        <time>2020-05-22T14:27:12Z</time>
      </trkpt>
      <trkpt lat="48.67967" lon="7.25034">
        <ele>365.6</ele>
        <time>2020-05-22T14:27:13Z</time>
      </trkpt>
      <trkpt lat="48.67965" lon="7.25039">
        <ele>366.3</ele>
        <time>2020-05-22T14:27:15Z</time>
      </trkpt>
      <trkpt lat="48.67964" lon="7.25041">
        <ele>366.3</ele>
        <time>2020-05-22T14:27:16Z</time>
      </trkpt>
      <trkpt lat="48.67962" lon="7.25045">
        <ele>367.1</ele>
        <time>2020-05-22T14:27:18Z</time>
      </trkpt>
      <trkpt lat="48.6796" lon="7.25048">
        <ele>367.9</ele>
        <time>2020-05-22T14:27:20Z</time>
      </trkpt>
      <trkpt lat="48.67959" lon="7.25049">
        <ele>367.9</ele>
        <time>2020-05-22T14:27:21Z</time>
      </trkpt>
      <trkpt lat="48.67955" lon="7.25053">
        <ele>368.7</ele>
        <time>2020-05-22T14:27:23Z</time>
      </trkpt>
      <trkpt lat="48.67954" lon="7.25055">
        <ele>369.2</ele>
        <time>2020-05-22T14:27:24Z</time>
      </trkpt>
      <trkpt lat="48.67952" lon="7.25057">
        <ele>369.6</ele>
        <time>2020-05-22T14:27:26Z</time>
      </trkpt>
      <trkpt lat="48.6795" lon="7.25062">
        <ele>370.4</ele>
        <time>2020-05-22T14:27:28Z</time>
      </trkpt>
      <trkpt lat="48.67949" lon="7.25064">
        <ele>370.8</ele>
        <time>2020-05-22T14:27:29Z</time>
      </trkpt>
      <trkpt lat="48.67947" lon="7.25067">
        <ele>371.2</ele>
        <time>2020-05-22T14:27:31Z</time>
      </trkpt>
      <trkpt lat="48.67945" lon="7.2507">
        <ele>371.9</ele>
        <time>2020-05-22T14:27:32Z</time>
      </trkpt>
      <trkpt lat="48.67944" lon="7.25071">
        <ele>371.9</ele>
        <time>2020-05-22T14:27:33Z</time>
      </trkpt>
      <trkpt lat="48.67942" lon="7.25075">
        <ele>372.5</ele>
        <time>2020-05-22T14:27:35Z</time>
      </trkpt>
      <trkpt lat="48.67941" lon="7.25079">
        <ele>372.7</ele>
        <time>2020-05-22T14:27:37Z</time>
      </trkpt>
      <trkpt lat="48.6794" lon="7.25082">
        <ele>373.1</ele>
        <time>2020-05-22T14:27:38Z</time>
      </trkpt>
      <trkpt lat="48.67938" lon="7.25085">
        <ele>373.3</ele>
        <time>2020-05-22T14:27:40Z</time>
      </trkpt>
      <trkpt lat="48.67936" lon="7.25087">
        <ele>373.4</ele>
        <time>2020-05-22T14:27:41Z</time>
      </trkpt>
      <trkpt lat="48.67934" lon="7.25091">
        <ele>373.5</ele>
        <time>2020-05-22T14:27:43Z</time>
      </trkpt>
      <trkpt lat="48.67932" lon="7.25095">
        <ele>373.6</ele>
        <time>2020-05-22T14:27:45Z</time>
      </trkpt>
      <trkpt lat="48.67929" lon="7.25099">
        <ele>373.6</ele>
        <time>2020-05-22T14:27:47Z</time>
      </trkpt>
      <trkpt lat="48.67927" lon="7.25102">
        <ele>373.6</ele>
        <time>2020-05-22T14:27:49Z</time>
      </trkpt>
      <trkpt lat="48.67925" lon="7.25108">
        <ele>373.5</ele>
        <time>2020-05-22T14:27:51Z</time>
      </trkpt>
      <trkpt lat="48.67924" lon="7.25112">
        <ele>373.6</ele>
        <time>2020-05-22T14:27:53Z</time>
      </trkpt>
      <trkpt lat="48.67922" lon="7.25117">
        <ele>373.5</ele>
        <time>2020-05-22T14:27:55Z</time>
      </trkpt>
      <trkpt lat="48.6792" lon="7.25118">
        <ele>373.5</ele>
        <time>2020-05-22T14:27:56Z</time>
      </trkpt>
      <trkpt lat="48.67919" lon="7.2512">
        <ele>373.5</ele>
        <time>2020-05-22T14:27:57Z</time>
      </trkpt>
      <trkpt lat="48.67918" lon="7.25124">
        <ele>373.6</ele>
        <time>2020-05-22T14:27:59Z</time>
      </trkpt>
      <trkpt lat="48.67916" lon="7.25129">
        <ele>373.5</ele>
        <time>2020-05-22T14:28:01Z</time>
      </trkpt>
      <trkpt lat="48.67914" lon="7.25134">
        <ele>373.3</ele>
        <time>2020-05-22T14:28:03Z</time>
      </trkpt>
      <trkpt lat="48.67913" lon="7.25137">
        <ele>373.3</ele>
        <time>2020-05-22T14:28:05Z</time>
      </trkpt>
      <trkpt lat="48.67912" lon="7.25139">
        <ele>373.3</ele>
        <time>2020-05-22T14:28:06Z</time>
      </trkpt>
      <trkpt lat="48.67912" lon="7.2514">
        <ele>373.1</ele>
        <time>2020-05-22T14:28:07Z</time>
      </trkpt>
      <trkpt lat="48.6791" lon="7.25142">
        <ele>373</ele>
        <time>2020-05-22T14:28:09Z</time>
      </trkpt>
      <trkpt lat="48.67906" lon="7.25146">
        <ele>372.7</ele>
        <time>2020-05-22T14:28:11Z</time>
      </trkpt>
      <trkpt lat="48.67904" lon="7.25149">
        <ele>372.5</ele>
        <time>2020-05-22T14:28:12Z</time>
      </trkpt>
      <trkpt lat="48.67902" lon="7.25149">
        <ele>372.2</ele>
        <time>2020-05-22T14:28:13Z</time>
      </trkpt>
      <trkpt lat="48.67901" lon="7.25151">
        <ele>372.2</ele>
        <time>2020-05-22T14:28:14Z</time>
      </trkpt>
      <trkpt lat="48.67899" lon="7.25155">
        <ele>371.9</ele>
        <time>2020-05-22T14:28:16Z</time>
      </trkpt>
      <trkpt lat="48.67897" lon="7.25159">
        <ele>371.8</ele>
        <time>2020-05-22T14:28:18Z</time>
      </trkpt>
      <trkpt lat="48.67896" lon="7.25159">
        <ele>371.8</ele>
        <time>2020-05-22T14:28:19Z</time>
      </trkpt>
      <trkpt lat="48.67895" lon="7.2516">
        <ele>371.7</ele>
        <time>2020-05-22T14:28:20Z</time>
      </trkpt>
      <trkpt lat="48.67893" lon="7.25163">
        <ele>371.7</ele>
        <time>2020-05-22T14:28:22Z</time>
      </trkpt>
      <trkpt lat="48.67893" lon="7.25165">
        <ele>371.7</ele>
        <time>2020-05-22T14:28:23Z</time>
      </trkpt>
      <trkpt lat="48.6789" lon="7.25168">
        <ele>371.7</ele>
        <time>2020-05-22T14:28:25Z</time>
      </trkpt>
      <trkpt lat="48.67888" lon="7.25171">
        <ele>371.9</ele>
        <time>2020-05-22T14:28:27Z</time>
      </trkpt>
      <trkpt lat="48.67887" lon="7.25172">
        <ele>371.9</ele>
        <time>2020-05-22T14:28:28Z</time>
      </trkpt>
      <trkpt lat="48.67886" lon="7.25175">
        <ele>372</ele>
        <time>2020-05-22T14:28:29Z</time>
      </trkpt>
      <trkpt lat="48.67884" lon="7.25176">
        <ele>372.1</ele>
        <time>2020-05-22T14:28:30Z</time>
      </trkpt>
      <trkpt lat="48.67882" lon="7.25178">
        <ele>372.3</ele>
        <time>2020-05-22T14:28:32Z</time>
      </trkpt>
      <trkpt lat="48.67881" lon="7.2518">
        <ele>372.6</ele>
        <time>2020-05-22T14:28:33Z</time>
      </trkpt>
      <trkpt lat="48.6788" lon="7.25181">
        <ele>372.6</ele>
        <time>2020-05-22T14:28:34Z</time>
      </trkpt>
      <trkpt lat="48.67877" lon="7.25184">
        <ele>372.9</ele>
        <time>2020-05-22T14:28:35Z</time>
      </trkpt>
      <trkpt lat="48.67876" lon="7.25184">
        <ele>372.9</ele>
        <time>2020-05-22T14:28:36Z</time>
      </trkpt>
      <trkpt lat="48.67874" lon="7.25187">
        <ele>373.1</ele>
        <time>2020-05-22T14:28:38Z</time>
      </trkpt>
      <trkpt lat="48.67873" lon="7.25189">
        <ele>373.3</ele>
        <time>2020-05-22T14:28:39Z</time>
      </trkpt>
      <trkpt lat="48.67871" lon="7.25192">
        <ele>373.5</ele>
        <time>2020-05-22T14:28:41Z</time>
      </trkpt>
      <trkpt lat="48.67867" lon="7.25195">
        <ele>373.8</ele>
        <time>2020-05-22T14:28:43Z</time>
      </trkpt>
      <trkpt lat="48.67864" lon="7.25196">
        <ele>374</ele>
        <time>2020-05-22T14:28:45Z</time>
      </trkpt>
      <trkpt lat="48.6786" lon="7.25198">
        <ele>374.4</ele>
        <time>2020-05-22T14:28:47Z</time>
      </trkpt>
      <trkpt lat="48.6786" lon="7.25199">
        <ele>374.4</ele>
        <time>2020-05-22T14:28:48Z</time>
      </trkpt>
      <trkpt lat="48.67859" lon="7.252">
        <ele>374.4</ele>
        <time>2020-05-22T14:28:49Z</time>
      </trkpt>
      <trkpt lat="48.67858" lon="7.25201">
        <ele>374.5</ele>
        <time>2020-05-22T14:28:50Z</time>
      </trkpt>
      <trkpt lat="48.67855" lon="7.25205">
        <ele>374.8</ele>
        <time>2020-05-22T14:28:52Z</time>
      </trkpt>
      <trkpt lat="48.67853" lon="7.25206">
        <ele>374.9</ele>
        <time>2020-05-22T14:28:53Z</time>
      </trkpt>
      <trkpt lat="48.67852" lon="7.25208">
        <ele>375</ele>
        <time>2020-05-22T14:28:54Z</time>
      </trkpt>
      <trkpt lat="48.67848" lon="7.2521">
        <ele>375.2</ele>
        <time>2020-05-22T14:28:56Z</time>
      </trkpt>
      <trkpt lat="48.67846" lon="7.25214">
        <ele>375.5</ele>
        <time>2020-05-22T14:28:58Z</time>
      </trkpt>
      <trkpt lat="48.67844" lon="7.25216">
        <ele>375.5</ele>
        <time>2020-05-22T14:28:59Z</time>
      </trkpt>
      <trkpt lat="48.67841" lon="7.25218">
        <ele>375.8</ele>
        <time>2020-05-22T14:29:01Z</time>
      </trkpt>
      <trkpt lat="48.67837" lon="7.25219">
        <ele>376.1</ele>
        <time>2020-05-22T14:29:03Z</time>
      </trkpt>
      <trkpt lat="48.67836" lon="7.25221">
        <ele>376.1</ele>
        <time>2020-05-22T14:29:04Z</time>
      </trkpt>
      <trkpt lat="48.67832" lon="7.25222">
        <ele>376.4</ele>
        <time>2020-05-22T14:29:06Z</time>
      </trkpt>
      <trkpt lat="48.6783" lon="7.25223">
        <ele>376.4</ele>
        <time>2020-05-22T14:29:08Z</time>
      </trkpt>
      <trkpt lat="48.67829" lon="7.25224">
        <ele>376.4</ele>
        <time>2020-05-22T14:29:09Z</time>
      </trkpt>
      <trkpt lat="48.67826" lon="7.25226">
        <ele>376.4</ele>
        <time>2020-05-22T14:29:11Z</time>
      </trkpt>
      <trkpt lat="48.67825" lon="7.25227">
        <ele>376.5</ele>
        <time>2020-05-22T14:29:12Z</time>
      </trkpt>
      <trkpt lat="48.67823" lon="7.25228">
        <ele>376.5</ele>
        <time>2020-05-22T14:29:13Z</time>
      </trkpt>
      <trkpt lat="48.67821" lon="7.25229">
        <ele>376.5</ele>
        <time>2020-05-22T14:29:14Z</time>
      </trkpt>
      <trkpt lat="48.67819" lon="7.2523">
        <ele>376.4</ele>
        <time>2020-05-22T14:29:16Z</time>
      </trkpt>
      <trkpt lat="48.67818" lon="7.2523">
        <ele>376.3</ele>
        <time>2020-05-22T14:29:17Z</time>
      </trkpt>
      <trkpt lat="48.67814" lon="7.25232">
        <ele>376.4</ele>
        <time>2020-05-22T14:29:19Z</time>
      </trkpt>
      <trkpt lat="48.6781" lon="7.25233">
        <ele>376.3</ele>
        <time>2020-05-22T14:29:21Z</time>
      </trkpt>
      <trkpt lat="48.67809" lon="7.25234">
        <ele>376.3</ele>
        <time>2020-05-22T14:29:22Z</time>
      </trkpt>
      <trkpt lat="48.67808" lon="7.25234">
        <ele>376.3</ele>
        <time>2020-05-22T14:29:23Z</time>
      </trkpt>
      <trkpt lat="48.67804" lon="7.25236">
        <ele>376.4</ele>
        <time>2020-05-22T14:29:25Z</time>
      </trkpt>
      <trkpt lat="48.67803" lon="7.25236">
        <ele>376.5</ele>
        <time>2020-05-22T14:29:26Z</time>
      </trkpt>
      <trkpt lat="48.67801" lon="7.25236">
        <ele>376.5</ele>
        <time>2020-05-22T14:29:27Z</time>
      </trkpt>
      <trkpt lat="48.67798" lon="7.25237">
        <ele>376.6</ele>
        <time>2020-05-22T14:29:29Z</time>
      </trkpt>
      <trkpt lat="48.67796" lon="7.25238">
        <ele>376.6</ele>
        <time>2020-05-22T14:29:30Z</time>
      </trkpt>
      <trkpt lat="48.67793" lon="7.25239">
        <ele>376.7</ele>
        <time>2020-05-22T14:29:32Z</time>
      </trkpt>
      <trkpt lat="48.6779" lon="7.25241">
        <ele>377</ele>
        <time>2020-05-22T14:29:34Z</time>
      </trkpt>
      <trkpt lat="48.67787" lon="7.25242">
        <ele>377.2</ele>
        <time>2020-05-22T14:29:36Z</time>
      </trkpt>
      <trkpt lat="48.67786" lon="7.25243">
        <ele>377.6</ele>
        <time>2020-05-22T14:29:37Z</time>
      </trkpt>
      <trkpt lat="48.67782" lon="7.25244">
        <ele>378.1</ele>
        <time>2020-05-22T14:29:39Z</time>
      </trkpt>
      <trkpt lat="48.67781" lon="7.25245">
        <ele>378.6</ele>
        <time>2020-05-22T14:29:40Z</time>
      </trkpt>
      <trkpt lat="48.6778" lon="7.25245">
        <ele>378.6</ele>
        <time>2020-05-22T14:29:41Z</time>
      </trkpt>
      <trkpt lat="48.67777" lon="7.25247">
        <ele>379.1</ele>
        <time>2020-05-22T14:29:43Z</time>
      </trkpt>
      <trkpt lat="48.67772" lon="7.25248">
        <ele>380.3</ele>
        <time>2020-05-22T14:29:45Z</time>
      </trkpt>
      <trkpt lat="48.67769" lon="7.25248">
        <ele>380.9</ele>
        <time>2020-05-22T14:29:47Z</time>
      </trkpt>
      <trkpt lat="48.67766" lon="7.25249">
        <ele>381.3</ele>
        <time>2020-05-22T14:29:49Z</time>
      </trkpt>
      <trkpt lat="48.67764" lon="7.2525">
        <ele>381.3</ele>
        <time>2020-05-22T14:29:50Z</time>
      </trkpt>
      <trkpt lat="48.67763" lon="7.2525">
        <ele>381.8</ele>
        <time>2020-05-22T14:29:51Z</time>
      </trkpt>
      <trkpt lat="48.67759" lon="7.25253">
        <ele>382.1</ele>
        <time>2020-05-22T14:29:53Z</time>
      </trkpt>
      <trkpt lat="48.67756" lon="7.25254">
        <ele>383.2</ele>
        <time>2020-05-22T14:29:55Z</time>
      </trkpt>
      <trkpt lat="48.67754" lon="7.25254">
        <ele>383.2</ele>
        <time>2020-05-22T14:29:56Z</time>
      </trkpt>
      <trkpt lat="48.6775" lon="7.25256">
        <ele>384.5</ele>
        <time>2020-05-22T14:29:58Z</time>
      </trkpt>
      <trkpt lat="48.67747" lon="7.25257">
        <ele>384.7</ele>
        <time>2020-05-22T14:30:00Z</time>
      </trkpt>
      <trkpt lat="48.67743" lon="7.25259">
        <ele>385.3</ele>
        <time>2020-05-22T14:30:02Z</time>
      </trkpt>
      <trkpt lat="48.67741" lon="7.25262">
        <ele>385.4</ele>
        <time>2020-05-22T14:30:04Z</time>
      </trkpt>
      <trkpt lat="48.67739" lon="7.25264">
        <ele>385.4</ele>
        <time>2020-05-22T14:30:05Z</time>
      </trkpt>
      <trkpt lat="48.67738" lon="7.25266">
        <ele>385.4</ele>
        <time>2020-05-22T14:30:07Z</time>
      </trkpt>
      <trkpt lat="48.67736" lon="7.25268">
        <ele>385.4</ele>
        <time>2020-05-22T14:30:08Z</time>
      </trkpt>
      <trkpt lat="48.67734" lon="7.2527">
        <ele>385.3</ele>
        <time>2020-05-22T14:30:10Z</time>
      </trkpt>
      <trkpt lat="48.67733" lon="7.25271">
        <ele>385.8</ele>
        <time>2020-05-22T14:30:11Z</time>
      </trkpt>
      <trkpt lat="48.67729" lon="7.25273">
        <ele>386.3</ele>
        <time>2020-05-22T14:30:13Z</time>
      </trkpt>
      <trkpt lat="48.67725" lon="7.25275">
        <ele>386.4</ele>
        <time>2020-05-22T14:30:15Z</time>
      </trkpt>
      <trkpt lat="48.67723" lon="7.25277">
        <ele>387.1</ele>
        <time>2020-05-22T14:30:16Z</time>
      </trkpt>
      <trkpt lat="48.67721" lon="7.25279">
        <ele>387.3</ele>
        <time>2020-05-22T14:30:18Z</time>
      </trkpt>
      <trkpt lat="48.67718" lon="7.25281">
        <ele>388.1</ele>
        <time>2020-05-22T14:30:20Z</time>
      </trkpt>
      <trkpt lat="48.67716" lon="7.25282">
        <ele>388.8</ele>
        <time>2020-05-22T14:30:21Z</time>
      </trkpt>
      <trkpt lat="48.67713" lon="7.25285">
        <ele>389</ele>
        <time>2020-05-22T14:30:23Z</time>
      </trkpt>
      <trkpt lat="48.67711" lon="7.25289">
        <ele>388.6</ele>
        <time>2020-05-22T14:30:25Z</time>
      </trkpt>
      <trkpt lat="48.67709" lon="7.25291">
        <ele>388.8</ele>
        <time>2020-05-22T14:30:27Z</time>
      </trkpt>
      <trkpt lat="48.67708" lon="7.25293">
        <ele>389.5</ele>
        <time>2020-05-22T14:30:28Z</time>
      </trkpt>
      <trkpt lat="48.67704" lon="7.25296">
        <ele>389.7</ele>
        <time>2020-05-22T14:30:30Z</time>
      </trkpt>
      <trkpt lat="48.67701" lon="7.25298">
        <ele>390.4</ele>
        <time>2020-05-22T14:30:32Z</time>
      </trkpt>
      <trkpt lat="48.67697" lon="7.25301">
        <ele>390.6</ele>
        <time>2020-05-22T14:30:34Z</time>
      </trkpt>
      <trkpt lat="48.67695" lon="7.25305">
        <ele>390.9</ele>
        <time>2020-05-22T14:30:36Z</time>
      </trkpt>
      <trkpt lat="48.67694" lon="7.25306">
        <ele>390.9</ele>
        <time>2020-05-22T14:30:37Z</time>
      </trkpt>
      <trkpt lat="48.67693" lon="7.25309">
        <ele>391.2</ele>
        <time>2020-05-22T14:30:38Z</time>
      </trkpt>
      <trkpt lat="48.67691" lon="7.25313">
        <ele>391.5</ele>
        <time>2020-05-22T14:30:40Z</time>
      </trkpt>
      <trkpt lat="48.67689" lon="7.25315">
        <ele>391.5</ele>
        <time>2020-05-22T14:30:41Z</time>
      </trkpt>
      <trkpt lat="48.67688" lon="7.25316">
        <ele>391.5</ele>
        <time>2020-05-22T14:30:42Z</time>
      </trkpt>
      <trkpt lat="48.67685" lon="7.2532">
        <ele>392.6</ele>
        <time>2020-05-22T14:30:44Z</time>
      </trkpt>
      <trkpt lat="48.67684" lon="7.25321">
        <ele>392.2</ele>
        <time>2020-05-22T14:30:46Z</time>
      </trkpt>
      <trkpt lat="48.67684" lon="7.25323">
        <ele>392.2</ele>
        <time>2020-05-22T14:30:47Z</time>
      </trkpt>
      <trkpt lat="48.67683" lon="7.25325">
        <ele>392.2</ele>
        <time>2020-05-22T14:30:48Z</time>
      </trkpt>
      <trkpt lat="48.67681" lon="7.25328">
        <ele>392.4</ele>
        <time>2020-05-22T14:30:50Z</time>
      </trkpt>
      <trkpt lat="48.67679" lon="7.25329">
        <ele>392.9</ele>
        <time>2020-05-22T14:30:51Z</time>
      </trkpt>
      <trkpt lat="48.67677" lon="7.25332">
        <ele>392.5</ele>
        <time>2020-05-22T14:30:53Z</time>
      </trkpt>
      <trkpt lat="48.67674" lon="7.25336">
        <ele>393</ele>
        <time>2020-05-22T14:30:55Z</time>
      </trkpt>
      <trkpt lat="48.67673" lon="7.25337">
        <ele>393</ele>
        <time>2020-05-22T14:30:56Z</time>
      </trkpt>
      <trkpt lat="48.67671" lon="7.25339">
        <ele>392.5</ele>
        <time>2020-05-22T14:30:57Z</time>
      </trkpt>
      <trkpt lat="48.67667" lon="7.25343">
        <ele>393.1</ele>
        <time>2020-05-22T14:31:00Z</time>
      </trkpt>
      <trkpt lat="48.67664" lon="7.25346">
        <ele>393.6</ele>
        <time>2020-05-22T14:31:02Z</time>
      </trkpt>
      <trkpt lat="48.67663" lon="7.25348">
        <ele>393.2</ele>
        <time>2020-05-22T14:31:03Z</time>
      </trkpt>
      <trkpt lat="48.67662" lon="7.25349">
        <ele>393.7</ele>
        <time>2020-05-22T14:31:04Z</time>
      </trkpt>
      <trkpt lat="48.6766" lon="7.25352">
        <ele>393.4</ele>
        <time>2020-05-22T14:31:06Z</time>
      </trkpt>
      <trkpt lat="48.67659" lon="7.25355">
        <ele>393.8</ele>
        <time>2020-05-22T14:31:08Z</time>
      </trkpt>
      <trkpt lat="48.67656" lon="7.25357">
        <ele>394</ele>
        <time>2020-05-22T14:31:10Z</time>
      </trkpt>
      <trkpt lat="48.67654" lon="7.2536">
        <ele>394.2</ele>
        <time>2020-05-22T14:31:12Z</time>
      </trkpt>
      <trkpt lat="48.67652" lon="7.25361">
        <ele>394.2</ele>
        <time>2020-05-22T14:31:13Z</time>
      </trkpt>
      <trkpt lat="48.67651" lon="7.25362">
        <ele>394.2</ele>
        <time>2020-05-22T14:31:14Z</time>
      </trkpt>
      <trkpt lat="48.6765" lon="7.25363">
        <ele>394.7</ele>
        <time>2020-05-22T14:31:15Z</time>
      </trkpt>
      <trkpt lat="48.67648" lon="7.25367">
        <ele>395</ele>
        <time>2020-05-22T14:31:17Z</time>
      </trkpt>
      <trkpt lat="48.67647" lon="7.25369">
        <ele>394.7</ele>
        <time>2020-05-22T14:31:18Z</time>
      </trkpt>
      <trkpt lat="48.67645" lon="7.25372">
        <ele>395.3</ele>
        <time>2020-05-22T14:31:20Z</time>
      </trkpt>
      <trkpt lat="48.67644" lon="7.25374">
        <ele>395.3</ele>
        <time>2020-05-22T14:31:21Z</time>
      </trkpt>
      <trkpt lat="48.67642" lon="7.25378">
        <ele>395.7</ele>
        <time>2020-05-22T14:31:23Z</time>
      </trkpt>
      <trkpt lat="48.67641" lon="7.2538">
        <ele>395.7</ele>
        <time>2020-05-22T14:31:24Z</time>
      </trkpt>
      <trkpt lat="48.6764" lon="7.25382">
        <ele>395.4</ele>
        <time>2020-05-22T14:31:25Z</time>
      </trkpt>
      <trkpt lat="48.67639" lon="7.25383">
        <ele>396</ele>
        <time>2020-05-22T14:31:26Z</time>
      </trkpt>
      <trkpt lat="48.67638" lon="7.25385">
        <ele>396</ele>
        <time>2020-05-22T14:31:27Z</time>
      </trkpt>
      <trkpt lat="48.67634" lon="7.25389">
        <ele>396.3</ele>
        <time>2020-05-22T14:31:29Z</time>
      </trkpt>
      <trkpt lat="48.67634" lon="7.25391">
        <ele>396.6</ele>
        <time>2020-05-22T14:31:31Z</time>
      </trkpt>
      <trkpt lat="48.67634" lon="7.25393">
        <ele>396.6</ele>
        <time>2020-05-22T14:31:32Z</time>
      </trkpt>
      <trkpt lat="48.67633" lon="7.25395">
        <ele>396.3</ele>
        <time>2020-05-22T14:31:33Z</time>
      </trkpt>
      <trkpt lat="48.67632" lon="7.25396">
        <ele>396.3</ele>
        <time>2020-05-22T14:31:34Z</time>
      </trkpt>
      <trkpt lat="48.67628" lon="7.25399">
        <ele>397.2</ele>
        <time>2020-05-22T14:31:36Z</time>
      </trkpt>
      <trkpt lat="48.67627" lon="7.254">
        <ele>397.2</ele>
        <time>2020-05-22T14:31:37Z</time>
      </trkpt>
      <trkpt lat="48.67624" lon="7.25403">
        <ele>397.5</ele>
        <time>2020-05-22T14:31:39Z</time>
      </trkpt>
      <trkpt lat="48.67621" lon="7.25405">
        <ele>398</ele>
        <time>2020-05-22T14:31:41Z</time>
      </trkpt>
      <trkpt lat="48.67617" lon="7.25407">
        <ele>398.6</ele>
        <time>2020-05-22T14:31:43Z</time>
      </trkpt>
      <trkpt lat="48.67614" lon="7.25409">
        <ele>398.9</ele>
        <time>2020-05-22T14:31:45Z</time>
      </trkpt>
      <trkpt lat="48.67613" lon="7.2541">
        <ele>399.5</ele>
        <time>2020-05-22T14:31:46Z</time>
      </trkpt>
      <trkpt lat="48.6761" lon="7.25412">
        <ele>399.8</ele>
        <time>2020-05-22T14:31:48Z</time>
      </trkpt>
      <trkpt lat="48.67607" lon="7.25413">
        <ele>400.3</ele>
        <time>2020-05-22T14:31:50Z</time>
      </trkpt>
      <trkpt lat="48.67606" lon="7.25415">
        <ele>400.8</ele>
        <time>2020-05-22T14:31:51Z</time>
      </trkpt>
      <trkpt lat="48.67604" lon="7.25417">
        <ele>400.6</ele>
        <time>2020-05-22T14:31:53Z</time>
      </trkpt>
      <trkpt lat="48.67603" lon="7.25418">
        <ele>401</ele>
        <time>2020-05-22T14:31:54Z</time>
      </trkpt>
      <trkpt lat="48.67601" lon="7.2542">
        <ele>400.8</ele>
        <time>2020-05-22T14:31:55Z</time>
      </trkpt>
      <trkpt lat="48.67598" lon="7.25424">
        <ele>401</ele>
        <time>2020-05-22T14:31:57Z</time>
      </trkpt>
      <trkpt lat="48.67597" lon="7.25426">
        <ele>401.5</ele>
        <time>2020-05-22T14:31:59Z</time>
      </trkpt>
      <trkpt lat="48.67596" lon="7.25427">
        <ele>401.5</ele>
        <time>2020-05-22T14:32:00Z</time>
      </trkpt>
      <trkpt lat="48.67594" lon="7.2543">
        <ele>401.9</ele>
        <time>2020-05-22T14:32:01Z</time>
      </trkpt>
      <trkpt lat="48.67591" lon="7.25433">
        <ele>402.3</ele>
        <time>2020-05-22T14:32:03Z</time>
      </trkpt>
      <trkpt lat="48.67589" lon="7.25436">
        <ele>402.3</ele>
        <time>2020-05-22T14:32:05Z</time>
      </trkpt>
      <trkpt lat="48.67586" lon="7.25438">
        <ele>403.4</ele>
        <time>2020-05-22T14:32:07Z</time>
      </trkpt>
      <trkpt lat="48.67584" lon="7.2544">
        <ele>403.4</ele>
        <time>2020-05-22T14:32:08Z</time>
      </trkpt>
      <trkpt lat="48.67583" lon="7.25441">
        <ele>403.8</ele>
        <time>2020-05-22T14:32:09Z</time>
      </trkpt>
      <trkpt lat="48.6758" lon="7.25444">
        <ele>404.4</ele>
        <time>2020-05-22T14:32:11Z</time>
      </trkpt>
      <trkpt lat="48.67578" lon="7.25445">
        <ele>404.3</ele>
        <time>2020-05-22T14:32:12Z</time>
      </trkpt>
      <trkpt lat="48.67577" lon="7.25447">
        <ele>404.8</ele>
        <time>2020-05-22T14:32:13Z</time>
      </trkpt>
      <trkpt lat="48.67574" lon="7.25448">
        <ele>405.2</ele>
        <time>2020-05-22T14:32:15Z</time>
      </trkpt>
      <trkpt lat="48.67572" lon="7.25449">
        <ele>405.2</ele>
        <time>2020-05-22T14:32:16Z</time>
      </trkpt>
      <trkpt lat="48.6757" lon="7.2545">
        <ele>405.5</ele>
        <time>2020-05-22T14:32:17Z</time>
      </trkpt>
      <trkpt lat="48.67567" lon="7.25453">
        <ele>405.8</ele>
        <time>2020-05-22T14:32:19Z</time>
      </trkpt>
      <trkpt lat="48.67563" lon="7.25457">
        <ele>406.3</ele>
        <time>2020-05-22T14:32:21Z</time>
      </trkpt>
      <trkpt lat="48.67561" lon="7.25458">
        <ele>406.3</ele>
        <time>2020-05-22T14:32:23Z</time>
      </trkpt>
      <trkpt lat="48.6756" lon="7.25459">
        <ele>406.5</ele>
        <time>2020-05-22T14:32:24Z</time>
      </trkpt>
      <trkpt lat="48.67558" lon="7.25461">
        <ele>406.5</ele>
        <time>2020-05-22T14:32:25Z</time>
      </trkpt>
      <trkpt lat="48.67556" lon="7.25463">
        <ele>406.8</ele>
        <time>2020-05-22T14:32:26Z</time>
      </trkpt>
      <trkpt lat="48.67555" lon="7.25464">
        <ele>406.8</ele>
        <time>2020-05-22T14:32:27Z</time>
      </trkpt>
      <trkpt lat="48.67552" lon="7.25467">
        <ele>407.2</ele>
        <time>2020-05-22T14:32:29Z</time>
      </trkpt>
      <trkpt lat="48.67549" lon="7.2547">
        <ele>407.9</ele>
        <time>2020-05-22T14:32:31Z</time>
      </trkpt>
      <trkpt lat="48.67547" lon="7.2547">
        <ele>407.9</ele>
        <time>2020-05-22T14:32:32Z</time>
      </trkpt>
      <trkpt lat="48.67546" lon="7.25471">
        <ele>408.1</ele>
        <time>2020-05-22T14:32:33Z</time>
      </trkpt>
      <trkpt lat="48.67544" lon="7.25473">
        <ele>408.1</ele>
        <time>2020-05-22T14:32:35Z</time>
      </trkpt>
      <trkpt lat="48.67542" lon="7.25474">
        <ele>408.5</ele>
        <time>2020-05-22T14:32:36Z</time>
      </trkpt>
      <trkpt lat="48.67539" lon="7.25477">
        <ele>408.8</ele>
        <time>2020-05-22T14:32:38Z</time>
      </trkpt>
      <trkpt lat="48.67537" lon="7.2548">
        <ele>409.3</ele>
        <time>2020-05-22T14:32:40Z</time>
      </trkpt>
      <trkpt lat="48.67535" lon="7.25482">
        <ele>409.8</ele>
        <time>2020-05-22T14:32:42Z</time>
      </trkpt>
      <trkpt lat="48.67532" lon="7.25485">
        <ele>409.8</ele>
        <time>2020-05-22T14:32:44Z</time>
      </trkpt>
      <trkpt lat="48.67531" lon="7.25486">
        <ele>410.3</ele>
        <time>2020-05-22T14:32:45Z</time>
      </trkpt>
      <trkpt lat="48.6753" lon="7.25487">
        <ele>410.3</ele>
        <time>2020-05-22T14:32:46Z</time>
      </trkpt>
      <trkpt lat="48.67529" lon="7.2549">
        <ele>410.9</ele>
        <time>2020-05-22T14:32:48Z</time>
      </trkpt>
      <trkpt lat="48.67526" lon="7.25492">
        <ele>411.4</ele>
        <time>2020-05-22T14:32:50Z</time>
      </trkpt>
      <trkpt lat="48.67524" lon="7.25493">
        <ele>411.4</ele>
        <time>2020-05-22T14:32:51Z</time>
      </trkpt>
      <trkpt lat="48.67521" lon="7.25497">
        <ele>411.9</ele>
        <time>2020-05-22T14:32:53Z</time>
      </trkpt>
      <trkpt lat="48.67519" lon="7.25499">
        <ele>412.4</ele>
        <time>2020-05-22T14:32:54Z</time>
      </trkpt>
      <trkpt lat="48.67516" lon="7.25502">
        <ele>412.7</ele>
        <time>2020-05-22T14:32:56Z</time>
      </trkpt>
      <trkpt lat="48.67513" lon="7.25505">
        <ele>413.1</ele>
        <time>2020-05-22T14:32:58Z</time>
      </trkpt>
      <trkpt lat="48.67511" lon="7.25508">
        <ele>413.4</ele>
        <time>2020-05-22T14:33:00Z</time>
      </trkpt>
      <trkpt lat="48.67509" lon="7.25512">
        <ele>413.6</ele>
        <time>2020-05-22T14:33:02Z</time>
      </trkpt>
      <trkpt lat="48.67508" lon="7.25514">
        <ele>413.6</ele>
        <time>2020-05-22T14:33:03Z</time>
      </trkpt>
      <trkpt lat="48.67505" lon="7.25516">
        <ele>414</ele>
        <time>2020-05-22T14:33:05Z</time>
      </trkpt>
      <trkpt lat="48.67504" lon="7.25517">
        <ele>414</ele>
        <time>2020-05-22T14:33:06Z</time>
      </trkpt>
      <trkpt lat="48.67503" lon="7.25519">
        <ele>414.4</ele>
        <time>2020-05-22T14:33:07Z</time>
      </trkpt>
      <trkpt lat="48.67501" lon="7.25522">
        <ele>414.8</ele>
        <time>2020-05-22T14:33:09Z</time>
      </trkpt>
      <trkpt lat="48.67498" lon="7.25525">
        <ele>415.3</ele>
        <time>2020-05-22T14:33:11Z</time>
      </trkpt>
      <trkpt lat="48.67496" lon="7.25526">
        <ele>415.3</ele>
        <time>2020-05-22T14:33:12Z</time>
      </trkpt>
      <trkpt lat="48.67493" lon="7.25529">
        <ele>415.8</ele>
        <time>2020-05-22T14:33:14Z</time>
      </trkpt>
      <trkpt lat="48.67489" lon="7.25531">
        <ele>416.6</ele>
        <time>2020-05-22T14:33:16Z</time>
      </trkpt>
      <trkpt lat="48.67485" lon="7.25533">
        <ele>417.1</ele>
        <time>2020-05-22T14:33:18Z</time>
      </trkpt>
      <trkpt lat="48.67482" lon="7.25536">
        <ele>417.6</ele>
        <time>2020-05-22T14:33:20Z</time>
      </trkpt>
      <trkpt lat="48.67479" lon="7.2554">
        <ele>418.2</ele>
        <time>2020-05-22T14:33:22Z</time>
      </trkpt>
      <trkpt lat="48.67476" lon="7.25543">
        <ele>418.7</ele>
        <time>2020-05-22T14:33:24Z</time>
      </trkpt>
      <trkpt lat="48.67474" lon="7.25545">
        <ele>419.3</ele>
        <time>2020-05-22T14:33:25Z</time>
      </trkpt>
      <trkpt lat="48.67471" lon="7.25547">
        <ele>419.8</ele>
        <time>2020-05-22T14:33:27Z</time>
      </trkpt>
      <trkpt lat="48.6747" lon="7.25548">
        <ele>419.9</ele>
        <time>2020-05-22T14:33:28Z</time>
      </trkpt>
      <trkpt lat="48.67468" lon="7.25551">
        <ele>420.5</ele>
        <time>2020-05-22T14:33:30Z</time>
      </trkpt>
      <trkpt lat="48.67466" lon="7.25554">
        <ele>421.2</ele>
        <time>2020-05-22T14:33:32Z</time>
      </trkpt>
      <trkpt lat="48.67464" lon="7.25555">
        <ele>421.7</ele>
        <time>2020-05-22T14:33:34Z</time>
      </trkpt>
      <trkpt lat="48.67462" lon="7.25559">
        <ele>421.8</ele>
        <time>2020-05-22T14:33:36Z</time>
      </trkpt>
      <trkpt lat="48.67459" lon="7.25561">
        <ele>422.4</ele>
        <time>2020-05-22T14:33:38Z</time>
      </trkpt>
      <trkpt lat="48.67456" lon="7.25563">
        <ele>423</ele>
        <time>2020-05-22T14:33:40Z</time>
      </trkpt>
      <trkpt lat="48.67454" lon="7.25564">
        <ele>423.5</ele>
        <time>2020-05-22T14:33:41Z</time>
      </trkpt>
      <trkpt lat="48.67451" lon="7.25566">
        <ele>424.2</ele>
        <time>2020-05-22T14:33:43Z</time>
      </trkpt>
      <trkpt lat="48.6745" lon="7.25567">
        <ele>424.8</ele>
        <time>2020-05-22T14:33:44Z</time>
      </trkpt>
      <trkpt lat="48.67449" lon="7.25568">
        <ele>424.8</ele>
        <time>2020-05-22T14:33:45Z</time>
      </trkpt>
      <trkpt lat="48.67446" lon="7.2557">
        <ele>425.5</ele>
        <time>2020-05-22T14:33:47Z</time>
      </trkpt>
      <trkpt lat="48.67444" lon="7.25572">
        <ele>425.5</ele>
        <time>2020-05-22T14:33:48Z</time>
      </trkpt>
      <trkpt lat="48.67442" lon="7.25576">
        <ele>426.2</ele>
        <time>2020-05-22T14:33:50Z</time>
      </trkpt>
      <trkpt lat="48.6744" lon="7.25577">
        <ele>427</ele>
        <time>2020-05-22T14:33:51Z</time>
      </trkpt>
      <trkpt lat="48.67437" lon="7.25581">
        <ele>427.7</ele>
        <time>2020-05-22T14:33:53Z</time>
      </trkpt>
      <trkpt lat="48.67435" lon="7.25584">
        <ele>428.4</ele>
        <time>2020-05-22T14:33:55Z</time>
      </trkpt>
      <trkpt lat="48.67433" lon="7.25589">
        <ele>428.4</ele>
        <time>2020-05-22T14:33:57Z</time>
      </trkpt>
      <trkpt lat="48.67432" lon="7.25591">
        <ele>429.1</ele>
        <time>2020-05-22T14:33:58Z</time>
      </trkpt>
      <trkpt lat="48.6743" lon="7.25594">
        <ele>429.9</ele>
        <time>2020-05-22T14:34:00Z</time>
      </trkpt>
      <trkpt lat="48.67429" lon="7.25595">
        <ele>429.9</ele>
        <time>2020-05-22T14:34:01Z</time>
      </trkpt>
      <trkpt lat="48.67427" lon="7.25597">
        <ele>430.7</ele>
        <time>2020-05-22T14:34:02Z</time>
      </trkpt>
      <trkpt lat="48.67426" lon="7.25599">
        <ele>430.7</ele>
        <time>2020-05-22T14:34:04Z</time>
      </trkpt>
      <trkpt lat="48.67425" lon="7.25606">
        <ele>430.7</ele>
        <time>2020-05-22T14:34:06Z</time>
      </trkpt>
      <trkpt lat="48.67424" lon="7.25613">
        <ele>431.5</ele>
        <time>2020-05-22T14:34:08Z</time>
      </trkpt>
      <trkpt lat="48.67423" lon="7.25618">
        <ele>431.6</ele>
        <time>2020-05-22T14:34:09Z</time>
      </trkpt>
      <trkpt lat="48.67423" lon="7.25619">
        <ele>431.6</ele>
        <time>2020-05-22T14:34:10Z</time>
      </trkpt>
      <trkpt lat="48.67425" lon="7.25624">
        <ele>431</ele>
        <time>2020-05-22T14:34:11Z</time>
      </trkpt>
      <trkpt lat="48.67425" lon="7.25626">
        <ele>431</ele>
        <time>2020-05-22T14:34:12Z</time>
      </trkpt>
      <trkpt lat="48.67429" lon="7.2563">
        <ele>430.5</ele>
        <time>2020-05-22T14:34:14Z</time>
      </trkpt>
      <trkpt lat="48.6743" lon="7.25631">
        <ele>430.7</ele>
        <time>2020-05-22T14:34:15Z</time>
      </trkpt>
      <trkpt lat="48.67433" lon="7.25633">
        <ele>429.6</ele>
        <time>2020-05-22T14:34:17Z</time>
      </trkpt>
      <trkpt lat="48.67435" lon="7.25634">
        <ele>429.6</ele>
        <time>2020-05-22T14:34:19Z</time>
      </trkpt>
      <trkpt lat="48.67439" lon="7.25634">
        <ele>428.7</ele>
        <time>2020-05-22T14:34:21Z</time>
      </trkpt>
      <trkpt lat="48.67442" lon="7.25635">
        <ele>428.1</ele>
        <time>2020-05-22T14:34:23Z</time>
      </trkpt>
      <trkpt lat="48.67445" lon="7.25634">
        <ele>427.2</ele>
        <time>2020-05-22T14:34:25Z</time>
      </trkpt>
      <trkpt lat="48.67447" lon="7.25634">
        <ele>427.6</ele>
        <time>2020-05-22T14:34:27Z</time>
      </trkpt>
      <trkpt lat="48.67449" lon="7.25635">
        <ele>427</ele>
        <time>2020-05-22T14:34:29Z</time>
      </trkpt>
      <trkpt lat="48.67451" lon="7.25637">
        <ele>426.5</ele>
        <time>2020-05-22T14:34:30Z</time>
      </trkpt>
      <trkpt lat="48.67454" lon="7.2564">
        <ele>426.5</ele>
        <time>2020-05-22T14:34:32Z</time>
      </trkpt>
      <trkpt lat="48.67456" lon="7.25642">
        <ele>426.5</ele>
        <time>2020-05-22T14:34:33Z</time>
      </trkpt>
      <trkpt lat="48.67458" lon="7.25643">
        <ele>426.7</ele>
        <time>2020-05-22T14:34:35Z</time>
      </trkpt>
      <trkpt lat="48.6746" lon="7.25645">
        <ele>426.4</ele>
        <time>2020-05-22T14:34:37Z</time>
      </trkpt>
      <trkpt lat="48.67463" lon="7.25646">
        <ele>426</ele>
        <time>2020-05-22T14:34:39Z</time>
      </trkpt>
      <trkpt lat="48.67466" lon="7.25649">
        <ele>426.4</ele>
        <time>2020-05-22T14:34:41Z</time>
      </trkpt>
      <trkpt lat="48.67469" lon="7.25651">
        <ele>426.9</ele>
        <time>2020-05-22T14:34:43Z</time>
      </trkpt>
      <trkpt lat="48.67473" lon="7.25654">
        <ele>426.5</ele>
        <time>2020-05-22T14:34:45Z</time>
      </trkpt>
      <trkpt lat="48.67474" lon="7.25656">
        <ele>426.5</ele>
        <time>2020-05-22T14:34:46Z</time>
      </trkpt>
      <trkpt lat="48.67477" lon="7.25659">
        <ele>427.2</ele>
        <time>2020-05-22T14:34:48Z</time>
      </trkpt>
      <trkpt lat="48.67479" lon="7.25663">
        <ele>428</ele>
        <time>2020-05-22T14:34:50Z</time>
      </trkpt>
      <trkpt lat="48.6748" lon="7.25664">
        <ele>428</ele>
        <time>2020-05-22T14:34:51Z</time>
      </trkpt>
      <trkpt lat="48.67482" lon="7.25667">
        <ele>428.9</ele>
        <time>2020-05-22T14:34:53Z</time>
      </trkpt>
      <trkpt lat="48.67485" lon="7.25668">
        <ele>428.9</ele>
        <time>2020-05-22T14:34:55Z</time>
      </trkpt>
      <trkpt lat="48.67488" lon="7.25671">
        <ele>430</ele>
        <time>2020-05-22T14:34:57Z</time>
      </trkpt>
      <trkpt lat="48.67491" lon="7.25675">
        <ele>431.2</ele>
        <time>2020-05-22T14:34:59Z</time>
      </trkpt>
      <trkpt lat="48.67493" lon="7.25677">
        <ele>431.3</ele>
        <time>2020-05-22T14:35:00Z</time>
      </trkpt>
      <trkpt lat="48.67494" lon="7.25678">
        <ele>432.4</ele>
        <time>2020-05-22T14:35:01Z</time>
      </trkpt>
      <trkpt lat="48.67495" lon="7.25679">
        <ele>432.4</ele>
        <time>2020-05-22T14:35:02Z</time>
      </trkpt>
      <trkpt lat="48.67498" lon="7.25684">
        <ele>433.9</ele>
        <time>2020-05-22T14:35:04Z</time>
      </trkpt>
      <trkpt lat="48.675" lon="7.25686">
        <ele>435.1</ele>
        <time>2020-05-22T14:35:05Z</time>
      </trkpt>
      <trkpt lat="48.67503" lon="7.25689">
        <ele>435.4</ele>
        <time>2020-05-22T14:35:07Z</time>
      </trkpt>
      <trkpt lat="48.67505" lon="7.25691">
        <ele>436.8</ele>
        <time>2020-05-22T14:35:09Z</time>
      </trkpt>
      <trkpt lat="48.67509" lon="7.25694">
        <ele>437.1</ele>
        <time>2020-05-22T14:35:11Z</time>
      </trkpt>
      <trkpt lat="48.67512" lon="7.25696">
        <ele>438.6</ele>
        <time>2020-05-22T14:35:13Z</time>
      </trkpt>
      <trkpt lat="48.67515" lon="7.25697">
        <ele>439.1</ele>
        <time>2020-05-22T14:35:15Z</time>
      </trkpt>
      <trkpt lat="48.67518" lon="7.25698">
        <ele>439.4</ele>
        <time>2020-05-22T14:35:17Z</time>
      </trkpt>
      <trkpt lat="48.67521" lon="7.257">
        <ele>440.8</ele>
        <time>2020-05-22T14:35:18Z</time>
      </trkpt>
      <trkpt lat="48.67524" lon="7.25701">
        <ele>441</ele>
        <time>2020-05-22T14:35:20Z</time>
      </trkpt>
      <trkpt lat="48.67526" lon="7.25701">
        <ele>441</ele>
        <time>2020-05-22T14:35:21Z</time>
      </trkpt>
      <trkpt lat="48.67526" lon="7.25702">
        <ele>441</ele>
        <time>2020-05-22T14:35:23Z</time>
      </trkpt>
      <trkpt lat="48.67528" lon="7.25705">
        <ele>442.4</ele>
        <time>2020-05-22T14:35:25Z</time>
      </trkpt>
      <trkpt lat="48.67529" lon="7.25705">
        <ele>442.6</ele>
        <time>2020-05-22T14:35:26Z</time>
      </trkpt>
      <trkpt lat="48.67531" lon="7.25705">
        <ele>442.6</ele>
        <time>2020-05-22T14:35:27Z</time>
      </trkpt>
      <trkpt lat="48.67534" lon="7.25706">
        <ele>442.9</ele>
        <time>2020-05-22T14:35:29Z</time>
      </trkpt>
      <trkpt lat="48.67536" lon="7.25706">
        <ele>443.1</ele>
        <time>2020-05-22T14:35:30Z</time>
      </trkpt>
      <trkpt lat="48.67537" lon="7.25706">
        <ele>443.1</ele>
        <time>2020-05-22T14:35:31Z</time>
      </trkpt>
      <trkpt lat="48.6754" lon="7.25705">
        <ele>443.4</ele>
        <time>2020-05-22T14:35:33Z</time>
      </trkpt>
      <trkpt lat="48.67543" lon="7.25706">
        <ele>443.9</ele>
        <time>2020-05-22T14:35:35Z</time>
      </trkpt>
      <trkpt lat="48.67545" lon="7.25706">
        <ele>443.9</ele>
        <time>2020-05-22T14:35:36Z</time>
      </trkpt>
      <trkpt lat="48.67547" lon="7.25707">
        <ele>444.2</ele>
        <time>2020-05-22T14:35:37Z</time>
      </trkpt>
      <trkpt lat="48.67548" lon="7.25708">
        <ele>445.4</ele>
        <time>2020-05-22T14:35:38Z</time>
      </trkpt>
      <trkpt lat="48.67549" lon="7.25709">
        <ele>445.8</ele>
        <time>2020-05-22T14:35:39Z</time>
      </trkpt>
      <trkpt lat="48.67552" lon="7.2571">
        <ele>445.8</ele>
        <time>2020-05-22T14:35:41Z</time>
      </trkpt>
      <trkpt lat="48.67552" lon="7.2571">
        <ele>446.1</ele>
        <time>2020-05-22T14:35:42Z</time>
      </trkpt>
      <trkpt lat="48.67552" lon="7.25711">
        <ele>446.1</ele>
        <time>2020-05-22T14:35:44Z</time>
      </trkpt>
      <trkpt lat="48.67553" lon="7.25711">
        <ele>446.1</ele>
        <time>2020-05-22T14:35:45Z</time>
      </trkpt>
      <trkpt lat="48.67553" lon="7.25711">
        <ele>446.1</ele>
        <time>2020-05-22T14:35:47Z</time>
      </trkpt>
      <trkpt lat="48.67554" lon="7.25711">
        <ele>446.1</ele>
        <time>2020-05-22T14:35:48Z</time>
      </trkpt>
      <trkpt lat="48.67554" lon="7.25712">
        <ele>447.4</ele>
        <time>2020-05-22T14:35:49Z</time>
      </trkpt>
      <trkpt lat="48.67555" lon="7.25712">
        <ele>447.7</ele>
        <time>2020-05-22T14:35:50Z</time>
      </trkpt>
      <trkpt lat="48.67555" lon="7.25712">
        <ele>447.7</ele>
        <time>2020-05-22T14:35:52Z</time>
      </trkpt>
      <trkpt lat="48.67556" lon="7.25712">
        <ele>447.7</ele>
        <time>2020-05-22T14:35:53Z</time>
      </trkpt>
      <trkpt lat="48.67556" lon="7.25712">
        <ele>447.7</ele>
        <time>2020-05-22T14:35:55Z</time>
      </trkpt>
      <trkpt lat="48.67557" lon="7.25713">
        <ele>447.7</ele>
        <time>2020-05-22T14:35:57Z</time>
      </trkpt>
      <trkpt lat="48.67557" lon="7.25713">
        <ele>447.7</ele>
        <time>2020-05-22T14:35:58Z</time>
      </trkpt>
      <trkpt lat="48.67558" lon="7.25713">
        <ele>448.1</ele>
        <time>2020-05-22T14:36:00Z</time>
      </trkpt>
      <trkpt lat="48.67558" lon="7.25713">
        <ele>448.1</ele>
        <time>2020-05-22T14:36:02Z</time>
      </trkpt>
      <trkpt lat="48.67559" lon="7.25714">
        <ele>448.1</ele>
        <time>2020-05-22T14:36:03Z</time>
      </trkpt>
      <trkpt lat="48.67559" lon="7.25714">
        <ele>448.1</ele>
        <time>2020-05-22T14:36:04Z</time>
      </trkpt>
      <trkpt lat="48.6756" lon="7.25714">
        <ele>448.1</ele>
        <time>2020-05-22T14:36:06Z</time>
      </trkpt>
      <trkpt lat="48.6756" lon="7.25714">
        <ele>448.1</ele>
        <time>2020-05-22T14:36:08Z</time>
      </trkpt>
      <trkpt lat="48.67561" lon="7.25715">
        <ele>448.4</ele>
        <time>2020-05-22T14:36:10Z</time>
      </trkpt>
      <trkpt lat="48.67561" lon="7.25715">
        <ele>448.4</ele>
        <time>2020-05-22T14:36:12Z</time>
      </trkpt>
      <trkpt lat="48.67562" lon="7.25715">
        <ele>448.4</ele>
        <time>2020-05-22T14:36:13Z</time>
      </trkpt>
      <trkpt lat="48.67562" lon="7.25715">
        <ele>448.4</ele>
        <time>2020-05-22T14:36:15Z</time>
      </trkpt>
      <trkpt lat="48.67563" lon="7.25715">
        <ele>448.4</ele>
        <time>2020-05-22T14:36:16Z</time>
      </trkpt>
      <trkpt lat="48.67563" lon="7.25716">
        <ele>448.4</ele>
        <time>2020-05-22T14:36:18Z</time>
      </trkpt>
      <trkpt lat="48.67564" lon="7.25716">
        <ele>449.8</ele>
        <time>2020-05-22T14:36:20Z</time>
      </trkpt>
      <trkpt lat="48.67564" lon="7.25716">
        <ele>449.8</ele>
        <time>2020-05-22T14:37:26Z</time>
      </trkpt>
      <trkpt lat="48.67565" lon="7.25716">
        <ele>449.8</ele>
        <time>2020-05-22T14:37:27Z</time>
      </trkpt>
      <trkpt lat="48.67565" lon="7.25717">
        <ele>449.8</ele>
        <time>2020-05-22T14:37:28Z</time>
      </trkpt>
      <trkpt lat="48.67567" lon="7.25718">
        <ele>450.1</ele>
        <time>2020-05-22T14:37:30Z</time>
      </trkpt>
      <trkpt lat="48.67569" lon="7.25718">
        <ele>450.1</ele>
        <time>2020-05-22T14:37:32Z</time>
      </trkpt>
      <trkpt lat="48.6757" lon="7.25719">
        <ele>450.3</ele>
        <time>2020-05-22T14:37:33Z</time>
      </trkpt>
      <trkpt lat="48.67571" lon="7.2572">
        <ele>451.2</ele>
        <time>2020-05-22T14:37:34Z</time>
      </trkpt>
      <trkpt lat="48.67574" lon="7.25721">
        <ele>451.4</ele>
        <time>2020-05-22T14:37:36Z</time>
      </trkpt>
      <trkpt lat="48.67577" lon="7.25721">
        <ele>451.5</ele>
        <time>2020-05-22T14:37:38Z</time>
      </trkpt>
      <trkpt lat="48.67579" lon="7.25723">
        <ele>451.7</ele>
        <time>2020-05-22T14:37:40Z</time>
      </trkpt>
      <trkpt lat="48.67581" lon="7.25724">
        <ele>452.5</ele>
        <time>2020-05-22T14:37:41Z</time>
      </trkpt>
      <trkpt lat="48.67582" lon="7.25725">
        <ele>452.5</ele>
        <time>2020-05-22T14:37:42Z</time>
      </trkpt>
      <trkpt lat="48.67583" lon="7.25726">
        <ele>452.6</ele>
        <time>2020-05-22T14:37:43Z</time>
      </trkpt>
      <trkpt lat="48.67586" lon="7.25727">
        <ele>452.6</ele>
        <time>2020-05-22T14:37:45Z</time>
      </trkpt>
      <trkpt lat="48.67587" lon="7.25728">
        <ele>452.7</ele>
        <time>2020-05-22T14:37:46Z</time>
      </trkpt>
      <trkpt lat="48.67588" lon="7.25729">
        <ele>453.4</ele>
        <time>2020-05-22T14:37:47Z</time>
      </trkpt>
      <trkpt lat="48.67591" lon="7.25731">
        <ele>453.4</ele>
        <time>2020-05-22T14:37:49Z</time>
      </trkpt>
      <trkpt lat="48.67592" lon="7.25731">
        <ele>453.4</ele>
        <time>2020-05-22T14:37:50Z</time>
      </trkpt>
      <trkpt lat="48.67595" lon="7.25732">
        <ele>453.5</ele>
        <time>2020-05-22T14:37:52Z</time>
      </trkpt>
      <trkpt lat="48.67596" lon="7.25733">
        <ele>453.5</ele>
        <time>2020-05-22T14:37:53Z</time>
      </trkpt>
      <trkpt lat="48.67598" lon="7.25733">
        <ele>454.1</ele>
        <time>2020-05-22T14:37:55Z</time>
      </trkpt>
      <trkpt lat="48.67599" lon="7.25734">
        <ele>454.1</ele>
        <time>2020-05-22T14:37:56Z</time>
      </trkpt>
      <trkpt lat="48.676" lon="7.25735">
        <ele>454.1</ele>
        <time>2020-05-22T14:37:57Z</time>
      </trkpt>
      <trkpt lat="48.67603" lon="7.25737">
        <ele>454.8</ele>
        <time>2020-05-22T14:37:59Z</time>
      </trkpt>
      <trkpt lat="48.67603" lon="7.25737">
        <ele>454.8</ele>
        <time>2020-05-22T14:38:00Z</time>
      </trkpt>
      <trkpt lat="48.67605" lon="7.25738">
        <ele>454.8</ele>
        <time>2020-05-22T14:38:01Z</time>
      </trkpt>
      <trkpt lat="48.67607" lon="7.25738">
        <ele>454.9</ele>
        <time>2020-05-22T14:38:03Z</time>
      </trkpt>
      <trkpt lat="48.67608" lon="7.25738">
        <ele>454.9</ele>
        <time>2020-05-22T14:38:04Z</time>
      </trkpt>
      <trkpt lat="48.67611" lon="7.25738">
        <ele>454.9</ele>
        <time>2020-05-22T14:38:06Z</time>
      </trkpt>
      <trkpt lat="48.67614" lon="7.25738">
        <ele>455</ele>
        <time>2020-05-22T14:38:08Z</time>
      </trkpt>
      <trkpt lat="48.67618" lon="7.25738">
        <ele>455</ele>
        <time>2020-05-22T14:38:10Z</time>
      </trkpt>
      <trkpt lat="48.67621" lon="7.25739">
        <ele>455</ele>
        <time>2020-05-22T14:38:12Z</time>
      </trkpt>
      <trkpt lat="48.67624" lon="7.2574">
        <ele>455</ele>
        <time>2020-05-22T14:38:14Z</time>
      </trkpt>
      <trkpt lat="48.67626" lon="7.25741">
        <ele>455</ele>
        <time>2020-05-22T14:38:15Z</time>
      </trkpt>
      <trkpt lat="48.67629" lon="7.25743">
        <ele>455.6</ele>
        <time>2020-05-22T14:38:17Z</time>
      </trkpt>
      <trkpt lat="48.67631" lon="7.25744">
        <ele>455.6</ele>
        <time>2020-05-22T14:38:18Z</time>
      </trkpt>
      <trkpt lat="48.67634" lon="7.25745">
        <ele>455.5</ele>
        <time>2020-05-22T14:38:20Z</time>
      </trkpt>
      <trkpt lat="48.67636" lon="7.25746">
        <ele>455.5</ele>
        <time>2020-05-22T14:38:21Z</time>
      </trkpt>
      <trkpt lat="48.67639" lon="7.25746">
        <ele>456.1</ele>
        <time>2020-05-22T14:38:23Z</time>
      </trkpt>
      <trkpt lat="48.67641" lon="7.25746">
        <ele>456</ele>
        <time>2020-05-22T14:38:24Z</time>
      </trkpt>
      <trkpt lat="48.67644" lon="7.25748">
        <ele>455.9</ele>
        <time>2020-05-22T14:38:26Z</time>
      </trkpt>
      <trkpt lat="48.67647" lon="7.2575">
        <ele>455.8</ele>
        <time>2020-05-22T14:38:28Z</time>
      </trkpt>
      <trkpt lat="48.67652" lon="7.25754">
        <ele>456.4</ele>
        <time>2020-05-22T14:38:30Z</time>
      </trkpt>
      <trkpt lat="48.67655" lon="7.25757">
        <ele>457.1</ele>
        <time>2020-05-22T14:38:32Z</time>
      </trkpt>
      <trkpt lat="48.67659" lon="7.25759">
        <ele>457.7</ele>
        <time>2020-05-22T14:38:34Z</time>
      </trkpt>
      <trkpt lat="48.6766" lon="7.2576">
        <ele>457.6</ele>
        <time>2020-05-22T14:38:35Z</time>
      </trkpt>
      <trkpt lat="48.67663" lon="7.25761">
        <ele>457.5</ele>
        <time>2020-05-22T14:38:37Z</time>
      </trkpt>
      <trkpt lat="48.67665" lon="7.25761">
        <ele>457.5</ele>
        <time>2020-05-22T14:38:38Z</time>
      </trkpt>
      <trkpt lat="48.67668" lon="7.25762">
        <ele>457.4</ele>
        <time>2020-05-22T14:38:40Z</time>
      </trkpt>
      <trkpt lat="48.67669" lon="7.25762">
        <ele>457.2</ele>
        <time>2020-05-22T14:38:41Z</time>
      </trkpt>
      <trkpt lat="48.67673" lon="7.25762">
        <ele>457.1</ele>
        <time>2020-05-22T14:38:43Z</time>
      </trkpt>
      <trkpt lat="48.67673" lon="7.25761">
        <ele>457.1</ele>
        <time>2020-05-22T14:38:45Z</time>
      </trkpt>
      <trkpt lat="48.67675" lon="7.2576">
        <ele>457</ele>
        <time>2020-05-22T14:38:47Z</time>
      </trkpt>
      <trkpt lat="48.67676" lon="7.25761">
        <ele>457</ele>
        <time>2020-05-22T14:38:49Z</time>
      </trkpt>
      <trkpt lat="48.67677" lon="7.25762">
        <ele>456.8</ele>
        <time>2020-05-22T14:38:50Z</time>
      </trkpt>
      <trkpt lat="48.67679" lon="7.25765">
        <ele>457.5</ele>
        <time>2020-05-22T14:38:52Z</time>
      </trkpt>
      <trkpt lat="48.67681" lon="7.25769">
        <ele>458.1</ele>
        <time>2020-05-22T14:38:54Z</time>
      </trkpt>
      <trkpt lat="48.67681" lon="7.2577">
        <ele>458.1</ele>
        <time>2020-05-22T14:38:55Z</time>
      </trkpt>
      <trkpt lat="48.67681" lon="7.25774">
        <ele>458.7</ele>
        <time>2020-05-22T14:38:57Z</time>
      </trkpt>
      <trkpt lat="48.6768" lon="7.25776">
        <ele>459.4</ele>
        <time>2020-05-22T14:38:58Z</time>
      </trkpt>
      <trkpt lat="48.67681" lon="7.2578">
        <ele>459.4</ele>
        <time>2020-05-22T14:39:00Z</time>
      </trkpt>
      <trkpt lat="48.6768" lon="7.25782">
        <ele>460.1</ele>
        <time>2020-05-22T14:39:02Z</time>
      </trkpt>
      <trkpt lat="48.67679" lon="7.25784">
        <ele>460.1</ele>
        <time>2020-05-22T14:39:03Z</time>
      </trkpt>
      <trkpt lat="48.67678" lon="7.25785">
        <ele>460.8</ele>
        <time>2020-05-22T14:39:04Z</time>
      </trkpt>
      <trkpt lat="48.67676" lon="7.25787">
        <ele>460.9</ele>
        <time>2020-05-22T14:39:06Z</time>
      </trkpt>
      <trkpt lat="48.67675" lon="7.25788">
        <ele>460.9</ele>
        <time>2020-05-22T14:39:07Z</time>
      </trkpt>
      <trkpt lat="48.67673" lon="7.25789">
        <ele>461.6</ele>
        <time>2020-05-22T14:39:09Z</time>
      </trkpt>
      <trkpt lat="48.67671" lon="7.25789">
        <ele>461.6</ele>
        <time>2020-05-22T14:39:11Z</time>
      </trkpt>
      <trkpt lat="48.6767" lon="7.25789">
        <ele>461.6</ele>
        <time>2020-05-22T14:39:12Z</time>
      </trkpt>
      <trkpt lat="48.67669" lon="7.2579">
        <ele>461.6</ele>
        <time>2020-05-22T14:39:14Z</time>
      </trkpt>
      <trkpt lat="48.67666" lon="7.2579">
        <ele>461.7</ele>
        <time>2020-05-22T14:39:16Z</time>
      </trkpt>
      <trkpt lat="48.67665" lon="7.2579">
        <ele>461.7</ele>
        <time>2020-05-22T14:39:18Z</time>
      </trkpt>
      <trkpt lat="48.67665" lon="7.2579">
        <ele>461.7</ele>
        <time>2020-05-22T14:39:19Z</time>
      </trkpt>
      <trkpt lat="48.67666" lon="7.25791">
        <ele>461.7</ele>
        <time>2020-05-22T14:39:21Z</time>
      </trkpt>
      <trkpt lat="48.67667" lon="7.25792">
        <ele>461.7</ele>
        <time>2020-05-22T14:39:22Z</time>
      </trkpt>
      <trkpt lat="48.67667" lon="7.25792">
        <ele>461.7</ele>
        <time>2020-05-22T14:39:23Z</time>
      </trkpt>
      <trkpt lat="48.67667" lon="7.25792">
        <ele>461.7</ele>
        <time>2020-05-22T14:39:25Z</time>
      </trkpt>
      <trkpt lat="48.67667" lon="7.25792">
        <ele>461.7</ele>
        <time>2020-05-22T14:39:26Z</time>
      </trkpt>
      <trkpt lat="48.67667" lon="7.25792">
        <ele>461.7</ele>
        <time>2020-05-22T14:39:28Z</time>
      </trkpt>
      <trkpt lat="48.67667" lon="7.25792">
        <ele>461.7</ele>
        <time>2020-05-22T14:39:29Z</time>
      </trkpt>
      <trkpt lat="48.67667" lon="7.25792">
        <ele>461.7</ele>
        <time>2020-05-22T14:39:31Z</time>
      </trkpt>
      <trkpt lat="48.67666" lon="7.25792">
        <ele>461.7</ele>
        <time>2020-05-22T14:39:33Z</time>
      </trkpt>
      <trkpt lat="48.67661" lon="7.25793">
        <ele>461.7</ele>
        <time>2020-05-22T14:39:59Z</time>
      </trkpt>
      <trkpt lat="48.6766" lon="7.25793">
        <ele>461.7</ele>
        <time>2020-05-22T14:40:00Z</time>
      </trkpt>
      <trkpt lat="48.67659" lon="7.25793">
        <ele>461.8</ele>
        <time>2020-05-22T14:40:01Z</time>
      </trkpt>
      <trkpt lat="48.67657" lon="7.25794">
        <ele>462.4</ele>
        <time>2020-05-22T14:40:02Z</time>
      </trkpt>
      <trkpt lat="48.67657" lon="7.25794">
        <ele>462.4</ele>
        <time>2020-05-22T14:40:03Z</time>
      </trkpt>
      <trkpt lat="48.67654" lon="7.25796">
        <ele>462.4</ele>
        <time>2020-05-22T14:40:05Z</time>
      </trkpt>
      <trkpt lat="48.67652" lon="7.25795">
        <ele>462.4</ele>
        <time>2020-05-22T14:40:06Z</time>
      </trkpt>
      <trkpt lat="48.6765" lon="7.25795">
        <ele>462.5</ele>
        <time>2020-05-22T14:40:07Z</time>
      </trkpt>
      <trkpt lat="48.67646" lon="7.25796">
        <ele>462.5</ele>
        <time>2020-05-22T14:40:09Z</time>
      </trkpt>
      <trkpt lat="48.67645" lon="7.25796">
        <ele>462.5</ele>
        <time>2020-05-22T14:40:10Z</time>
      </trkpt>
      <trkpt lat="48.67641" lon="7.25796">
        <ele>462.4</ele>
        <time>2020-05-22T14:40:12Z</time>
      </trkpt>
      <trkpt lat="48.6764" lon="7.25797">
        <ele>462.4</ele>
        <time>2020-05-22T14:40:13Z</time>
      </trkpt>
      <trkpt lat="48.67638" lon="7.25798">
        <ele>462.4</ele>
        <time>2020-05-22T14:40:14Z</time>
      </trkpt>
      <trkpt lat="48.67636" lon="7.258">
        <ele>462.3</ele>
        <time>2020-05-22T14:40:16Z</time>
      </trkpt>
      <trkpt lat="48.67634" lon="7.25801">
        <ele>462.3</ele>
        <time>2020-05-22T14:40:17Z</time>
      </trkpt>
      <trkpt lat="48.67631" lon="7.25803">
        <ele>462.2</ele>
        <time>2020-05-22T14:40:19Z</time>
      </trkpt>
      <trkpt lat="48.67627" lon="7.25804">
        <ele>462.2</ele>
        <time>2020-05-22T14:40:21Z</time>
      </trkpt>
      <trkpt lat="48.67626" lon="7.25804">
        <ele>462.2</ele>
        <time>2020-05-22T14:40:22Z</time>
      </trkpt>
      <trkpt lat="48.67622" lon="7.25805">
        <ele>462.1</ele>
        <time>2020-05-22T14:40:24Z</time>
      </trkpt>
      <trkpt lat="48.67618" lon="7.25807">
        <ele>462</ele>
        <time>2020-05-22T14:40:26Z</time>
      </trkpt>
      <trkpt lat="48.67617" lon="7.25808">
        <ele>462</ele>
        <time>2020-05-22T14:40:27Z</time>
      </trkpt>
      <trkpt lat="48.67614" lon="7.25809">
        <ele>461.9</ele>
        <time>2020-05-22T14:40:29Z</time>
      </trkpt>
      <trkpt lat="48.67612" lon="7.25811">
        <ele>461.9</ele>
        <time>2020-05-22T14:40:31Z</time>
      </trkpt>
      <trkpt lat="48.6761" lon="7.25813">
        <ele>461.9</ele>
        <time>2020-05-22T14:40:33Z</time>
      </trkpt>
      <trkpt lat="48.67608" lon="7.25815">
        <ele>461.8</ele>
        <time>2020-05-22T14:40:35Z</time>
      </trkpt>
      <trkpt lat="48.67605" lon="7.25817">
        <ele>461.8</ele>
        <time>2020-05-22T14:40:37Z</time>
      </trkpt>
      <trkpt lat="48.67602" lon="7.25818">
        <ele>461.7</ele>
        <time>2020-05-22T14:40:39Z</time>
      </trkpt>
      <trkpt lat="48.67599" lon="7.25819">
        <ele>461.7</ele>
        <time>2020-05-22T14:40:41Z</time>
      </trkpt>
      <trkpt lat="48.67595" lon="7.25821">
        <ele>461.7</ele>
        <time>2020-05-22T14:40:43Z</time>
      </trkpt>
      <trkpt lat="48.67593" lon="7.25822">
        <ele>461.6</ele>
        <time>2020-05-22T14:40:44Z</time>
      </trkpt>
      <trkpt lat="48.67592" lon="7.25823">
        <ele>461.6</ele>
        <time>2020-05-22T14:40:45Z</time>
      </trkpt>
      <trkpt lat="48.67589" lon="7.25823">
        <ele>461.6</ele>
        <time>2020-05-22T14:40:47Z</time>
      </trkpt>
      <trkpt lat="48.67585" lon="7.25824">
        <ele>461.5</ele>
        <time>2020-05-22T14:40:49Z</time>
      </trkpt>
      <trkpt lat="48.67583" lon="7.25825">
        <ele>461.5</ele>
        <time>2020-05-22T14:40:50Z</time>
      </trkpt>
      <trkpt lat="48.6758" lon="7.25828">
        <ele>461.5</ele>
        <time>2020-05-22T14:40:52Z</time>
      </trkpt>
      <trkpt lat="48.67577" lon="7.25828">
        <ele>461.5</ele>
        <time>2020-05-22T14:40:53Z</time>
      </trkpt>
      <trkpt lat="48.67576" lon="7.25828">
        <ele>461.4</ele>
        <time>2020-05-22T14:40:54Z</time>
      </trkpt>
      <trkpt lat="48.67572" lon="7.25828">
        <ele>461.4</ele>
        <time>2020-05-22T14:40:56Z</time>
      </trkpt>
      <trkpt lat="48.6757" lon="7.25829">
        <ele>461.4</ele>
        <time>2020-05-22T14:40:58Z</time>
      </trkpt>
      <trkpt lat="48.67568" lon="7.2583">
        <ele>461.4</ele>
        <time>2020-05-22T14:40:59Z</time>
      </trkpt>
      <trkpt lat="48.67566" lon="7.2583">
        <ele>461.4</ele>
        <time>2020-05-22T14:41:00Z</time>
      </trkpt>
      <trkpt lat="48.67563" lon="7.25831">
        <ele>461.4</ele>
        <time>2020-05-22T14:41:02Z</time>
      </trkpt>
      <trkpt lat="48.6756" lon="7.2583">
        <ele>461.4</ele>
        <time>2020-05-22T14:41:04Z</time>
      </trkpt>
      <trkpt lat="48.67557" lon="7.25831">
        <ele>461.4</ele>
        <time>2020-05-22T14:41:06Z</time>
      </trkpt>
      <trkpt lat="48.67555" lon="7.25833">
        <ele>461.4</ele>
        <time>2020-05-22T14:41:07Z</time>
      </trkpt>
      <trkpt lat="48.67552" lon="7.25834">
        <ele>461.5</ele>
        <time>2020-05-22T14:41:09Z</time>
      </trkpt>
      <trkpt lat="48.6755" lon="7.25834">
        <ele>461.5</ele>
        <time>2020-05-22T14:41:10Z</time>
      </trkpt>
      <trkpt lat="48.67546" lon="7.25832">
        <ele>461.6</ele>
        <time>2020-05-22T14:41:12Z</time>
      </trkpt>
      <trkpt lat="48.67543" lon="7.25832">
        <ele>461.7</ele>
        <time>2020-05-22T14:41:14Z</time>
      </trkpt>
      <trkpt lat="48.6754" lon="7.25834">
        <ele>461.8</ele>
        <time>2020-05-22T14:41:16Z</time>
      </trkpt>
      <trkpt lat="48.67538" lon="7.25836">
        <ele>461.8</ele>
        <time>2020-05-22T14:41:17Z</time>
      </trkpt>
      <trkpt lat="48.67536" lon="7.25836">
        <ele>461.9</ele>
        <time>2020-05-22T14:41:18Z</time>
      </trkpt>
      <trkpt lat="48.67534" lon="7.25835">
        <ele>461.9</ele>
        <time>2020-05-22T14:41:20Z</time>
      </trkpt>
      <trkpt lat="48.67532" lon="7.25834">
        <ele>461.9</ele>
        <time>2020-05-22T14:41:21Z</time>
      </trkpt>
      <trkpt lat="48.67531" lon="7.25833">
        <ele>461.9</ele>
        <time>2020-05-22T14:41:22Z</time>
      </trkpt>
      <trkpt lat="48.67527" lon="7.25834">
        <ele>461.9</ele>
        <time>2020-05-22T14:41:24Z</time>
      </trkpt>
      <trkpt lat="48.67526" lon="7.25835">
        <ele>461.9</ele>
        <time>2020-05-22T14:41:25Z</time>
      </trkpt>
      <trkpt lat="48.67522" lon="7.25837">
        <ele>461.8</ele>
        <time>2020-05-22T14:41:27Z</time>
      </trkpt>
      <trkpt lat="48.67519" lon="7.25837">
        <ele>461.9</ele>
        <time>2020-05-22T14:41:29Z</time>
      </trkpt>
      <trkpt lat="48.67517" lon="7.25837">
        <ele>461.9</ele>
        <time>2020-05-22T14:41:30Z</time>
      </trkpt>
      <trkpt lat="48.67515" lon="7.25838">
        <ele>461.9</ele>
        <time>2020-05-22T14:41:31Z</time>
      </trkpt>
      <trkpt lat="48.67513" lon="7.25841">
        <ele>461.9</ele>
        <time>2020-05-22T14:41:33Z</time>
      </trkpt>
      <trkpt lat="48.67512" lon="7.25844">
        <ele>461.9</ele>
        <time>2020-05-22T14:41:34Z</time>
      </trkpt>
      <trkpt lat="48.67512" lon="7.25851">
        <ele>462.1</ele>
        <time>2020-05-22T14:41:36Z</time>
      </trkpt>
      <trkpt lat="48.67512" lon="7.25858">
        <ele>461.9</ele>
        <time>2020-05-22T14:41:38Z</time>
      </trkpt>
      <trkpt lat="48.67514" lon="7.25862">
        <ele>461.9</ele>
        <time>2020-05-22T14:41:40Z</time>
      </trkpt>
      <trkpt lat="48.67517" lon="7.25866">
        <ele>461.8</ele>
        <time>2020-05-22T14:41:42Z</time>
      </trkpt>
      <trkpt lat="48.67518" lon="7.25868">
        <ele>461.8</ele>
        <time>2020-05-22T14:41:43Z</time>
      </trkpt>
      <trkpt lat="48.67519" lon="7.2587">
        <ele>461.7</ele>
        <time>2020-05-22T14:41:44Z</time>
      </trkpt>
      <trkpt lat="48.67522" lon="7.25874">
        <ele>461.6</ele>
        <time>2020-05-22T14:41:46Z</time>
      </trkpt>
      <trkpt lat="48.67524" lon="7.25877">
        <ele>461.5</ele>
        <time>2020-05-22T14:41:47Z</time>
      </trkpt>
      <trkpt lat="48.67525" lon="7.25878">
        <ele>461.5</ele>
        <time>2020-05-22T14:41:48Z</time>
      </trkpt>
    </trkseg>
  </trk>
</gpx>